<?xml version="1.0" encoding="UTF-8" standalone="no" ?>
<gpx xmlns="http://www.topografix.com/GPX/1/1" xmlns:xsi="http://www.w3.org/2001/XMLSchema-instance" xsi:schemaLocation="http://www.topografix.com/GPX/1/1 http://www.topografix.com/GPX/1/1/gpx.xsd" version="1.1" creator="VisuGPX - https://www.visugpx.com">
  <metadata>
    <name>De Mayenne à Montgiroux</name>
    <desc><![CDATA[Une promenade le long du halage de la Mayenne]]></desc>
  </metadata>
  <trk>
    <name><![CDATA[Track]]></name>
    <extensions>
      <line xmlns="http://www.topografix.com/GPX/gpx_style/0/2">
        <color>ff0080</color>
        <opacity>1.0</opacity>
        <width>2.0</width>
      </line>
    </extensions>
    <trkseg>
      <trkpt lat="48.27897" lon="-0.62814">
        <ele>88.1</ele>
        <time>2012-02-29T13:57:07Z</time>
      </trkpt>
      <trkpt lat="48.27897" lon="-0.62814">
        <ele>139</ele>
        <time>2012-02-29T13:57:11Z</time>
      </trkpt>
      <trkpt lat="48.27893" lon="-0.62817">
        <ele>137</ele>
        <time>2012-02-29T13:58:05Z</time>
      </trkpt>
      <trkpt lat="48.27886" lon="-0.62825">
        <ele>136</ele>
        <time>2012-02-29T13:58:09Z</time>
      </trkpt>
      <trkpt lat="48.2788" lon="-0.62827">
        <ele>135</ele>
        <time>2012-02-29T13:58:11Z</time>
      </trkpt>
      <trkpt lat="48.27873" lon="-0.62827">
        <ele>135</ele>
        <time>2012-02-29T13:58:13Z</time>
      </trkpt>
      <trkpt lat="48.27861" lon="-0.6283">
        <ele>136</ele>
        <time>2012-02-29T13:58:17Z</time>
      </trkpt>
      <trkpt lat="48.27854" lon="-0.62831">
        <ele>136</ele>
        <time>2012-02-29T13:58:19Z</time>
      </trkpt>
      <trkpt lat="48.2784" lon="-0.62833">
        <ele>136</ele>
        <time>2012-02-29T13:58:23Z</time>
      </trkpt>
      <trkpt lat="48.27833" lon="-0.62834">
        <ele>136</ele>
        <time>2012-02-29T13:58:25Z</time>
      </trkpt>
      <trkpt lat="48.27812" lon="-0.62836">
        <ele>135</ele>
        <time>2012-02-29T13:58:31Z</time>
      </trkpt>
      <trkpt lat="48.27797" lon="-0.62842">
        <ele>135</ele>
        <time>2012-02-29T13:58:35Z</time>
      </trkpt>
      <trkpt lat="48.27782" lon="-0.62849">
        <ele>135</ele>
        <time>2012-02-29T13:58:37Z</time>
      </trkpt>
      <trkpt lat="48.27774" lon="-0.62854">
        <ele>136</ele>
        <time>2012-02-29T13:58:39Z</time>
      </trkpt>
      <trkpt lat="48.27758" lon="-0.62861">
        <ele>135</ele>
        <time>2012-02-29T13:58:43Z</time>
      </trkpt>
      <trkpt lat="48.27742" lon="-0.62866">
        <ele>135</ele>
        <time>2012-02-29T13:58:47Z</time>
      </trkpt>
      <trkpt lat="48.27725" lon="-0.62867">
        <ele>135</ele>
        <time>2012-02-29T13:58:51Z</time>
      </trkpt>
      <trkpt lat="48.27709" lon="-0.62867">
        <ele>136</ele>
        <time>2012-02-29T13:58:55Z</time>
      </trkpt>
      <trkpt lat="48.27692" lon="-0.62871">
        <ele>136</ele>
        <time>2012-02-29T13:58:59Z</time>
      </trkpt>
      <trkpt lat="48.27683" lon="-0.62873">
        <ele>135</ele>
        <time>2012-02-29T13:59:01Z</time>
      </trkpt>
      <trkpt lat="48.27666" lon="-0.62878">
        <ele>135</ele>
        <time>2012-02-29T13:59:05Z</time>
      </trkpt>
      <trkpt lat="48.27649" lon="-0.62885">
        <ele>136</ele>
        <time>2012-02-29T13:59:09Z</time>
      </trkpt>
      <trkpt lat="48.2764" lon="-0.62888">
        <ele>138</ele>
        <time>2012-02-29T13:59:11Z</time>
      </trkpt>
      <trkpt lat="48.27624" lon="-0.62889">
        <ele>137</ele>
        <time>2012-02-29T13:59:15Z</time>
      </trkpt>
      <trkpt lat="48.27607" lon="-0.62894">
        <ele>138</ele>
        <time>2012-02-29T13:59:19Z</time>
      </trkpt>
      <trkpt lat="48.27589" lon="-0.62899">
        <ele>139</ele>
        <time>2012-02-29T13:59:23Z</time>
      </trkpt>
      <trkpt lat="48.27574" lon="-0.62904">
        <ele>139</ele>
        <time>2012-02-29T13:59:27Z</time>
      </trkpt>
      <trkpt lat="48.2756" lon="-0.62909">
        <ele>140</ele>
        <time>2012-02-29T13:59:31Z</time>
      </trkpt>
      <trkpt lat="48.27543" lon="-0.62912">
        <ele>139</ele>
        <time>2012-02-29T13:59:35Z</time>
      </trkpt>
      <trkpt lat="48.27527" lon="-0.62916">
        <ele>138</ele>
        <time>2012-02-29T13:59:39Z</time>
      </trkpt>
      <trkpt lat="48.2751" lon="-0.62921">
        <ele>139</ele>
        <time>2012-02-29T13:59:43Z</time>
      </trkpt>
      <trkpt lat="48.27493" lon="-0.62924">
        <ele>139</ele>
        <time>2012-02-29T13:59:47Z</time>
      </trkpt>
      <trkpt lat="48.27477" lon="-0.62928">
        <ele>139</ele>
        <time>2012-02-29T13:59:51Z</time>
      </trkpt>
      <trkpt lat="48.2746" lon="-0.6293">
        <ele>139</ele>
        <time>2012-02-29T13:59:55Z</time>
      </trkpt>
      <trkpt lat="48.27444" lon="-0.62933">
        <ele>138</ele>
        <time>2012-02-29T13:59:59Z</time>
      </trkpt>
      <trkpt lat="48.27427" lon="-0.62937">
        <ele>139</ele>
        <time>2012-02-29T14:00:03Z</time>
      </trkpt>
      <trkpt lat="48.27412" lon="-0.6294">
        <ele>140</ele>
        <time>2012-02-29T14:00:07Z</time>
      </trkpt>
      <trkpt lat="48.274" lon="-0.62944">
        <ele>141</ele>
        <time>2012-02-29T14:00:11Z</time>
      </trkpt>
      <trkpt lat="48.27393" lon="-0.62948">
        <ele>141</ele>
        <time>2012-02-29T14:00:13Z</time>
      </trkpt>
      <trkpt lat="48.27377" lon="-0.62956">
        <ele>141</ele>
        <time>2012-02-29T14:00:17Z</time>
      </trkpt>
      <trkpt lat="48.2737" lon="-0.6296">
        <ele>142</ele>
        <time>2012-02-29T14:00:19Z</time>
      </trkpt>
      <trkpt lat="48.27354" lon="-0.62969">
        <ele>142</ele>
        <time>2012-02-29T14:00:23Z</time>
      </trkpt>
      <trkpt lat="48.27347" lon="-0.62974">
        <ele>141</ele>
        <time>2012-02-29T14:00:25Z</time>
      </trkpt>
      <trkpt lat="48.27336" lon="-0.62985">
        <ele>141</ele>
        <time>2012-02-29T14:00:29Z</time>
      </trkpt>
      <trkpt lat="48.27322" lon="-0.62998">
        <ele>141</ele>
        <time>2012-02-29T14:00:33Z</time>
      </trkpt>
      <trkpt lat="48.27316" lon="-0.63006">
        <ele>141</ele>
        <time>2012-02-29T14:00:35Z</time>
      </trkpt>
      <trkpt lat="48.27303" lon="-0.63023">
        <ele>141</ele>
        <time>2012-02-29T14:00:39Z</time>
      </trkpt>
      <trkpt lat="48.27284" lon="-0.63049">
        <ele>141</ele>
        <time>2012-02-29T14:00:45Z</time>
      </trkpt>
      <trkpt lat="48.27271" lon="-0.63066">
        <ele>140</ele>
        <time>2012-02-29T14:00:49Z</time>
      </trkpt>
      <trkpt lat="48.27264" lon="-0.63075">
        <ele>141</ele>
        <time>2012-02-29T14:00:51Z</time>
      </trkpt>
      <trkpt lat="48.27254" lon="-0.63097">
        <ele>142</ele>
        <time>2012-02-29T14:00:55Z</time>
      </trkpt>
      <trkpt lat="48.27243" lon="-0.6313">
        <ele>141</ele>
        <time>2012-02-29T14:01:01Z</time>
      </trkpt>
      <trkpt lat="48.27234" lon="-0.63152">
        <ele>139</ele>
        <time>2012-02-29T14:01:05Z</time>
      </trkpt>
      <trkpt lat="48.27229" lon="-0.63164">
        <ele>138</ele>
        <time>2012-02-29T14:01:07Z</time>
      </trkpt>
      <trkpt lat="48.27221" lon="-0.63185">
        <ele>137</ele>
        <time>2012-02-29T14:01:11Z</time>
      </trkpt>
      <trkpt lat="48.27211" lon="-0.63204">
        <ele>137</ele>
        <time>2012-02-29T14:01:15Z</time>
      </trkpt>
      <trkpt lat="48.272" lon="-0.63224">
        <ele>136</ele>
        <time>2012-02-29T14:01:19Z</time>
      </trkpt>
      <trkpt lat="48.27194" lon="-0.63233">
        <ele>136</ele>
        <time>2012-02-29T14:01:21Z</time>
      </trkpt>
      <trkpt lat="48.27182" lon="-0.6325">
        <ele>136</ele>
        <time>2012-02-29T14:01:25Z</time>
      </trkpt>
      <trkpt lat="48.2717" lon="-0.63266">
        <ele>134</ele>
        <time>2012-02-29T14:01:29Z</time>
      </trkpt>
      <trkpt lat="48.27165" lon="-0.63274">
        <ele>133</ele>
        <time>2012-02-29T14:01:31Z</time>
      </trkpt>
      <trkpt lat="48.27156" lon="-0.63285">
        <ele>132</ele>
        <time>2012-02-29T14:01:35Z</time>
      </trkpt>
      <trkpt lat="48.27151" lon="-0.63291">
        <ele>131</ele>
        <time>2012-02-29T14:01:37Z</time>
      </trkpt>
      <trkpt lat="48.27142" lon="-0.63304">
        <ele>131</ele>
        <time>2012-02-29T14:01:41Z</time>
      </trkpt>
      <trkpt lat="48.27137" lon="-0.63312">
        <ele>131</ele>
        <time>2012-02-29T14:01:43Z</time>
      </trkpt>
      <trkpt lat="48.27132" lon="-0.6332">
        <ele>131</ele>
        <time>2012-02-29T14:01:45Z</time>
      </trkpt>
      <trkpt lat="48.27115" lon="-0.63344">
        <ele>131</ele>
        <time>2012-02-29T14:01:51Z</time>
      </trkpt>
      <trkpt lat="48.27104" lon="-0.63359">
        <ele>131</ele>
        <time>2012-02-29T14:01:55Z</time>
      </trkpt>
      <trkpt lat="48.27094" lon="-0.63374">
        <ele>133</ele>
        <time>2012-02-29T14:01:59Z</time>
      </trkpt>
      <trkpt lat="48.27088" lon="-0.63381">
        <ele>134</ele>
        <time>2012-02-29T14:02:01Z</time>
      </trkpt>
      <trkpt lat="48.27078" lon="-0.63397">
        <ele>134</ele>
        <time>2012-02-29T14:02:05Z</time>
      </trkpt>
      <trkpt lat="48.27073" lon="-0.63406">
        <ele>136</ele>
        <time>2012-02-29T14:02:07Z</time>
      </trkpt>
      <trkpt lat="48.27065" lon="-0.63423">
        <ele>136</ele>
        <time>2012-02-29T14:02:11Z</time>
      </trkpt>
      <trkpt lat="48.27062" lon="-0.6343">
        <ele>137</ele>
        <time>2012-02-29T14:02:13Z</time>
      </trkpt>
      <trkpt lat="48.27057" lon="-0.63445">
        <ele>136</ele>
        <time>2012-02-29T14:02:17Z</time>
      </trkpt>
      <trkpt lat="48.27054" lon="-0.63454">
        <ele>135</ele>
        <time>2012-02-29T14:02:19Z</time>
      </trkpt>
      <trkpt lat="48.27048" lon="-0.63475">
        <ele>135</ele>
        <time>2012-02-29T14:02:23Z</time>
      </trkpt>
      <trkpt lat="48.27045" lon="-0.63488">
        <ele>135</ele>
        <time>2012-02-29T14:02:25Z</time>
      </trkpt>
      <trkpt lat="48.27038" lon="-0.63514">
        <ele>134</ele>
        <time>2012-02-29T14:02:29Z</time>
      </trkpt>
      <trkpt lat="48.2703" lon="-0.63542">
        <ele>133</ele>
        <time>2012-02-29T14:02:33Z</time>
      </trkpt>
      <trkpt lat="48.27023" lon="-0.63568">
        <ele>132</ele>
        <time>2012-02-29T14:02:37Z</time>
      </trkpt>
      <trkpt lat="48.27016" lon="-0.63591">
        <ele>131</ele>
        <time>2012-02-29T14:02:41Z</time>
      </trkpt>
      <trkpt lat="48.2701" lon="-0.63615">
        <ele>130</ele>
        <time>2012-02-29T14:02:45Z</time>
      </trkpt>
      <trkpt lat="48.27007" lon="-0.63626">
        <ele>130</ele>
        <time>2012-02-29T14:02:47Z</time>
      </trkpt>
      <trkpt lat="48.27" lon="-0.63649">
        <ele>130</ele>
        <time>2012-02-29T14:02:51Z</time>
      </trkpt>
      <trkpt lat="48.26997" lon="-0.63661">
        <ele>131</ele>
        <time>2012-02-29T14:02:53Z</time>
      </trkpt>
      <trkpt lat="48.26991" lon="-0.63685">
        <ele>131</ele>
        <time>2012-02-29T14:02:57Z</time>
      </trkpt>
      <trkpt lat="48.26986" lon="-0.63709">
        <ele>131</ele>
        <time>2012-02-29T14:03:01Z</time>
      </trkpt>
      <trkpt lat="48.26983" lon="-0.63721">
        <ele>131</ele>
        <time>2012-02-29T14:03:03Z</time>
      </trkpt>
      <trkpt lat="48.26978" lon="-0.63745">
        <ele>131</ele>
        <time>2012-02-29T14:03:07Z</time>
      </trkpt>
      <trkpt lat="48.26972" lon="-0.6377">
        <ele>131</ele>
        <time>2012-02-29T14:03:11Z</time>
      </trkpt>
      <trkpt lat="48.26969" lon="-0.63783">
        <ele>132</ele>
        <time>2012-02-29T14:03:13Z</time>
      </trkpt>
      <trkpt lat="48.26964" lon="-0.63808">
        <ele>132</ele>
        <time>2012-02-29T14:03:17Z</time>
      </trkpt>
      <trkpt lat="48.2696" lon="-0.63831">
        <ele>132</ele>
        <time>2012-02-29T14:03:21Z</time>
      </trkpt>
      <trkpt lat="48.26957" lon="-0.63843">
        <ele>132</ele>
        <time>2012-02-29T14:03:23Z</time>
      </trkpt>
      <trkpt lat="48.26952" lon="-0.63867">
        <ele>132</ele>
        <time>2012-02-29T14:03:27Z</time>
      </trkpt>
      <trkpt lat="48.26949" lon="-0.63879">
        <ele>131</ele>
        <time>2012-02-29T14:03:29Z</time>
      </trkpt>
      <trkpt lat="48.26942" lon="-0.63903">
        <ele>131</ele>
        <time>2012-02-29T14:03:33Z</time>
      </trkpt>
      <trkpt lat="48.26936" lon="-0.63926">
        <ele>131</ele>
        <time>2012-02-29T14:03:37Z</time>
      </trkpt>
      <trkpt lat="48.26933" lon="-0.63938">
        <ele>131</ele>
        <time>2012-02-29T14:03:39Z</time>
      </trkpt>
      <trkpt lat="48.26928" lon="-0.63962">
        <ele>131</ele>
        <time>2012-02-29T14:03:43Z</time>
      </trkpt>
      <trkpt lat="48.26922" lon="-0.63986">
        <ele>131</ele>
        <time>2012-02-29T14:03:47Z</time>
      </trkpt>
      <trkpt lat="48.26915" lon="-0.6401">
        <ele>132</ele>
        <time>2012-02-29T14:03:51Z</time>
      </trkpt>
      <trkpt lat="48.26908" lon="-0.64034">
        <ele>132</ele>
        <time>2012-02-29T14:03:55Z</time>
      </trkpt>
      <trkpt lat="48.26905" lon="-0.64046">
        <ele>133</ele>
        <time>2012-02-29T14:03:57Z</time>
      </trkpt>
      <trkpt lat="48.26896" lon="-0.64069">
        <ele>134</ele>
        <time>2012-02-29T14:04:01Z</time>
      </trkpt>
      <trkpt lat="48.26889" lon="-0.64092">
        <ele>134</ele>
        <time>2012-02-29T14:04:05Z</time>
      </trkpt>
      <trkpt lat="48.26883" lon="-0.64118">
        <ele>135</ele>
        <time>2012-02-29T14:04:09Z</time>
      </trkpt>
      <trkpt lat="48.26881" lon="-0.64145">
        <ele>136</ele>
        <time>2012-02-29T14:04:13Z</time>
      </trkpt>
      <trkpt lat="48.2688" lon="-0.64172">
        <ele>136</ele>
        <time>2012-02-29T14:04:17Z</time>
      </trkpt>
      <trkpt lat="48.26879" lon="-0.64197">
        <ele>135</ele>
        <time>2012-02-29T14:04:21Z</time>
      </trkpt>
      <trkpt lat="48.26879" lon="-0.6421">
        <ele>135</ele>
        <time>2012-02-29T14:04:23Z</time>
      </trkpt>
      <trkpt lat="48.26877" lon="-0.64236">
        <ele>134</ele>
        <time>2012-02-29T14:04:27Z</time>
      </trkpt>
      <trkpt lat="48.26874" lon="-0.64262">
        <ele>135</ele>
        <time>2012-02-29T14:04:31Z</time>
      </trkpt>
      <trkpt lat="48.26872" lon="-0.64288">
        <ele>137</ele>
        <time>2012-02-29T14:04:35Z</time>
      </trkpt>
      <trkpt lat="48.26871" lon="-0.643">
        <ele>137</ele>
        <time>2012-02-29T14:04:37Z</time>
      </trkpt>
      <trkpt lat="48.26868" lon="-0.64324">
        <ele>136</ele>
        <time>2012-02-29T14:04:41Z</time>
      </trkpt>
      <trkpt lat="48.26863" lon="-0.64349">
        <ele>135</ele>
        <time>2012-02-29T14:04:45Z</time>
      </trkpt>
      <trkpt lat="48.2686" lon="-0.64361">
        <ele>134</ele>
        <time>2012-02-29T14:04:47Z</time>
      </trkpt>
      <trkpt lat="48.26855" lon="-0.64384">
        <ele>132</ele>
        <time>2012-02-29T14:04:51Z</time>
      </trkpt>
      <trkpt lat="48.26852" lon="-0.64396">
        <ele>132</ele>
        <time>2012-02-29T14:04:53Z</time>
      </trkpt>
      <trkpt lat="48.26847" lon="-0.6442">
        <ele>129</ele>
        <time>2012-02-29T14:04:57Z</time>
      </trkpt>
      <trkpt lat="48.26844" lon="-0.64433">
        <ele>128</ele>
        <time>2012-02-29T14:04:59Z</time>
      </trkpt>
      <trkpt lat="48.26837" lon="-0.64458">
        <ele>127</ele>
        <time>2012-02-29T14:05:03Z</time>
      </trkpt>
      <trkpt lat="48.2683" lon="-0.64481">
        <ele>126</ele>
        <time>2012-02-29T14:05:07Z</time>
      </trkpt>
      <trkpt lat="48.26822" lon="-0.64505">
        <ele>126</ele>
        <time>2012-02-29T14:05:11Z</time>
      </trkpt>
      <trkpt lat="48.26816" lon="-0.6453">
        <ele>127</ele>
        <time>2012-02-29T14:05:15Z</time>
      </trkpt>
      <trkpt lat="48.26812" lon="-0.64554">
        <ele>127</ele>
        <time>2012-02-29T14:05:19Z</time>
      </trkpt>
      <trkpt lat="48.26808" lon="-0.64579">
        <ele>128</ele>
        <time>2012-02-29T14:05:23Z</time>
      </trkpt>
      <trkpt lat="48.26806" lon="-0.64592">
        <ele>128</ele>
        <time>2012-02-29T14:05:25Z</time>
      </trkpt>
      <trkpt lat="48.26802" lon="-0.64618">
        <ele>129</ele>
        <time>2012-02-29T14:05:29Z</time>
      </trkpt>
      <trkpt lat="48.26799" lon="-0.64643">
        <ele>130</ele>
        <time>2012-02-29T14:05:33Z</time>
      </trkpt>
      <trkpt lat="48.26795" lon="-0.64666">
        <ele>129</ele>
        <time>2012-02-29T14:05:37Z</time>
      </trkpt>
      <trkpt lat="48.26792" lon="-0.6469">
        <ele>129</ele>
        <time>2012-02-29T14:05:41Z</time>
      </trkpt>
      <trkpt lat="48.2679" lon="-0.64702">
        <ele>130</ele>
        <time>2012-02-29T14:05:43Z</time>
      </trkpt>
      <trkpt lat="48.26786" lon="-0.64727">
        <ele>130</ele>
        <time>2012-02-29T14:05:47Z</time>
      </trkpt>
      <trkpt lat="48.26782" lon="-0.64752">
        <ele>129</ele>
        <time>2012-02-29T14:05:51Z</time>
      </trkpt>
      <trkpt lat="48.26776" lon="-0.64777">
        <ele>129</ele>
        <time>2012-02-29T14:05:55Z</time>
      </trkpt>
      <trkpt lat="48.26771" lon="-0.648">
        <ele>129</ele>
        <time>2012-02-29T14:05:59Z</time>
      </trkpt>
      <trkpt lat="48.26766" lon="-0.64825">
        <ele>129</ele>
        <time>2012-02-29T14:06:03Z</time>
      </trkpt>
      <trkpt lat="48.26761" lon="-0.64849">
        <ele>129</ele>
        <time>2012-02-29T14:06:07Z</time>
      </trkpt>
      <trkpt lat="48.26754" lon="-0.64873">
        <ele>129</ele>
        <time>2012-02-29T14:06:11Z</time>
      </trkpt>
      <trkpt lat="48.26747" lon="-0.64897">
        <ele>128</ele>
        <time>2012-02-29T14:06:15Z</time>
      </trkpt>
      <trkpt lat="48.26738" lon="-0.64919">
        <ele>128</ele>
        <time>2012-02-29T14:06:19Z</time>
      </trkpt>
      <trkpt lat="48.26724" lon="-0.64937">
        <ele>127</ele>
        <time>2012-02-29T14:06:23Z</time>
      </trkpt>
      <trkpt lat="48.2671" lon="-0.64951">
        <ele>128</ele>
        <time>2012-02-29T14:06:27Z</time>
      </trkpt>
      <trkpt lat="48.26695" lon="-0.64961">
        <ele>128</ele>
        <time>2012-02-29T14:06:31Z</time>
      </trkpt>
      <trkpt lat="48.26679" lon="-0.6497">
        <ele>128</ele>
        <time>2012-02-29T14:06:35Z</time>
      </trkpt>
      <trkpt lat="48.26662" lon="-0.64976">
        <ele>127</ele>
        <time>2012-02-29T14:06:39Z</time>
      </trkpt>
      <trkpt lat="48.26646" lon="-0.64982">
        <ele>127</ele>
        <time>2012-02-29T14:06:43Z</time>
      </trkpt>
      <trkpt lat="48.2663" lon="-0.64987">
        <ele>127</ele>
        <time>2012-02-29T14:06:47Z</time>
      </trkpt>
      <trkpt lat="48.26622" lon="-0.64992">
        <ele>127</ele>
        <time>2012-02-29T14:06:49Z</time>
      </trkpt>
      <trkpt lat="48.26607" lon="-0.65">
        <ele>127</ele>
        <time>2012-02-29T14:06:53Z</time>
      </trkpt>
      <trkpt lat="48.26591" lon="-0.65009">
        <ele>127</ele>
        <time>2012-02-29T14:06:57Z</time>
      </trkpt>
      <trkpt lat="48.26575" lon="-0.65017">
        <ele>127</ele>
        <time>2012-02-29T14:07:01Z</time>
      </trkpt>
      <trkpt lat="48.26567" lon="-0.65022">
        <ele>127</ele>
        <time>2012-02-29T14:07:03Z</time>
      </trkpt>
      <trkpt lat="48.26552" lon="-0.65031">
        <ele>128</ele>
        <time>2012-02-29T14:07:07Z</time>
      </trkpt>
      <trkpt lat="48.26546" lon="-0.65034">
        <ele>128</ele>
        <time>2012-02-29T14:07:09Z</time>
      </trkpt>
      <trkpt lat="48.26532" lon="-0.65041">
        <ele>127</ele>
        <time>2012-02-29T14:07:13Z</time>
      </trkpt>
      <trkpt lat="48.26517" lon="-0.65049">
        <ele>128</ele>
        <time>2012-02-29T14:07:17Z</time>
      </trkpt>
      <trkpt lat="48.2651" lon="-0.65052">
        <ele>128</ele>
        <time>2012-02-29T14:07:19Z</time>
      </trkpt>
      <trkpt lat="48.26495" lon="-0.65061">
        <ele>129</ele>
        <time>2012-02-29T14:07:23Z</time>
      </trkpt>
      <trkpt lat="48.26479" lon="-0.65069">
        <ele>127</ele>
        <time>2012-02-29T14:07:27Z</time>
      </trkpt>
      <trkpt lat="48.26472" lon="-0.65074">
        <ele>128</ele>
        <time>2012-02-29T14:07:29Z</time>
      </trkpt>
      <trkpt lat="48.26456" lon="-0.65083">
        <ele>129</ele>
        <time>2012-02-29T14:07:33Z</time>
      </trkpt>
      <trkpt lat="48.26448" lon="-0.65086">
        <ele>129</ele>
        <time>2012-02-29T14:07:35Z</time>
      </trkpt>
      <trkpt lat="48.26432" lon="-0.65094">
        <ele>129</ele>
        <time>2012-02-29T14:07:39Z</time>
      </trkpt>
      <trkpt lat="48.26416" lon="-0.65103">
        <ele>129</ele>
        <time>2012-02-29T14:07:43Z</time>
      </trkpt>
      <trkpt lat="48.264" lon="-0.65112">
        <ele>129</ele>
        <time>2012-02-29T14:07:47Z</time>
      </trkpt>
      <trkpt lat="48.26385" lon="-0.6512">
        <ele>128</ele>
        <time>2012-02-29T14:07:51Z</time>
      </trkpt>
      <trkpt lat="48.26371" lon="-0.65129">
        <ele>128</ele>
        <time>2012-02-29T14:07:55Z</time>
      </trkpt>
      <trkpt lat="48.26356" lon="-0.65138">
        <ele>127</ele>
        <time>2012-02-29T14:07:59Z</time>
      </trkpt>
      <trkpt lat="48.26336" lon="-0.65149">
        <ele>127</ele>
        <time>2012-02-29T14:08:05Z</time>
      </trkpt>
      <trkpt lat="48.26323" lon="-0.65156">
        <ele>127</ele>
        <time>2012-02-29T14:08:09Z</time>
      </trkpt>
      <trkpt lat="48.26316" lon="-0.6516">
        <ele>127</ele>
        <time>2012-02-29T14:08:11Z</time>
      </trkpt>
      <trkpt lat="48.263" lon="-0.65167">
        <ele>127</ele>
        <time>2012-02-29T14:08:15Z</time>
      </trkpt>
      <trkpt lat="48.26292" lon="-0.65171">
        <ele>127</ele>
        <time>2012-02-29T14:08:17Z</time>
      </trkpt>
      <trkpt lat="48.26277" lon="-0.6518">
        <ele>127</ele>
        <time>2012-02-29T14:08:21Z</time>
      </trkpt>
      <trkpt lat="48.26261" lon="-0.65186">
        <ele>127</ele>
        <time>2012-02-29T14:08:25Z</time>
      </trkpt>
      <trkpt lat="48.26245" lon="-0.65193">
        <ele>128</ele>
        <time>2012-02-29T14:08:29Z</time>
      </trkpt>
      <trkpt lat="48.2623" lon="-0.65201">
        <ele>128</ele>
        <time>2012-02-29T14:08:33Z</time>
      </trkpt>
      <trkpt lat="48.26213" lon="-0.65205">
        <ele>128</ele>
        <time>2012-02-29T14:08:37Z</time>
      </trkpt>
      <trkpt lat="48.26206" lon="-0.65206">
        <ele>128</ele>
        <time>2012-02-29T14:08:39Z</time>
      </trkpt>
      <trkpt lat="48.26192" lon="-0.6521">
        <ele>128</ele>
        <time>2012-02-29T14:08:43Z</time>
      </trkpt>
      <trkpt lat="48.26177" lon="-0.65215">
        <ele>129</ele>
        <time>2012-02-29T14:08:47Z</time>
      </trkpt>
      <trkpt lat="48.26162" lon="-0.65218">
        <ele>129</ele>
        <time>2012-02-29T14:08:51Z</time>
      </trkpt>
      <trkpt lat="48.26154" lon="-0.65219">
        <ele>129</ele>
        <time>2012-02-29T14:08:53Z</time>
      </trkpt>
      <trkpt lat="48.2614" lon="-0.65224">
        <ele>129</ele>
        <time>2012-02-29T14:08:57Z</time>
      </trkpt>
      <trkpt lat="48.26124" lon="-0.65229">
        <ele>130</ele>
        <time>2012-02-29T14:09:01Z</time>
      </trkpt>
      <trkpt lat="48.26109" lon="-0.65236">
        <ele>130</ele>
        <time>2012-02-29T14:09:05Z</time>
      </trkpt>
      <trkpt lat="48.26093" lon="-0.6524">
        <ele>130</ele>
        <time>2012-02-29T14:09:09Z</time>
      </trkpt>
      <trkpt lat="48.26077" lon="-0.65246">
        <ele>131</ele>
        <time>2012-02-29T14:09:13Z</time>
      </trkpt>
      <trkpt lat="48.2607" lon="-0.65249">
        <ele>131</ele>
        <time>2012-02-29T14:09:15Z</time>
      </trkpt>
      <trkpt lat="48.26055" lon="-0.65255">
        <ele>130</ele>
        <time>2012-02-29T14:09:19Z</time>
      </trkpt>
      <trkpt lat="48.26039" lon="-0.65261">
        <ele>130</ele>
        <time>2012-02-29T14:09:23Z</time>
      </trkpt>
      <trkpt lat="48.26022" lon="-0.65265">
        <ele>131</ele>
        <time>2012-02-29T14:09:27Z</time>
      </trkpt>
      <trkpt lat="48.26004" lon="-0.65268">
        <ele>131</ele>
        <time>2012-02-29T14:09:31Z</time>
      </trkpt>
      <trkpt lat="48.25987" lon="-0.65271">
        <ele>132</ele>
        <time>2012-02-29T14:09:35Z</time>
      </trkpt>
      <trkpt lat="48.25978" lon="-0.65272">
        <ele>133</ele>
        <time>2012-02-29T14:09:37Z</time>
      </trkpt>
      <trkpt lat="48.2596" lon="-0.65273">
        <ele>134</ele>
        <time>2012-02-29T14:09:41Z</time>
      </trkpt>
      <trkpt lat="48.25952" lon="-0.65274">
        <ele>134</ele>
        <time>2012-02-29T14:09:43Z</time>
      </trkpt>
      <trkpt lat="48.25934" lon="-0.65275">
        <ele>134</ele>
        <time>2012-02-29T14:09:47Z</time>
      </trkpt>
      <trkpt lat="48.25917" lon="-0.65275">
        <ele>134</ele>
        <time>2012-02-29T14:09:51Z</time>
      </trkpt>
      <trkpt lat="48.25898" lon="-0.65272">
        <ele>133</ele>
        <time>2012-02-29T14:09:55Z</time>
      </trkpt>
      <trkpt lat="48.25881" lon="-0.65269">
        <ele>133</ele>
        <time>2012-02-29T14:09:59Z</time>
      </trkpt>
      <trkpt lat="48.25863" lon="-0.65267">
        <ele>133</ele>
        <time>2012-02-29T14:10:03Z</time>
      </trkpt>
      <trkpt lat="48.25846" lon="-0.65264">
        <ele>133</ele>
        <time>2012-02-29T14:10:07Z</time>
      </trkpt>
      <trkpt lat="48.25837" lon="-0.65262">
        <ele>134</ele>
        <time>2012-02-29T14:10:09Z</time>
      </trkpt>
      <trkpt lat="48.2582" lon="-0.65259">
        <ele>133</ele>
        <time>2012-02-29T14:10:13Z</time>
      </trkpt>
      <trkpt lat="48.25803" lon="-0.65255">
        <ele>133</ele>
        <time>2012-02-29T14:10:17Z</time>
      </trkpt>
      <trkpt lat="48.25787" lon="-0.65252">
        <ele>133</ele>
        <time>2012-02-29T14:10:21Z</time>
      </trkpt>
      <trkpt lat="48.25779" lon="-0.6525">
        <ele>134</ele>
        <time>2012-02-29T14:10:23Z</time>
      </trkpt>
      <trkpt lat="48.25762" lon="-0.65249">
        <ele>135</ele>
        <time>2012-02-29T14:10:27Z</time>
      </trkpt>
      <trkpt lat="48.25746" lon="-0.65247">
        <ele>135</ele>
        <time>2012-02-29T14:10:31Z</time>
      </trkpt>
      <trkpt lat="48.25729" lon="-0.65246">
        <ele>136</ele>
        <time>2012-02-29T14:10:35Z</time>
      </trkpt>
      <trkpt lat="48.25712" lon="-0.65247">
        <ele>137</ele>
        <time>2012-02-29T14:10:39Z</time>
      </trkpt>
      <trkpt lat="48.25696" lon="-0.65248">
        <ele>137</ele>
        <time>2012-02-29T14:10:43Z</time>
      </trkpt>
      <trkpt lat="48.25678" lon="-0.65248">
        <ele>137</ele>
        <time>2012-02-29T14:10:47Z</time>
      </trkpt>
      <trkpt lat="48.2566" lon="-0.65248">
        <ele>138</ele>
        <time>2012-02-29T14:10:51Z</time>
      </trkpt>
      <trkpt lat="48.25643" lon="-0.65247">
        <ele>140</ele>
        <time>2012-02-29T14:10:55Z</time>
      </trkpt>
      <trkpt lat="48.25625" lon="-0.65244">
        <ele>140</ele>
        <time>2012-02-29T14:10:59Z</time>
      </trkpt>
      <trkpt lat="48.25607" lon="-0.65239">
        <ele>140</ele>
        <time>2012-02-29T14:11:03Z</time>
      </trkpt>
      <trkpt lat="48.2559" lon="-0.65233">
        <ele>139</ele>
        <time>2012-02-29T14:11:07Z</time>
      </trkpt>
      <trkpt lat="48.25582" lon="-0.65228">
        <ele>139</ele>
        <time>2012-02-29T14:11:09Z</time>
      </trkpt>
      <trkpt lat="48.25566" lon="-0.65218">
        <ele>139</ele>
        <time>2012-02-29T14:11:13Z</time>
      </trkpt>
      <trkpt lat="48.25558" lon="-0.65212">
        <ele>139</ele>
        <time>2012-02-29T14:11:15Z</time>
      </trkpt>
      <trkpt lat="48.25543" lon="-0.65197">
        <ele>138</ele>
        <time>2012-02-29T14:11:19Z</time>
      </trkpt>
      <trkpt lat="48.25529" lon="-0.65183">
        <ele>138</ele>
        <time>2012-02-29T14:11:23Z</time>
      </trkpt>
      <trkpt lat="48.25521" lon="-0.65176">
        <ele>138</ele>
        <time>2012-02-29T14:11:25Z</time>
      </trkpt>
      <trkpt lat="48.25506" lon="-0.65162">
        <ele>138</ele>
        <time>2012-02-29T14:11:29Z</time>
      </trkpt>
      <trkpt lat="48.25491" lon="-0.6515">
        <ele>138</ele>
        <time>2012-02-29T14:11:33Z</time>
      </trkpt>
      <trkpt lat="48.25476" lon="-0.65141">
        <ele>137</ele>
        <time>2012-02-29T14:11:37Z</time>
      </trkpt>
      <trkpt lat="48.25464" lon="-0.65136">
        <ele>137</ele>
        <time>2012-02-29T14:11:41Z</time>
      </trkpt>
      <trkpt lat="48.2545" lon="-0.65131">
        <ele>135</ele>
        <time>2012-02-29T14:11:45Z</time>
      </trkpt>
      <trkpt lat="48.25442" lon="-0.6513">
        <ele>135</ele>
        <time>2012-02-29T14:11:47Z</time>
      </trkpt>
      <trkpt lat="48.25425" lon="-0.65126">
        <ele>134</ele>
        <time>2012-02-29T14:11:51Z</time>
      </trkpt>
      <trkpt lat="48.25408" lon="-0.65124">
        <ele>135</ele>
        <time>2012-02-29T14:11:55Z</time>
      </trkpt>
      <trkpt lat="48.25391" lon="-0.65126">
        <ele>137</ele>
        <time>2012-02-29T14:11:59Z</time>
      </trkpt>
      <trkpt lat="48.25375" lon="-0.65128">
        <ele>138</ele>
        <time>2012-02-29T14:12:03Z</time>
      </trkpt>
      <trkpt lat="48.25358" lon="-0.6513">
        <ele>139</ele>
        <time>2012-02-29T14:12:07Z</time>
      </trkpt>
      <trkpt lat="48.2535" lon="-0.6513">
        <ele>139</ele>
        <time>2012-02-29T14:12:09Z</time>
      </trkpt>
      <trkpt lat="48.25333" lon="-0.65128">
        <ele>139</ele>
        <time>2012-02-29T14:12:13Z</time>
      </trkpt>
      <trkpt lat="48.25316" lon="-0.65124">
        <ele>138</ele>
        <time>2012-02-29T14:12:17Z</time>
      </trkpt>
      <trkpt lat="48.25308" lon="-0.65122">
        <ele>139</ele>
        <time>2012-02-29T14:12:19Z</time>
      </trkpt>
      <trkpt lat="48.2529" lon="-0.65119">
        <ele>139</ele>
        <time>2012-02-29T14:12:23Z</time>
      </trkpt>
      <trkpt lat="48.25282" lon="-0.65118">
        <ele>139</ele>
        <time>2012-02-29T14:12:25Z</time>
      </trkpt>
      <trkpt lat="48.25265" lon="-0.65114">
        <ele>138</ele>
        <time>2012-02-29T14:12:29Z</time>
      </trkpt>
      <trkpt lat="48.25256" lon="-0.65113">
        <ele>137</ele>
        <time>2012-02-29T14:12:31Z</time>
      </trkpt>
      <trkpt lat="48.25239" lon="-0.65109">
        <ele>137</ele>
        <time>2012-02-29T14:12:35Z</time>
      </trkpt>
      <trkpt lat="48.25222" lon="-0.65106">
        <ele>138</ele>
        <time>2012-02-29T14:12:39Z</time>
      </trkpt>
      <trkpt lat="48.25206" lon="-0.65105">
        <ele>140</ele>
        <time>2012-02-29T14:12:43Z</time>
      </trkpt>
      <trkpt lat="48.2519" lon="-0.65102">
        <ele>141</ele>
        <time>2012-02-29T14:12:47Z</time>
      </trkpt>
      <trkpt lat="48.25174" lon="-0.651">
        <ele>142</ele>
        <time>2012-02-29T14:12:51Z</time>
      </trkpt>
      <trkpt lat="48.25158" lon="-0.651">
        <ele>145</ele>
        <time>2012-02-29T14:12:55Z</time>
      </trkpt>
      <trkpt lat="48.25143" lon="-0.65102">
        <ele>147</ele>
        <time>2012-02-29T14:12:59Z</time>
      </trkpt>
      <trkpt lat="48.25135" lon="-0.65103">
        <ele>147</ele>
        <time>2012-02-29T14:13:01Z</time>
      </trkpt>
      <trkpt lat="48.25121" lon="-0.65106">
        <ele>148</ele>
        <time>2012-02-29T14:13:05Z</time>
      </trkpt>
      <trkpt lat="48.25107" lon="-0.65109">
        <ele>148</ele>
        <time>2012-02-29T14:13:09Z</time>
      </trkpt>
      <trkpt lat="48.251" lon="-0.65111">
        <ele>148</ele>
        <time>2012-02-29T14:13:11Z</time>
      </trkpt>
      <trkpt lat="48.25089" lon="-0.65112">
        <ele>148</ele>
        <time>2012-02-29T14:13:18Z</time>
      </trkpt>
      <trkpt lat="48.25075" lon="-0.6511">
        <ele>147</ele>
        <time>2012-02-29T14:13:24Z</time>
      </trkpt>
      <trkpt lat="48.25069" lon="-0.6511">
        <ele>147</ele>
        <time>2012-02-29T14:13:26Z</time>
      </trkpt>
      <trkpt lat="48.25063" lon="-0.65109">
        <ele>147</ele>
        <time>2012-02-29T14:13:28Z</time>
      </trkpt>
      <trkpt lat="48.25044" lon="-0.65106">
        <ele>145</ele>
        <time>2012-02-29T14:13:34Z</time>
      </trkpt>
      <trkpt lat="48.2503" lon="-0.65104">
        <ele>144</ele>
        <time>2012-02-29T14:13:38Z</time>
      </trkpt>
      <trkpt lat="48.25023" lon="-0.65103">
        <ele>144</ele>
        <time>2012-02-29T14:13:40Z</time>
      </trkpt>
      <trkpt lat="48.25009" lon="-0.65104">
        <ele>145</ele>
        <time>2012-02-29T14:13:44Z</time>
      </trkpt>
      <trkpt lat="48.25001" lon="-0.65105">
        <ele>146</ele>
        <time>2012-02-29T14:13:46Z</time>
      </trkpt>
      <trkpt lat="48.24986" lon="-0.65107">
        <ele>148</ele>
        <time>2012-02-29T14:13:50Z</time>
      </trkpt>
      <trkpt lat="48.24971" lon="-0.65109">
        <ele>151</ele>
        <time>2012-02-29T14:13:54Z</time>
      </trkpt>
      <trkpt lat="48.24956" lon="-0.65112">
        <ele>152</ele>
        <time>2012-02-29T14:13:58Z</time>
      </trkpt>
      <trkpt lat="48.24939" lon="-0.65115">
        <ele>155</ele>
        <time>2012-02-29T14:14:02Z</time>
      </trkpt>
      <trkpt lat="48.24923" lon="-0.65118">
        <ele>157</ele>
        <time>2012-02-29T14:14:06Z</time>
      </trkpt>
      <trkpt lat="48.24906" lon="-0.6512">
        <ele>159</ele>
        <time>2012-02-29T14:14:10Z</time>
      </trkpt>
      <trkpt lat="48.2489" lon="-0.65123">
        <ele>158</ele>
        <time>2012-02-29T14:14:14Z</time>
      </trkpt>
      <trkpt lat="48.24875" lon="-0.65125">
        <ele>157</ele>
        <time>2012-02-29T14:14:18Z</time>
      </trkpt>
      <trkpt lat="48.24859" lon="-0.65127">
        <ele>158</ele>
        <time>2012-02-29T14:14:22Z</time>
      </trkpt>
      <trkpt lat="48.24843" lon="-0.65129">
        <ele>159</ele>
        <time>2012-02-29T14:14:26Z</time>
      </trkpt>
      <trkpt lat="48.24826" lon="-0.6513">
        <ele>157</ele>
        <time>2012-02-29T14:14:30Z</time>
      </trkpt>
      <trkpt lat="48.24809" lon="-0.6513">
        <ele>153</ele>
        <time>2012-02-29T14:14:34Z</time>
      </trkpt>
      <trkpt lat="48.24794" lon="-0.65132">
        <ele>151</ele>
        <time>2012-02-29T14:14:38Z</time>
      </trkpt>
      <trkpt lat="48.24786" lon="-0.65133">
        <ele>150</ele>
        <time>2012-02-29T14:14:40Z</time>
      </trkpt>
      <trkpt lat="48.2477" lon="-0.65134">
        <ele>148</ele>
        <time>2012-02-29T14:14:44Z</time>
      </trkpt>
      <trkpt lat="48.24752" lon="-0.65133">
        <ele>148</ele>
        <time>2012-02-29T14:14:48Z</time>
      </trkpt>
      <trkpt lat="48.24744" lon="-0.65133">
        <ele>147</ele>
        <time>2012-02-29T14:14:50Z</time>
      </trkpt>
      <trkpt lat="48.24726" lon="-0.65133">
        <ele>145</ele>
        <time>2012-02-29T14:14:54Z</time>
      </trkpt>
      <trkpt lat="48.24709" lon="-0.65133">
        <ele>144</ele>
        <time>2012-02-29T14:14:58Z</time>
      </trkpt>
      <trkpt lat="48.247" lon="-0.65132">
        <ele>143</ele>
        <time>2012-02-29T14:15:00Z</time>
      </trkpt>
      <trkpt lat="48.24683" lon="-0.65131">
        <ele>142</ele>
        <time>2012-02-29T14:15:04Z</time>
      </trkpt>
      <trkpt lat="48.24675" lon="-0.6513">
        <ele>143</ele>
        <time>2012-02-29T14:15:06Z</time>
      </trkpt>
      <trkpt lat="48.24659" lon="-0.65129">
        <ele>141</ele>
        <time>2012-02-29T14:15:10Z</time>
      </trkpt>
      <trkpt lat="48.24642" lon="-0.65128">
        <ele>142</ele>
        <time>2012-02-29T14:15:14Z</time>
      </trkpt>
      <trkpt lat="48.24626" lon="-0.65127">
        <ele>142</ele>
        <time>2012-02-29T14:15:18Z</time>
      </trkpt>
      <trkpt lat="48.24617" lon="-0.65126">
        <ele>143</ele>
        <time>2012-02-29T14:15:20Z</time>
      </trkpt>
      <trkpt lat="48.24602" lon="-0.65125">
        <ele>143</ele>
        <time>2012-02-29T14:15:24Z</time>
      </trkpt>
      <trkpt lat="48.24587" lon="-0.65124">
        <ele>141</ele>
        <time>2012-02-29T14:15:28Z</time>
      </trkpt>
      <trkpt lat="48.2457" lon="-0.65123">
        <ele>140</ele>
        <time>2012-02-29T14:15:32Z</time>
      </trkpt>
      <trkpt lat="48.24554" lon="-0.65124">
        <ele>139</ele>
        <time>2012-02-29T14:15:36Z</time>
      </trkpt>
      <trkpt lat="48.24539" lon="-0.65125">
        <ele>138</ele>
        <time>2012-02-29T14:15:40Z</time>
      </trkpt>
      <trkpt lat="48.24531" lon="-0.65126">
        <ele>138</ele>
        <time>2012-02-29T14:15:42Z</time>
      </trkpt>
      <trkpt lat="48.24515" lon="-0.65129">
        <ele>138</ele>
        <time>2012-02-29T14:15:46Z</time>
      </trkpt>
      <trkpt lat="48.24499" lon="-0.65134">
        <ele>139</ele>
        <time>2012-02-29T14:15:50Z</time>
      </trkpt>
      <trkpt lat="48.24491" lon="-0.65137">
        <ele>139</ele>
        <time>2012-02-29T14:15:52Z</time>
      </trkpt>
      <trkpt lat="48.24475" lon="-0.65144">
        <ele>137</ele>
        <time>2012-02-29T14:15:56Z</time>
      </trkpt>
      <trkpt lat="48.24458" lon="-0.65151">
        <ele>136</ele>
        <time>2012-02-29T14:16:00Z</time>
      </trkpt>
      <trkpt lat="48.24443" lon="-0.65158">
        <ele>135</ele>
        <time>2012-02-29T14:16:04Z</time>
      </trkpt>
      <trkpt lat="48.24428" lon="-0.65167">
        <ele>137</ele>
        <time>2012-02-29T14:16:08Z</time>
      </trkpt>
      <trkpt lat="48.24416" lon="-0.65181">
        <ele>138</ele>
        <time>2012-02-29T14:16:12Z</time>
      </trkpt>
      <trkpt lat="48.24412" lon="-0.6519">
        <ele>136</ele>
        <time>2012-02-29T14:16:14Z</time>
      </trkpt>
      <trkpt lat="48.24405" lon="-0.65212">
        <ele>136</ele>
        <time>2012-02-29T14:16:18Z</time>
      </trkpt>
      <trkpt lat="48.24401" lon="-0.65236">
        <ele>135</ele>
        <time>2012-02-29T14:16:22Z</time>
      </trkpt>
      <trkpt lat="48.24399" lon="-0.65249">
        <ele>134</ele>
        <time>2012-02-29T14:16:24Z</time>
      </trkpt>
      <trkpt lat="48.24397" lon="-0.65275">
        <ele>133</ele>
        <time>2012-02-29T14:16:28Z</time>
      </trkpt>
      <trkpt lat="48.24395" lon="-0.65288">
        <ele>133</ele>
        <time>2012-02-29T14:16:30Z</time>
      </trkpt>
      <trkpt lat="48.24391" lon="-0.65311">
        <ele>132</ele>
        <time>2012-02-29T14:16:34Z</time>
      </trkpt>
      <trkpt lat="48.24384" lon="-0.65334">
        <ele>129</ele>
        <time>2012-02-29T14:16:38Z</time>
      </trkpt>
      <trkpt lat="48.24378" lon="-0.6536">
        <ele>127</ele>
        <time>2012-02-29T14:16:42Z</time>
      </trkpt>
      <trkpt lat="48.24374" lon="-0.65385">
        <ele>127</ele>
        <time>2012-02-29T14:16:46Z</time>
      </trkpt>
      <trkpt lat="48.2437" lon="-0.65411">
        <ele>124</ele>
        <time>2012-02-29T14:16:50Z</time>
      </trkpt>
      <trkpt lat="48.2437" lon="-0.65438">
        <ele>125</ele>
        <time>2012-02-29T14:16:54Z</time>
      </trkpt>
      <trkpt lat="48.2437" lon="-0.65451">
        <ele>125</ele>
        <time>2012-02-29T14:16:56Z</time>
      </trkpt>
      <trkpt lat="48.24374" lon="-0.65477">
        <ele>126</ele>
        <time>2012-02-29T14:17:00Z</time>
      </trkpt>
      <trkpt lat="48.24379" lon="-0.65502">
        <ele>128</ele>
        <time>2012-02-29T14:17:04Z</time>
      </trkpt>
      <trkpt lat="48.24383" lon="-0.65526">
        <ele>128</ele>
        <time>2012-02-29T14:17:08Z</time>
      </trkpt>
      <trkpt lat="48.24387" lon="-0.6555">
        <ele>126</ele>
        <time>2012-02-29T14:17:12Z</time>
      </trkpt>
      <trkpt lat="48.2439" lon="-0.65561">
        <ele>125</ele>
        <time>2012-02-29T14:17:14Z</time>
      </trkpt>
      <trkpt lat="48.244" lon="-0.65582">
        <ele>126</ele>
        <time>2012-02-29T14:17:18Z</time>
      </trkpt>
      <trkpt lat="48.24419" lon="-0.65603">
        <ele>124</ele>
        <time>2012-02-29T14:17:24Z</time>
      </trkpt>
      <trkpt lat="48.24439" lon="-0.65619">
        <ele>126</ele>
        <time>2012-02-29T14:17:30Z</time>
      </trkpt>
      <trkpt lat="48.24449" lon="-0.65635">
        <ele>125</ele>
        <time>2012-02-29T14:17:34Z</time>
      </trkpt>
      <trkpt lat="48.24453" lon="-0.65644">
        <ele>125</ele>
        <time>2012-02-29T14:17:36Z</time>
      </trkpt>
      <trkpt lat="48.24468" lon="-0.65675">
        <ele>131</ele>
        <time>2012-02-29T14:17:42Z</time>
      </trkpt>
      <trkpt lat="48.24483" lon="-0.65719">
        <ele>129</ele>
        <time>2012-02-29T14:17:50Z</time>
      </trkpt>
      <trkpt lat="48.24488" lon="-0.65743">
        <ele>128</ele>
        <time>2012-02-29T14:17:54Z</time>
      </trkpt>
      <trkpt lat="48.2449" lon="-0.65767">
        <ele>129</ele>
        <time>2012-02-29T14:17:58Z</time>
      </trkpt>
      <trkpt lat="48.2449" lon="-0.65791">
        <ele>130</ele>
        <time>2012-02-29T14:18:02Z</time>
      </trkpt>
      <trkpt lat="48.24488" lon="-0.65803">
        <ele>129</ele>
        <time>2012-02-29T14:18:04Z</time>
      </trkpt>
      <trkpt lat="48.24482" lon="-0.65825">
        <ele>128</ele>
        <time>2012-02-29T14:18:08Z</time>
      </trkpt>
      <trkpt lat="48.24478" lon="-0.65836">
        <ele>127</ele>
        <time>2012-02-29T14:18:10Z</time>
      </trkpt>
      <trkpt lat="48.2447" lon="-0.65858">
        <ele>127</ele>
        <time>2012-02-29T14:18:14Z</time>
      </trkpt>
      <trkpt lat="48.24466" lon="-0.65868">
        <ele>126</ele>
        <time>2012-02-29T14:18:16Z</time>
      </trkpt>
      <trkpt lat="48.24458" lon="-0.6589">
        <ele>124</ele>
        <time>2012-02-29T14:18:20Z</time>
      </trkpt>
      <trkpt lat="48.2445" lon="-0.65912">
        <ele>123</ele>
        <time>2012-02-29T14:18:24Z</time>
      </trkpt>
      <trkpt lat="48.24443" lon="-0.65936">
        <ele>122</ele>
        <time>2012-02-29T14:18:28Z</time>
      </trkpt>
      <trkpt lat="48.24439" lon="-0.65947">
        <ele>123</ele>
        <time>2012-02-29T14:18:30Z</time>
      </trkpt>
      <trkpt lat="48.24431" lon="-0.6597">
        <ele>122</ele>
        <time>2012-02-29T14:18:34Z</time>
      </trkpt>
      <trkpt lat="48.24427" lon="-0.65982">
        <ele>122</ele>
        <time>2012-02-29T14:18:36Z</time>
      </trkpt>
      <trkpt lat="48.2442" lon="-0.66006">
        <ele>123</ele>
        <time>2012-02-29T14:18:40Z</time>
      </trkpt>
      <trkpt lat="48.24412" lon="-0.6603">
        <ele>123</ele>
        <time>2012-02-29T14:18:44Z</time>
      </trkpt>
      <trkpt lat="48.24404" lon="-0.66053">
        <ele>123</ele>
        <time>2012-02-29T14:18:48Z</time>
      </trkpt>
      <trkpt lat="48.24399" lon="-0.66065">
        <ele>123</ele>
        <time>2012-02-29T14:18:50Z</time>
      </trkpt>
      <trkpt lat="48.24388" lon="-0.66085">
        <ele>123</ele>
        <time>2012-02-29T14:18:54Z</time>
      </trkpt>
      <trkpt lat="48.24376" lon="-0.66105">
        <ele>123</ele>
        <time>2012-02-29T14:18:58Z</time>
      </trkpt>
      <trkpt lat="48.24365" lon="-0.66124">
        <ele>124</ele>
        <time>2012-02-29T14:19:02Z</time>
      </trkpt>
      <trkpt lat="48.24353" lon="-0.66143">
        <ele>124</ele>
        <time>2012-02-29T14:19:06Z</time>
      </trkpt>
      <trkpt lat="48.24342" lon="-0.66161">
        <ele>124</ele>
        <time>2012-02-29T14:19:10Z</time>
      </trkpt>
      <trkpt lat="48.24336" lon="-0.6617">
        <ele>124</ele>
        <time>2012-02-29T14:19:12Z</time>
      </trkpt>
      <trkpt lat="48.24325" lon="-0.66189">
        <ele>124</ele>
        <time>2012-02-29T14:19:16Z</time>
      </trkpt>
      <trkpt lat="48.24314" lon="-0.66208">
        <ele>124</ele>
        <time>2012-02-29T14:19:20Z</time>
      </trkpt>
      <trkpt lat="48.24302" lon="-0.66226">
        <ele>124</ele>
        <time>2012-02-29T14:19:24Z</time>
      </trkpt>
      <trkpt lat="48.24292" lon="-0.66243">
        <ele>125</ele>
        <time>2012-02-29T14:19:28Z</time>
      </trkpt>
      <trkpt lat="48.24282" lon="-0.66263">
        <ele>125</ele>
        <time>2012-02-29T14:19:32Z</time>
      </trkpt>
      <trkpt lat="48.24272" lon="-0.66285">
        <ele>126</ele>
        <time>2012-02-29T14:19:36Z</time>
      </trkpt>
      <trkpt lat="48.24263" lon="-0.66307">
        <ele>126</ele>
        <time>2012-02-29T14:19:40Z</time>
      </trkpt>
      <trkpt lat="48.24259" lon="-0.66319">
        <ele>126</ele>
        <time>2012-02-29T14:19:42Z</time>
      </trkpt>
      <trkpt lat="48.2425" lon="-0.66342">
        <ele>126</ele>
        <time>2012-02-29T14:19:46Z</time>
      </trkpt>
      <trkpt lat="48.24241" lon="-0.66365">
        <ele>127</ele>
        <time>2012-02-29T14:19:50Z</time>
      </trkpt>
      <trkpt lat="48.24233" lon="-0.66387">
        <ele>127</ele>
        <time>2012-02-29T14:19:54Z</time>
      </trkpt>
      <trkpt lat="48.24224" lon="-0.6641">
        <ele>127</ele>
        <time>2012-02-29T14:19:58Z</time>
      </trkpt>
      <trkpt lat="48.24216" lon="-0.66431">
        <ele>127</ele>
        <time>2012-02-29T14:20:02Z</time>
      </trkpt>
      <trkpt lat="48.24207" lon="-0.66452">
        <ele>128</ele>
        <time>2012-02-29T14:20:06Z</time>
      </trkpt>
      <trkpt lat="48.24197" lon="-0.66469">
        <ele>128</ele>
        <time>2012-02-29T14:20:10Z</time>
      </trkpt>
      <trkpt lat="48.24188" lon="-0.66485">
        <ele>127</ele>
        <time>2012-02-29T14:20:14Z</time>
      </trkpt>
      <trkpt lat="48.24171" lon="-0.66511">
        <ele>127</ele>
        <time>2012-02-29T14:20:20Z</time>
      </trkpt>
      <trkpt lat="48.24159" lon="-0.66529">
        <ele>127</ele>
        <time>2012-02-29T14:20:24Z</time>
      </trkpt>
      <trkpt lat="48.24153" lon="-0.66538">
        <ele>126</ele>
        <time>2012-02-29T14:20:26Z</time>
      </trkpt>
      <trkpt lat="48.24141" lon="-0.66555">
        <ele>126</ele>
        <time>2012-02-29T14:20:30Z</time>
      </trkpt>
      <trkpt lat="48.2413" lon="-0.66573">
        <ele>126</ele>
        <time>2012-02-29T14:20:34Z</time>
      </trkpt>
      <trkpt lat="48.24119" lon="-0.66591">
        <ele>126</ele>
        <time>2012-02-29T14:20:38Z</time>
      </trkpt>
      <trkpt lat="48.24111" lon="-0.66607">
        <ele>126</ele>
        <time>2012-02-29T14:20:42Z</time>
      </trkpt>
      <trkpt lat="48.24103" lon="-0.66623">
        <ele>126</ele>
        <time>2012-02-29T14:20:46Z</time>
      </trkpt>
      <trkpt lat="48.241" lon="-0.66631">
        <ele>126</ele>
        <time>2012-02-29T14:20:48Z</time>
      </trkpt>
      <trkpt lat="48.24092" lon="-0.66645">
        <ele>127</ele>
        <time>2012-02-29T14:20:52Z</time>
      </trkpt>
      <trkpt lat="48.24089" lon="-0.6665">
        <ele>127</ele>
        <time>2012-02-29T14:20:54Z</time>
      </trkpt>
      <trkpt lat="48.24083" lon="-0.66659">
        <ele>127</ele>
        <time>2012-02-29T14:20:58Z</time>
      </trkpt>
      <trkpt lat="48.2408" lon="-0.66664">
        <ele>127</ele>
        <time>2012-02-29T14:21:00Z</time>
      </trkpt>
      <trkpt lat="48.24073" lon="-0.66675">
        <ele>127</ele>
        <time>2012-02-29T14:21:04Z</time>
      </trkpt>
      <trkpt lat="48.2407" lon="-0.66681">
        <ele>127</ele>
        <time>2012-02-29T14:21:06Z</time>
      </trkpt>
      <trkpt lat="48.24067" lon="-0.66688">
        <ele>127</ele>
        <time>2012-02-29T14:21:08Z</time>
      </trkpt>
      <trkpt lat="48.2406" lon="-0.66697">
        <ele>128</ele>
        <time>2012-02-29T14:21:12Z</time>
      </trkpt>
      <trkpt lat="48.24056" lon="-0.66702">
        <ele>128</ele>
        <time>2012-02-29T14:21:14Z</time>
      </trkpt>
      <trkpt lat="48.24052" lon="-0.66707">
        <ele>128</ele>
        <time>2012-02-29T14:21:16Z</time>
      </trkpt>
      <trkpt lat="48.24044" lon="-0.6672">
        <ele>128</ele>
        <time>2012-02-29T14:21:20Z</time>
      </trkpt>
      <trkpt lat="48.2404" lon="-0.66728">
        <ele>129</ele>
        <time>2012-02-29T14:21:22Z</time>
      </trkpt>
      <trkpt lat="48.24036" lon="-0.66734">
        <ele>128</ele>
        <time>2012-02-29T14:21:24Z</time>
      </trkpt>
      <trkpt lat="48.24023" lon="-0.66751">
        <ele>129</ele>
        <time>2012-02-29T14:21:30Z</time>
      </trkpt>
      <trkpt lat="48.24016" lon="-0.66768">
        <ele>129</ele>
        <time>2012-02-29T14:21:34Z</time>
      </trkpt>
      <trkpt lat="48.24012" lon="-0.66775">
        <ele>130</ele>
        <time>2012-02-29T14:21:36Z</time>
      </trkpt>
      <trkpt lat="48.24003" lon="-0.6679">
        <ele>128</ele>
        <time>2012-02-29T14:21:40Z</time>
      </trkpt>
      <trkpt lat="48.23998" lon="-0.66799">
        <ele>128</ele>
        <time>2012-02-29T14:21:42Z</time>
      </trkpt>
      <trkpt lat="48.23987" lon="-0.66815">
        <ele>127</ele>
        <time>2012-02-29T14:21:46Z</time>
      </trkpt>
      <trkpt lat="48.23976" lon="-0.66832">
        <ele>126</ele>
        <time>2012-02-29T14:21:50Z</time>
      </trkpt>
      <trkpt lat="48.23964" lon="-0.66849">
        <ele>126</ele>
        <time>2012-02-29T14:21:54Z</time>
      </trkpt>
      <trkpt lat="48.23953" lon="-0.66867">
        <ele>126</ele>
        <time>2012-02-29T14:21:58Z</time>
      </trkpt>
      <trkpt lat="48.23942" lon="-0.66883">
        <ele>127</ele>
        <time>2012-02-29T14:22:02Z</time>
      </trkpt>
      <trkpt lat="48.2393" lon="-0.66899">
        <ele>127</ele>
        <time>2012-02-29T14:22:06Z</time>
      </trkpt>
      <trkpt lat="48.23918" lon="-0.66916">
        <ele>128</ele>
        <time>2012-02-29T14:22:10Z</time>
      </trkpt>
      <trkpt lat="48.23906" lon="-0.66933">
        <ele>128</ele>
        <time>2012-02-29T14:22:14Z</time>
      </trkpt>
      <trkpt lat="48.23894" lon="-0.6695">
        <ele>127</ele>
        <time>2012-02-29T14:22:18Z</time>
      </trkpt>
      <trkpt lat="48.23881" lon="-0.66967">
        <ele>127</ele>
        <time>2012-02-29T14:22:22Z</time>
      </trkpt>
      <trkpt lat="48.23869" lon="-0.66984">
        <ele>127</ele>
        <time>2012-02-29T14:22:26Z</time>
      </trkpt>
      <trkpt lat="48.23862" lon="-0.66993">
        <ele>127</ele>
        <time>2012-02-29T14:22:28Z</time>
      </trkpt>
      <trkpt lat="48.23849" lon="-0.6701">
        <ele>126</ele>
        <time>2012-02-29T14:22:32Z</time>
      </trkpt>
      <trkpt lat="48.23836" lon="-0.67026">
        <ele>126</ele>
        <time>2012-02-29T14:22:36Z</time>
      </trkpt>
      <trkpt lat="48.23823" lon="-0.67042">
        <ele>126</ele>
        <time>2012-02-29T14:22:40Z</time>
      </trkpt>
      <trkpt lat="48.2381" lon="-0.67057">
        <ele>126</ele>
        <time>2012-02-29T14:22:44Z</time>
      </trkpt>
      <trkpt lat="48.23804" lon="-0.67064">
        <ele>126</ele>
        <time>2012-02-29T14:22:46Z</time>
      </trkpt>
      <trkpt lat="48.23791" lon="-0.67078">
        <ele>126</ele>
        <time>2012-02-29T14:22:50Z</time>
      </trkpt>
      <trkpt lat="48.23777" lon="-0.67092">
        <ele>125</ele>
        <time>2012-02-29T14:22:54Z</time>
      </trkpt>
      <trkpt lat="48.23764" lon="-0.67107">
        <ele>125</ele>
        <time>2012-02-29T14:22:58Z</time>
      </trkpt>
      <trkpt lat="48.2375" lon="-0.67121">
        <ele>125</ele>
        <time>2012-02-29T14:23:02Z</time>
      </trkpt>
      <trkpt lat="48.23737" lon="-0.67136">
        <ele>125</ele>
        <time>2012-02-29T14:23:06Z</time>
      </trkpt>
      <trkpt lat="48.23723" lon="-0.6715">
        <ele>125</ele>
        <time>2012-02-29T14:23:10Z</time>
      </trkpt>
      <trkpt lat="48.23709" lon="-0.67165">
        <ele>125</ele>
        <time>2012-02-29T14:23:14Z</time>
      </trkpt>
      <trkpt lat="48.23695" lon="-0.67178">
        <ele>124</ele>
        <time>2012-02-29T14:23:18Z</time>
      </trkpt>
      <trkpt lat="48.23681" lon="-0.67193">
        <ele>124</ele>
        <time>2012-02-29T14:23:22Z</time>
      </trkpt>
      <trkpt lat="48.23667" lon="-0.67206">
        <ele>124</ele>
        <time>2012-02-29T14:23:26Z</time>
      </trkpt>
      <trkpt lat="48.23655" lon="-0.67217">
        <ele>125</ele>
        <time>2012-02-29T14:23:30Z</time>
      </trkpt>
      <trkpt lat="48.23648" lon="-0.67222">
        <ele>125</ele>
        <time>2012-02-29T14:23:32Z</time>
      </trkpt>
      <trkpt lat="48.23633" lon="-0.67232">
        <ele>126</ele>
        <time>2012-02-29T14:23:36Z</time>
      </trkpt>
      <trkpt lat="48.23619" lon="-0.6724">
        <ele>127</ele>
        <time>2012-02-29T14:23:40Z</time>
      </trkpt>
      <trkpt lat="48.23603" lon="-0.67245">
        <ele>128</ele>
        <time>2012-02-29T14:23:44Z</time>
      </trkpt>
      <trkpt lat="48.23581" lon="-0.67253">
        <ele>130</ele>
        <time>2012-02-29T14:23:50Z</time>
      </trkpt>
      <trkpt lat="48.23566" lon="-0.67259">
        <ele>132</ele>
        <time>2012-02-29T14:23:54Z</time>
      </trkpt>
      <trkpt lat="48.23548" lon="-0.67275">
        <ele>136</ele>
        <time>2012-02-29T14:24:00Z</time>
      </trkpt>
      <trkpt lat="48.23535" lon="-0.67284">
        <ele>136</ele>
        <time>2012-02-29T14:24:04Z</time>
      </trkpt>
      <trkpt lat="48.23529" lon="-0.6729">
        <ele>135</ele>
        <time>2012-02-29T14:24:06Z</time>
      </trkpt>
      <trkpt lat="48.23515" lon="-0.67302">
        <ele>134</ele>
        <time>2012-02-29T14:24:10Z</time>
      </trkpt>
      <trkpt lat="48.23501" lon="-0.67315">
        <ele>133</ele>
        <time>2012-02-29T14:24:14Z</time>
      </trkpt>
      <trkpt lat="48.23488" lon="-0.67328">
        <ele>132</ele>
        <time>2012-02-29T14:24:18Z</time>
      </trkpt>
      <trkpt lat="48.23481" lon="-0.67334">
        <ele>132</ele>
        <time>2012-02-29T14:24:20Z</time>
      </trkpt>
      <trkpt lat="48.23468" lon="-0.67347">
        <ele>132</ele>
        <time>2012-02-29T14:24:24Z</time>
      </trkpt>
      <trkpt lat="48.23455" lon="-0.67359">
        <ele>131</ele>
        <time>2012-02-29T14:24:28Z</time>
      </trkpt>
      <trkpt lat="48.23443" lon="-0.67372">
        <ele>132</ele>
        <time>2012-02-29T14:24:32Z</time>
      </trkpt>
      <trkpt lat="48.23438" lon="-0.67379">
        <ele>132</ele>
        <time>2012-02-29T14:24:34Z</time>
      </trkpt>
      <trkpt lat="48.23427" lon="-0.67392">
        <ele>131</ele>
        <time>2012-02-29T14:24:38Z</time>
      </trkpt>
      <trkpt lat="48.23422" lon="-0.67398">
        <ele>131</ele>
        <time>2012-02-29T14:24:40Z</time>
      </trkpt>
      <trkpt lat="48.23409" lon="-0.67411">
        <ele>131</ele>
        <time>2012-02-29T14:24:44Z</time>
      </trkpt>
      <trkpt lat="48.23403" lon="-0.67416">
        <ele>130</ele>
        <time>2012-02-29T14:24:46Z</time>
      </trkpt>
      <trkpt lat="48.2339" lon="-0.67426">
        <ele>128</ele>
        <time>2012-02-29T14:24:50Z</time>
      </trkpt>
      <trkpt lat="48.23376" lon="-0.67435">
        <ele>127</ele>
        <time>2012-02-29T14:24:54Z</time>
      </trkpt>
      <trkpt lat="48.23362" lon="-0.67446">
        <ele>127</ele>
        <time>2012-02-29T14:24:58Z</time>
      </trkpt>
      <trkpt lat="48.23355" lon="-0.67452">
        <ele>126</ele>
        <time>2012-02-29T14:25:00Z</time>
      </trkpt>
      <trkpt lat="48.23342" lon="-0.67466">
        <ele>126</ele>
        <time>2012-02-29T14:25:04Z</time>
      </trkpt>
      <trkpt lat="48.23337" lon="-0.67474">
        <ele>125</ele>
        <time>2012-02-29T14:25:06Z</time>
      </trkpt>
      <trkpt lat="48.23326" lon="-0.67489">
        <ele>125</ele>
        <time>2012-02-29T14:25:10Z</time>
      </trkpt>
      <trkpt lat="48.23315" lon="-0.67506">
        <ele>125</ele>
        <time>2012-02-29T14:25:14Z</time>
      </trkpt>
      <trkpt lat="48.23306" lon="-0.67523">
        <ele>125</ele>
        <time>2012-02-29T14:25:18Z</time>
      </trkpt>
      <trkpt lat="48.23302" lon="-0.67532">
        <ele>125</ele>
        <time>2012-02-29T14:25:20Z</time>
      </trkpt>
      <trkpt lat="48.23296" lon="-0.67553">
        <ele>126</ele>
        <time>2012-02-29T14:25:24Z</time>
      </trkpt>
      <trkpt lat="48.23293" lon="-0.67563">
        <ele>127</ele>
        <time>2012-02-29T14:25:26Z</time>
      </trkpt>
      <trkpt lat="48.23287" lon="-0.67584">
        <ele>129</ele>
        <time>2012-02-29T14:25:30Z</time>
      </trkpt>
      <trkpt lat="48.23285" lon="-0.67606">
        <ele>131</ele>
        <time>2012-02-29T14:25:34Z</time>
      </trkpt>
      <trkpt lat="48.23281" lon="-0.67629">
        <ele>131</ele>
        <time>2012-02-29T14:25:38Z</time>
      </trkpt>
      <trkpt lat="48.23278" lon="-0.67651">
        <ele>130</ele>
        <time>2012-02-29T14:25:42Z</time>
      </trkpt>
      <trkpt lat="48.23275" lon="-0.67672">
        <ele>125</ele>
        <time>2012-02-29T14:25:46Z</time>
      </trkpt>
      <trkpt lat="48.23273" lon="-0.67696">
        <ele>124</ele>
        <time>2012-02-29T14:25:50Z</time>
      </trkpt>
      <trkpt lat="48.23272" lon="-0.67708">
        <ele>125</ele>
        <time>2012-02-29T14:25:52Z</time>
      </trkpt>
      <trkpt lat="48.23272" lon="-0.67727">
        <ele>125</ele>
        <time>2012-02-29T14:25:56Z</time>
      </trkpt>
      <trkpt lat="48.23272" lon="-0.67757">
        <ele>121</ele>
        <time>2012-02-29T14:26:02Z</time>
      </trkpt>
      <trkpt lat="48.23271" lon="-0.6778">
        <ele>122</ele>
        <time>2012-02-29T14:26:06Z</time>
      </trkpt>
      <trkpt lat="48.23271" lon="-0.67791">
        <ele>123</ele>
        <time>2012-02-29T14:26:08Z</time>
      </trkpt>
      <trkpt lat="48.23274" lon="-0.67809">
        <ele>123</ele>
        <time>2012-02-29T14:26:12Z</time>
      </trkpt>
      <trkpt lat="48.23273" lon="-0.67845">
        <ele>127</ele>
        <time>2012-02-29T14:26:18Z</time>
      </trkpt>
      <trkpt lat="48.23272" lon="-0.67879">
        <ele>127</ele>
        <time>2012-02-29T14:26:24Z</time>
      </trkpt>
      <trkpt lat="48.23271" lon="-0.67913">
        <ele>137</ele>
        <time>2012-02-29T14:26:30Z</time>
      </trkpt>
      <trkpt lat="48.23269" lon="-0.67944">
        <ele>141</ele>
        <time>2012-02-29T14:26:36Z</time>
      </trkpt>
      <trkpt lat="48.23268" lon="-0.67967">
        <ele>147</ele>
        <time>2012-02-29T14:26:40Z</time>
      </trkpt>
      <trkpt lat="48.23268" lon="-0.67979">
        <ele>150</ele>
        <time>2012-02-29T14:26:42Z</time>
      </trkpt>
      <trkpt lat="48.23267" lon="-0.68001">
        <ele>153</ele>
        <time>2012-02-29T14:26:46Z</time>
      </trkpt>
      <trkpt lat="48.23266" lon="-0.68013">
        <ele>154</ele>
        <time>2012-02-29T14:26:48Z</time>
      </trkpt>
      <trkpt lat="48.23264" lon="-0.68038">
        <ele>149</ele>
        <time>2012-02-29T14:26:52Z</time>
      </trkpt>
      <trkpt lat="48.23263" lon="-0.68064">
        <ele>144</ele>
        <time>2012-02-29T14:26:56Z</time>
      </trkpt>
      <trkpt lat="48.23262" lon="-0.68077">
        <ele>142</ele>
        <time>2012-02-29T14:26:58Z</time>
      </trkpt>
      <trkpt lat="48.23262" lon="-0.68103">
        <ele>137</ele>
        <time>2012-02-29T14:27:02Z</time>
      </trkpt>
      <trkpt lat="48.23264" lon="-0.68128">
        <ele>136</ele>
        <time>2012-02-29T14:27:06Z</time>
      </trkpt>
      <trkpt lat="48.23267" lon="-0.68153">
        <ele>136</ele>
        <time>2012-02-29T14:27:10Z</time>
      </trkpt>
      <trkpt lat="48.2327" lon="-0.68177">
        <ele>136</ele>
        <time>2012-02-29T14:27:14Z</time>
      </trkpt>
      <trkpt lat="48.23275" lon="-0.68201">
        <ele>137</ele>
        <time>2012-02-29T14:27:18Z</time>
      </trkpt>
      <trkpt lat="48.23282" lon="-0.68235">
        <ele>136</ele>
        <time>2012-02-29T14:27:24Z</time>
      </trkpt>
      <trkpt lat="48.23286" lon="-0.68258">
        <ele>136</ele>
        <time>2012-02-29T14:27:28Z</time>
      </trkpt>
      <trkpt lat="48.23289" lon="-0.68283">
        <ele>135</ele>
        <time>2012-02-29T14:27:32Z</time>
      </trkpt>
      <trkpt lat="48.23291" lon="-0.68308">
        <ele>134</ele>
        <time>2012-02-29T14:27:36Z</time>
      </trkpt>
      <trkpt lat="48.23291" lon="-0.6832">
        <ele>134</ele>
        <time>2012-02-29T14:27:38Z</time>
      </trkpt>
      <trkpt lat="48.23292" lon="-0.68343">
        <ele>134</ele>
        <time>2012-02-29T14:27:42Z</time>
      </trkpt>
      <trkpt lat="48.23292" lon="-0.68364">
        <ele>132</ele>
        <time>2012-02-29T14:27:46Z</time>
      </trkpt>
      <trkpt lat="48.23289" lon="-0.68399">
        <ele>131</ele>
        <time>2012-02-29T14:27:52Z</time>
      </trkpt>
      <trkpt lat="48.23286" lon="-0.68424">
        <ele>130</ele>
        <time>2012-02-29T14:27:56Z</time>
      </trkpt>
      <trkpt lat="48.23284" lon="-0.68449">
        <ele>130</ele>
        <time>2012-02-29T14:28:00Z</time>
      </trkpt>
      <trkpt lat="48.23284" lon="-0.6846">
        <ele>129</ele>
        <time>2012-02-29T14:28:02Z</time>
      </trkpt>
      <trkpt lat="48.23283" lon="-0.68483">
        <ele>128</ele>
        <time>2012-02-29T14:28:06Z</time>
      </trkpt>
      <trkpt lat="48.23282" lon="-0.68508">
        <ele>129</ele>
        <time>2012-02-29T14:28:10Z</time>
      </trkpt>
      <trkpt lat="48.2328" lon="-0.68532">
        <ele>129</ele>
        <time>2012-02-29T14:28:14Z</time>
      </trkpt>
      <trkpt lat="48.23277" lon="-0.68557">
        <ele>129</ele>
        <time>2012-02-29T14:28:18Z</time>
      </trkpt>
      <trkpt lat="48.23275" lon="-0.6858">
        <ele>131</ele>
        <time>2012-02-29T14:28:22Z</time>
      </trkpt>
      <trkpt lat="48.23273" lon="-0.68603">
        <ele>132</ele>
        <time>2012-02-29T14:28:26Z</time>
      </trkpt>
      <trkpt lat="48.2327" lon="-0.68625">
        <ele>132</ele>
        <time>2012-02-29T14:28:30Z</time>
      </trkpt>
      <trkpt lat="48.23267" lon="-0.68648">
        <ele>133</ele>
        <time>2012-02-29T14:28:34Z</time>
      </trkpt>
      <trkpt lat="48.23265" lon="-0.68659">
        <ele>132</ele>
        <time>2012-02-29T14:28:36Z</time>
      </trkpt>
      <trkpt lat="48.23261" lon="-0.6868">
        <ele>131</ele>
        <time>2012-02-29T14:28:37Z</time>
      </trkpt>
      <trkpt lat="48.23259" lon="-0.68692">
        <ele>130</ele>
        <time>2012-02-29T14:28:39Z</time>
      </trkpt>
      <trkpt lat="48.23257" lon="-0.68703">
        <ele>130</ele>
        <time>2012-02-29T14:28:41Z</time>
      </trkpt>
      <trkpt lat="48.23253" lon="-0.68725">
        <ele>130</ele>
        <time>2012-02-29T14:28:45Z</time>
      </trkpt>
      <trkpt lat="48.23248" lon="-0.68746">
        <ele>130</ele>
        <time>2012-02-29T14:28:49Z</time>
      </trkpt>
      <trkpt lat="48.23244" lon="-0.68767">
        <ele>129</ele>
        <time>2012-02-29T14:28:53Z</time>
      </trkpt>
      <trkpt lat="48.2324" lon="-0.68788">
        <ele>130</ele>
        <time>2012-02-29T14:28:57Z</time>
      </trkpt>
      <trkpt lat="48.23236" lon="-0.68809">
        <ele>131</ele>
        <time>2012-02-29T14:29:01Z</time>
      </trkpt>
      <trkpt lat="48.23234" lon="-0.68819">
        <ele>131</ele>
        <time>2012-02-29T14:29:03Z</time>
      </trkpt>
      <trkpt lat="48.23231" lon="-0.68839">
        <ele>129</ele>
        <time>2012-02-29T14:29:07Z</time>
      </trkpt>
      <trkpt lat="48.23227" lon="-0.68861">
        <ele>130</ele>
        <time>2012-02-29T14:29:11Z</time>
      </trkpt>
      <trkpt lat="48.23225" lon="-0.68871">
        <ele>130</ele>
        <time>2012-02-29T14:29:13Z</time>
      </trkpt>
      <trkpt lat="48.23218" lon="-0.68902">
        <ele>128</ele>
        <time>2012-02-29T14:29:19Z</time>
      </trkpt>
      <trkpt lat="48.23214" lon="-0.68924">
        <ele>127</ele>
        <time>2012-02-29T14:29:23Z</time>
      </trkpt>
      <trkpt lat="48.23209" lon="-0.68947">
        <ele>128</ele>
        <time>2012-02-29T14:29:27Z</time>
      </trkpt>
      <trkpt lat="48.23204" lon="-0.68968">
        <ele>129</ele>
        <time>2012-02-29T14:29:31Z</time>
      </trkpt>
      <trkpt lat="48.23199" lon="-0.68989">
        <ele>129</ele>
        <time>2012-02-29T14:29:35Z</time>
      </trkpt>
      <trkpt lat="48.23194" lon="-0.69012">
        <ele>128</ele>
        <time>2012-02-29T14:29:39Z</time>
      </trkpt>
      <trkpt lat="48.23189" lon="-0.69036">
        <ele>128</ele>
        <time>2012-02-29T14:29:43Z</time>
      </trkpt>
      <trkpt lat="48.23186" lon="-0.69047">
        <ele>128</ele>
        <time>2012-02-29T14:29:45Z</time>
      </trkpt>
      <trkpt lat="48.2318" lon="-0.6907">
        <ele>128</ele>
        <time>2012-02-29T14:29:49Z</time>
      </trkpt>
      <trkpt lat="48.23178" lon="-0.69082">
        <ele>128</ele>
        <time>2012-02-29T14:29:51Z</time>
      </trkpt>
      <trkpt lat="48.23172" lon="-0.69103">
        <ele>128</ele>
        <time>2012-02-29T14:29:58Z</time>
      </trkpt>
      <trkpt lat="48.23163" lon="-0.69134">
        <ele>129</ele>
        <time>2012-02-29T14:30:04Z</time>
      </trkpt>
      <trkpt lat="48.23159" lon="-0.69146">
        <ele>128</ele>
        <time>2012-02-29T14:30:06Z</time>
      </trkpt>
      <trkpt lat="48.23153" lon="-0.69169">
        <ele>128</ele>
        <time>2012-02-29T14:30:10Z</time>
      </trkpt>
      <trkpt lat="48.2315" lon="-0.69181">
        <ele>129</ele>
        <time>2012-02-29T14:30:12Z</time>
      </trkpt>
      <trkpt lat="48.23144" lon="-0.69203">
        <ele>129</ele>
        <time>2012-02-29T14:30:16Z</time>
      </trkpt>
      <trkpt lat="48.23137" lon="-0.69225">
        <ele>129</ele>
        <time>2012-02-29T14:30:20Z</time>
      </trkpt>
      <trkpt lat="48.2313" lon="-0.69246">
        <ele>130</ele>
        <time>2012-02-29T14:30:24Z</time>
      </trkpt>
      <trkpt lat="48.23122" lon="-0.69265">
        <ele>130</ele>
        <time>2012-02-29T14:30:28Z</time>
      </trkpt>
      <trkpt lat="48.23113" lon="-0.69285">
        <ele>130</ele>
        <time>2012-02-29T14:30:32Z</time>
      </trkpt>
      <trkpt lat="48.23106" lon="-0.69305">
        <ele>130</ele>
        <time>2012-02-29T14:30:36Z</time>
      </trkpt>
      <trkpt lat="48.23102" lon="-0.69315">
        <ele>130</ele>
        <time>2012-02-29T14:30:38Z</time>
      </trkpt>
      <trkpt lat="48.23095" lon="-0.69337">
        <ele>129</ele>
        <time>2012-02-29T14:30:42Z</time>
      </trkpt>
      <trkpt lat="48.23089" lon="-0.69357">
        <ele>129</ele>
        <time>2012-02-29T14:30:46Z</time>
      </trkpt>
      <trkpt lat="48.23083" lon="-0.69387">
        <ele>129</ele>
        <time>2012-02-29T14:30:52Z</time>
      </trkpt>
      <trkpt lat="48.23079" lon="-0.6941">
        <ele>129</ele>
        <time>2012-02-29T14:30:56Z</time>
      </trkpt>
      <trkpt lat="48.23076" lon="-0.69421">
        <ele>128</ele>
        <time>2012-02-29T14:30:58Z</time>
      </trkpt>
      <trkpt lat="48.23068" lon="-0.69442">
        <ele>129</ele>
        <time>2012-02-29T14:31:02Z</time>
      </trkpt>
      <trkpt lat="48.23061" lon="-0.69459">
        <ele>128</ele>
        <time>2012-02-29T14:31:06Z</time>
      </trkpt>
      <trkpt lat="48.23051" lon="-0.69474">
        <ele>128</ele>
        <time>2012-02-29T14:31:10Z</time>
      </trkpt>
      <trkpt lat="48.23045" lon="-0.69482">
        <ele>128</ele>
        <time>2012-02-29T14:31:12Z</time>
      </trkpt>
      <trkpt lat="48.23033" lon="-0.69496">
        <ele>129</ele>
        <time>2012-02-29T14:31:16Z</time>
      </trkpt>
      <trkpt lat="48.23019" lon="-0.69508">
        <ele>128</ele>
        <time>2012-02-29T14:31:20Z</time>
      </trkpt>
      <trkpt lat="48.23003" lon="-0.69516">
        <ele>129</ele>
        <time>2012-02-29T14:31:24Z</time>
      </trkpt>
      <trkpt lat="48.22988" lon="-0.69522">
        <ele>129</ele>
        <time>2012-02-29T14:31:28Z</time>
      </trkpt>
      <trkpt lat="48.22973" lon="-0.69523">
        <ele>130</ele>
        <time>2012-02-29T14:31:32Z</time>
      </trkpt>
      <trkpt lat="48.2296" lon="-0.69525">
        <ele>129</ele>
        <time>2012-02-29T14:31:36Z</time>
      </trkpt>
      <trkpt lat="48.22953" lon="-0.69524">
        <ele>128</ele>
        <time>2012-02-29T14:31:38Z</time>
      </trkpt>
      <trkpt lat="48.22941" lon="-0.69525">
        <ele>128</ele>
        <time>2012-02-29T14:31:42Z</time>
      </trkpt>
      <trkpt lat="48.22935" lon="-0.69525">
        <ele>128</ele>
        <time>2012-02-29T14:31:44Z</time>
      </trkpt>
      <trkpt lat="48.22921" lon="-0.69526">
        <ele>129</ele>
        <time>2012-02-29T14:31:48Z</time>
      </trkpt>
      <trkpt lat="48.22914" lon="-0.69528">
        <ele>129</ele>
        <time>2012-02-29T14:31:50Z</time>
      </trkpt>
      <trkpt lat="48.22901" lon="-0.69537">
        <ele>130</ele>
        <time>2012-02-29T14:31:54Z</time>
      </trkpt>
      <trkpt lat="48.22887" lon="-0.69559">
        <ele>130</ele>
        <time>2012-02-29T14:32:00Z</time>
      </trkpt>
      <trkpt lat="48.22878" lon="-0.69577">
        <ele>131</ele>
        <time>2012-02-29T14:32:04Z</time>
      </trkpt>
      <trkpt lat="48.22874" lon="-0.69586">
        <ele>130</ele>
        <time>2012-02-29T14:32:06Z</time>
      </trkpt>
      <trkpt lat="48.22864" lon="-0.69603">
        <ele>130</ele>
        <time>2012-02-29T14:32:10Z</time>
      </trkpt>
      <trkpt lat="48.22858" lon="-0.69611">
        <ele>130</ele>
        <time>2012-02-29T14:32:12Z</time>
      </trkpt>
      <trkpt lat="48.22848" lon="-0.69625">
        <ele>130</ele>
        <time>2012-02-29T14:32:16Z</time>
      </trkpt>
      <trkpt lat="48.22836" lon="-0.69641">
        <ele>130</ele>
        <time>2012-02-29T14:32:20Z</time>
      </trkpt>
      <trkpt lat="48.2283" lon="-0.69648">
        <ele>130</ele>
        <time>2012-02-29T14:32:22Z</time>
      </trkpt>
      <trkpt lat="48.22818" lon="-0.69662">
        <ele>130</ele>
        <time>2012-02-29T14:32:26Z</time>
      </trkpt>
      <trkpt lat="48.22807" lon="-0.69676">
        <ele>131</ele>
        <time>2012-02-29T14:32:30Z</time>
      </trkpt>
      <trkpt lat="48.22797" lon="-0.69691">
        <ele>130</ele>
        <time>2012-02-29T14:32:34Z</time>
      </trkpt>
      <trkpt lat="48.22792" lon="-0.69699">
        <ele>130</ele>
        <time>2012-02-29T14:32:36Z</time>
      </trkpt>
      <trkpt lat="48.22781" lon="-0.69717">
        <ele>129</ele>
        <time>2012-02-29T14:32:39Z</time>
      </trkpt>
      <trkpt lat="48.22771" lon="-0.69735">
        <ele>130</ele>
        <time>2012-02-29T14:32:44Z</time>
      </trkpt>
      <trkpt lat="48.2276" lon="-0.69754">
        <ele>129</ele>
        <time>2012-02-29T14:32:48Z</time>
      </trkpt>
      <trkpt lat="48.22751" lon="-0.69773">
        <ele>131</ele>
        <time>2012-02-29T14:32:52Z</time>
      </trkpt>
      <trkpt lat="48.22741" lon="-0.69793">
        <ele>132</ele>
        <time>2012-02-29T14:32:56Z</time>
      </trkpt>
      <trkpt lat="48.2273" lon="-0.69811">
        <ele>132</ele>
        <time>2012-02-29T14:33:00Z</time>
      </trkpt>
      <trkpt lat="48.2272" lon="-0.69831">
        <ele>132</ele>
        <time>2012-02-29T14:33:04Z</time>
      </trkpt>
      <trkpt lat="48.2271" lon="-0.6985">
        <ele>131</ele>
        <time>2012-02-29T14:33:08Z</time>
      </trkpt>
      <trkpt lat="48.22699" lon="-0.69869">
        <ele>130</ele>
        <time>2012-02-29T14:33:12Z</time>
      </trkpt>
      <trkpt lat="48.22687" lon="-0.69888">
        <ele>129</ele>
        <time>2012-02-29T14:33:16Z</time>
      </trkpt>
      <trkpt lat="48.22675" lon="-0.69904">
        <ele>128</ele>
        <time>2012-02-29T14:33:20Z</time>
      </trkpt>
      <trkpt lat="48.22662" lon="-0.69918">
        <ele>126</ele>
        <time>2012-02-29T14:33:24Z</time>
      </trkpt>
      <trkpt lat="48.22648" lon="-0.6993">
        <ele>126</ele>
        <time>2012-02-29T14:33:28Z</time>
      </trkpt>
      <trkpt lat="48.22641" lon="-0.69935">
        <ele>126</ele>
        <time>2012-02-29T14:33:30Z</time>
      </trkpt>
      <trkpt lat="48.22626" lon="-0.69944">
        <ele>126</ele>
        <time>2012-02-29T14:33:33Z</time>
      </trkpt>
      <trkpt lat="48.22618" lon="-0.69947">
        <ele>126</ele>
        <time>2012-02-29T14:33:35Z</time>
      </trkpt>
      <trkpt lat="48.22601" lon="-0.69951">
        <ele>128</ele>
        <time>2012-02-29T14:33:39Z</time>
      </trkpt>
      <trkpt lat="48.22586" lon="-0.69951">
        <ele>127</ele>
        <time>2012-02-29T14:33:44Z</time>
      </trkpt>
      <trkpt lat="48.22568" lon="-0.69944">
        <ele>126</ele>
        <time>2012-02-29T14:33:48Z</time>
      </trkpt>
      <trkpt lat="48.2256" lon="-0.6994">
        <ele>127</ele>
        <time>2012-02-29T14:33:50Z</time>
      </trkpt>
      <trkpt lat="48.22544" lon="-0.6993">
        <ele>127</ele>
        <time>2012-02-29T14:33:54Z</time>
      </trkpt>
      <trkpt lat="48.22536" lon="-0.69925">
        <ele>127</ele>
        <time>2012-02-29T14:33:56Z</time>
      </trkpt>
      <trkpt lat="48.22521" lon="-0.69914">
        <ele>127</ele>
        <time>2012-02-29T14:34:00Z</time>
      </trkpt>
      <trkpt lat="48.22506" lon="-0.69903">
        <ele>127</ele>
        <time>2012-02-29T14:34:04Z</time>
      </trkpt>
      <trkpt lat="48.22491" lon="-0.69892">
        <ele>127</ele>
        <time>2012-02-29T14:34:08Z</time>
      </trkpt>
      <trkpt lat="48.22476" lon="-0.69881">
        <ele>127</ele>
        <time>2012-02-29T14:34:12Z</time>
      </trkpt>
      <trkpt lat="48.22469" lon="-0.69876">
        <ele>127</ele>
        <time>2012-02-29T14:34:13Z</time>
      </trkpt>
      <trkpt lat="48.22455" lon="-0.69867">
        <ele>126</ele>
        <time>2012-02-29T14:34:17Z</time>
      </trkpt>
      <trkpt lat="48.22441" lon="-0.69858">
        <ele>126</ele>
        <time>2012-02-29T14:34:22Z</time>
      </trkpt>
      <trkpt lat="48.22426" lon="-0.69849">
        <ele>126</ele>
        <time>2012-02-29T14:34:25Z</time>
      </trkpt>
      <trkpt lat="48.22419" lon="-0.69844">
        <ele>126</ele>
        <time>2012-02-29T14:34:27Z</time>
      </trkpt>
      <trkpt lat="48.22404" lon="-0.69836">
        <ele>126</ele>
        <time>2012-02-29T14:34:32Z</time>
      </trkpt>
      <trkpt lat="48.2239" lon="-0.69828">
        <ele>126</ele>
        <time>2012-02-29T14:34:36Z</time>
      </trkpt>
      <trkpt lat="48.22385" lon="-0.69824">
        <ele>126</ele>
        <time>2012-02-29T14:34:37Z</time>
      </trkpt>
      <trkpt lat="48.22375" lon="-0.69821">
        <ele>127</ele>
        <time>2012-02-29T14:34:41Z</time>
      </trkpt>
      <trkpt lat="48.22369" lon="-0.69819">
        <ele>127</ele>
        <time>2012-02-29T14:34:44Z</time>
      </trkpt>
      <trkpt lat="48.22358" lon="-0.69818">
        <ele>126</ele>
        <time>2012-02-29T14:34:47Z</time>
      </trkpt>
      <trkpt lat="48.22353" lon="-0.69817">
        <ele>126</ele>
        <time>2012-02-29T14:34:50Z</time>
      </trkpt>
      <trkpt lat="48.22345" lon="-0.69813">
        <ele>126</ele>
        <time>2012-02-29T14:34:53Z</time>
      </trkpt>
      <trkpt lat="48.2234" lon="-0.6981">
        <ele>126</ele>
        <time>2012-02-29T14:34:55Z</time>
      </trkpt>
      <trkpt lat="48.22336" lon="-0.69807">
        <ele>126</ele>
        <time>2012-02-29T14:34:58Z</time>
      </trkpt>
      <trkpt lat="48.22326" lon="-0.69802">
        <ele>126</ele>
        <time>2012-02-29T14:35:01Z</time>
      </trkpt>
      <trkpt lat="48.2232" lon="-0.69798">
        <ele>125</ele>
        <time>2012-02-29T14:35:04Z</time>
      </trkpt>
      <trkpt lat="48.22315" lon="-0.69793">
        <ele>126</ele>
        <time>2012-02-29T14:35:06Z</time>
      </trkpt>
      <trkpt lat="48.22302" lon="-0.69781">
        <ele>126</ele>
        <time>2012-02-29T14:35:12Z</time>
      </trkpt>
      <trkpt lat="48.22297" lon="-0.69778">
        <ele>125</ele>
        <time>2012-02-29T14:35:13Z</time>
      </trkpt>
      <trkpt lat="48.22285" lon="-0.69773">
        <ele>127</ele>
        <time>2012-02-29T14:35:17Z</time>
      </trkpt>
      <trkpt lat="48.22278" lon="-0.6977">
        <ele>129</ele>
        <time>2012-02-29T14:35:20Z</time>
      </trkpt>
      <trkpt lat="48.22265" lon="-0.69762">
        <ele>127</ele>
        <time>2012-02-29T14:35:24Z</time>
      </trkpt>
      <trkpt lat="48.22247" lon="-0.69752">
        <ele>125</ele>
        <time>2012-02-29T14:35:30Z</time>
      </trkpt>
      <trkpt lat="48.22233" lon="-0.69743">
        <ele>124</ele>
        <time>2012-02-29T14:35:33Z</time>
      </trkpt>
      <trkpt lat="48.22226" lon="-0.6974">
        <ele>126</ele>
        <time>2012-02-29T14:35:35Z</time>
      </trkpt>
      <trkpt lat="48.22213" lon="-0.69735">
        <ele>126</ele>
        <time>2012-02-29T14:35:39Z</time>
      </trkpt>
      <trkpt lat="48.22201" lon="-0.69729">
        <ele>126</ele>
        <time>2012-02-29T14:35:44Z</time>
      </trkpt>
      <trkpt lat="48.22196" lon="-0.69726">
        <ele>126</ele>
        <time>2012-02-29T14:35:45Z</time>
      </trkpt>
      <trkpt lat="48.22185" lon="-0.69726">
        <ele>129</ele>
        <time>2012-02-29T14:35:49Z</time>
      </trkpt>
      <trkpt lat="48.22179" lon="-0.69724">
        <ele>128</ele>
        <time>2012-02-29T14:35:52Z</time>
      </trkpt>
      <trkpt lat="48.22166" lon="-0.69721">
        <ele>129</ele>
        <time>2012-02-29T14:35:56Z</time>
      </trkpt>
      <trkpt lat="48.22159" lon="-0.69719">
        <ele>130</ele>
        <time>2012-02-29T14:35:58Z</time>
      </trkpt>
      <trkpt lat="48.22145" lon="-0.69716">
        <ele>130</ele>
        <time>2012-02-29T14:36:02Z</time>
      </trkpt>
      <trkpt lat="48.22138" lon="-0.69715">
        <ele>130</ele>
        <time>2012-02-29T14:36:04Z</time>
      </trkpt>
      <trkpt lat="48.22123" lon="-0.6971">
        <ele>129</ele>
        <time>2012-02-29T14:36:07Z</time>
      </trkpt>
      <trkpt lat="48.22099" lon="-0.697">
        <ele>127</ele>
        <time>2012-02-29T14:36:14Z</time>
      </trkpt>
      <trkpt lat="48.22084" lon="-0.69693">
        <ele>126</ele>
        <time>2012-02-29T14:36:18Z</time>
      </trkpt>
      <trkpt lat="48.22069" lon="-0.69688">
        <ele>124</ele>
        <time>2012-02-29T14:36:22Z</time>
      </trkpt>
      <trkpt lat="48.22056" lon="-0.69683">
        <ele>120</ele>
        <time>2012-02-29T14:36:25Z</time>
      </trkpt>
      <trkpt lat="48.22048" lon="-0.69681">
        <ele>120</ele>
        <time>2012-02-29T14:36:27Z</time>
      </trkpt>
      <trkpt lat="48.22035" lon="-0.6968">
        <ele>115</ele>
        <time>2012-02-29T14:36:31Z</time>
      </trkpt>
      <trkpt lat="48.22028" lon="-0.6968">
        <ele>113</ele>
        <time>2012-02-29T14:36:33Z</time>
      </trkpt>
      <trkpt lat="48.22013" lon="-0.69681">
        <ele>111</ele>
        <time>2012-02-29T14:36:37Z</time>
      </trkpt>
      <trkpt lat="48.22005" lon="-0.69683">
        <ele>111</ele>
        <time>2012-02-29T14:36:39Z</time>
      </trkpt>
      <trkpt lat="48.21989" lon="-0.69686">
        <ele>112</ele>
        <time>2012-02-29T14:36:43Z</time>
      </trkpt>
      <trkpt lat="48.21981" lon="-0.69686">
        <ele>110</ele>
        <time>2012-02-29T14:36:45Z</time>
      </trkpt>
      <trkpt lat="48.21964" lon="-0.69685">
        <ele>112</ele>
        <time>2012-02-29T14:36:49Z</time>
      </trkpt>
      <trkpt lat="48.21947" lon="-0.69685">
        <ele>114</ele>
        <time>2012-02-29T14:36:53Z</time>
      </trkpt>
      <trkpt lat="48.21931" lon="-0.69686">
        <ele>115</ele>
        <time>2012-02-29T14:36:57Z</time>
      </trkpt>
      <trkpt lat="48.21915" lon="-0.69686">
        <ele>119</ele>
        <time>2012-02-29T14:37:01Z</time>
      </trkpt>
      <trkpt lat="48.21891" lon="-0.69684">
        <ele>119</ele>
        <time>2012-02-29T14:37:07Z</time>
      </trkpt>
      <trkpt lat="48.21876" lon="-0.69682">
        <ele>118</ele>
        <time>2012-02-29T14:37:11Z</time>
      </trkpt>
      <trkpt lat="48.21861" lon="-0.69684">
        <ele>120</ele>
        <time>2012-02-29T14:37:15Z</time>
      </trkpt>
      <trkpt lat="48.21844" lon="-0.69685">
        <ele>117</ele>
        <time>2012-02-29T14:37:19Z</time>
      </trkpt>
      <trkpt lat="48.21827" lon="-0.69686">
        <ele>116</ele>
        <time>2012-02-29T14:37:23Z</time>
      </trkpt>
      <trkpt lat="48.21801" lon="-0.69691">
        <ele>118</ele>
        <time>2012-02-29T14:37:29Z</time>
      </trkpt>
      <trkpt lat="48.21776" lon="-0.69698">
        <ele>121</ele>
        <time>2012-02-29T14:37:35Z</time>
      </trkpt>
      <trkpt lat="48.2176" lon="-0.69701">
        <ele>119</ele>
        <time>2012-02-29T14:37:39Z</time>
      </trkpt>
      <trkpt lat="48.21743" lon="-0.69705">
        <ele>122</ele>
        <time>2012-02-29T14:37:43Z</time>
      </trkpt>
      <trkpt lat="48.21727" lon="-0.69709">
        <ele>121</ele>
        <time>2012-02-29T14:37:47Z</time>
      </trkpt>
      <trkpt lat="48.21708" lon="-0.69714">
        <ele>124</ele>
        <time>2012-02-29T14:37:51Z</time>
      </trkpt>
      <trkpt lat="48.21692" lon="-0.69717">
        <ele>123</ele>
        <time>2012-02-29T14:37:55Z</time>
      </trkpt>
      <trkpt lat="48.21676" lon="-0.6972">
        <ele>123</ele>
        <time>2012-02-29T14:37:59Z</time>
      </trkpt>
      <trkpt lat="48.2165" lon="-0.69726">
        <ele>124</ele>
        <time>2012-02-29T14:38:05Z</time>
      </trkpt>
      <trkpt lat="48.21633" lon="-0.69734">
        <ele>124</ele>
        <time>2012-02-29T14:38:09Z</time>
      </trkpt>
      <trkpt lat="48.21616" lon="-0.69745">
        <ele>128</ele>
        <time>2012-02-29T14:38:13Z</time>
      </trkpt>
      <trkpt lat="48.21591" lon="-0.69763">
        <ele>133</ele>
        <time>2012-02-29T14:38:19Z</time>
      </trkpt>
      <trkpt lat="48.21578" lon="-0.69772">
        <ele>133</ele>
        <time>2012-02-29T14:38:23Z</time>
      </trkpt>
      <trkpt lat="48.21565" lon="-0.69792">
        <ele>133</ele>
        <time>2012-02-29T14:38:27Z</time>
      </trkpt>
      <trkpt lat="48.21543" lon="-0.69819">
        <ele>131</ele>
        <time>2012-02-29T14:38:33Z</time>
      </trkpt>
      <trkpt lat="48.2153" lon="-0.69836">
        <ele>130</ele>
        <time>2012-02-29T14:38:37Z</time>
      </trkpt>
      <trkpt lat="48.21517" lon="-0.69853">
        <ele>128</ele>
        <time>2012-02-29T14:38:41Z</time>
      </trkpt>
      <trkpt lat="48.21503" lon="-0.69873">
        <ele>134</ele>
        <time>2012-02-29T14:38:45Z</time>
      </trkpt>
      <trkpt lat="48.21491" lon="-0.69894">
        <ele>133</ele>
        <time>2012-02-29T14:38:49Z</time>
      </trkpt>
      <trkpt lat="48.21482" lon="-0.69915">
        <ele>132</ele>
        <time>2012-02-29T14:38:53Z</time>
      </trkpt>
      <trkpt lat="48.21473" lon="-0.69935">
        <ele>132</ele>
        <time>2012-02-29T14:38:57Z</time>
      </trkpt>
      <trkpt lat="48.21469" lon="-0.69945">
        <ele>133</ele>
        <time>2012-02-29T14:38:59Z</time>
      </trkpt>
      <trkpt lat="48.21462" lon="-0.69967">
        <ele>132</ele>
        <time>2012-02-29T14:39:03Z</time>
      </trkpt>
      <trkpt lat="48.21458" lon="-0.69989">
        <ele>133</ele>
        <time>2012-02-29T14:39:07Z</time>
      </trkpt>
      <trkpt lat="48.21456" lon="-0.69999">
        <ele>132</ele>
        <time>2012-02-29T14:39:09Z</time>
      </trkpt>
      <trkpt lat="48.21453" lon="-0.70021">
        <ele>134</ele>
        <time>2012-02-29T14:39:13Z</time>
      </trkpt>
      <trkpt lat="48.21449" lon="-0.70042">
        <ele>135</ele>
        <time>2012-02-29T14:39:17Z</time>
      </trkpt>
      <trkpt lat="48.21447" lon="-0.70052">
        <ele>135</ele>
        <time>2012-02-29T14:39:19Z</time>
      </trkpt>
      <trkpt lat="48.2144" lon="-0.70084">
        <ele>132</ele>
        <time>2012-02-29T14:39:25Z</time>
      </trkpt>
      <trkpt lat="48.21433" lon="-0.70103">
        <ele>131</ele>
        <time>2012-02-29T14:39:29Z</time>
      </trkpt>
      <trkpt lat="48.21424" lon="-0.7012">
        <ele>130</ele>
        <time>2012-02-29T14:39:33Z</time>
      </trkpt>
      <trkpt lat="48.21419" lon="-0.70125">
        <ele>130</ele>
        <time>2012-02-29T14:39:35Z</time>
      </trkpt>
      <trkpt lat="48.21413" lon="-0.70139">
        <ele>129</ele>
        <time>2012-02-29T14:39:39Z</time>
      </trkpt>
      <trkpt lat="48.21408" lon="-0.70146">
        <ele>129</ele>
        <time>2012-02-29T14:39:41Z</time>
      </trkpt>
      <trkpt lat="48.21394" lon="-0.70165">
        <ele>127</ele>
        <time>2012-02-29T14:39:47Z</time>
      </trkpt>
      <trkpt lat="48.21385" lon="-0.70179">
        <ele>126</ele>
        <time>2012-02-29T14:39:51Z</time>
      </trkpt>
      <trkpt lat="48.2138" lon="-0.70187">
        <ele>126</ele>
        <time>2012-02-29T14:39:53Z</time>
      </trkpt>
      <trkpt lat="48.21371" lon="-0.70201">
        <ele>127</ele>
        <time>2012-02-29T14:39:57Z</time>
      </trkpt>
      <trkpt lat="48.21366" lon="-0.70208">
        <ele>127</ele>
        <time>2012-02-29T14:39:59Z</time>
      </trkpt>
      <trkpt lat="48.21357" lon="-0.7022">
        <ele>126</ele>
        <time>2012-02-29T14:40:03Z</time>
      </trkpt>
      <trkpt lat="48.21351" lon="-0.70224">
        <ele>126</ele>
        <time>2012-02-29T14:40:05Z</time>
      </trkpt>
      <trkpt lat="48.21342" lon="-0.70232">
        <ele>126</ele>
        <time>2012-02-29T14:40:09Z</time>
      </trkpt>
      <trkpt lat="48.21337" lon="-0.70236">
        <ele>126</ele>
        <time>2012-02-29T14:40:11Z</time>
      </trkpt>
      <trkpt lat="48.21333" lon="-0.70239">
        <ele>126</ele>
        <time>2012-02-29T14:40:13Z</time>
      </trkpt>
      <trkpt lat="48.21323" lon="-0.70248">
        <ele>126</ele>
        <time>2012-02-29T14:40:17Z</time>
      </trkpt>
      <trkpt lat="48.21317" lon="-0.70253">
        <ele>126</ele>
        <time>2012-02-29T14:40:19Z</time>
      </trkpt>
      <trkpt lat="48.21311" lon="-0.70259">
        <ele>127</ele>
        <time>2012-02-29T14:40:21Z</time>
      </trkpt>
      <trkpt lat="48.213" lon="-0.70271">
        <ele>128</ele>
        <time>2012-02-29T14:40:25Z</time>
      </trkpt>
      <trkpt lat="48.21296" lon="-0.70277">
        <ele>128</ele>
        <time>2012-02-29T14:40:27Z</time>
      </trkpt>
      <trkpt lat="48.21287" lon="-0.70288">
        <ele>128</ele>
        <time>2012-02-29T14:40:31Z</time>
      </trkpt>
      <trkpt lat="48.21284" lon="-0.70294">
        <ele>127</ele>
        <time>2012-02-29T14:40:33Z</time>
      </trkpt>
      <trkpt lat="48.21278" lon="-0.70304">
        <ele>124</ele>
        <time>2012-02-29T14:40:37Z</time>
      </trkpt>
      <trkpt lat="48.21274" lon="-0.70309">
        <ele>123</ele>
        <time>2012-02-29T14:40:39Z</time>
      </trkpt>
      <trkpt lat="48.2127" lon="-0.70315">
        <ele>123</ele>
        <time>2012-02-29T14:40:41Z</time>
      </trkpt>
      <trkpt lat="48.21264" lon="-0.70323">
        <ele>125</ele>
        <time>2012-02-29T14:40:45Z</time>
      </trkpt>
      <trkpt lat="48.21261" lon="-0.70329">
        <ele>125</ele>
        <time>2012-02-29T14:40:49Z</time>
      </trkpt>
      <trkpt lat="48.21261" lon="-0.70329">
        <ele>125</ele>
        <time>2012-02-29T14:41:05Z</time>
      </trkpt>
      <trkpt lat="48.21261" lon="-0.70329">
        <ele>125</ele>
        <time>2012-02-29T14:41:21Z</time>
      </trkpt>
      <trkpt lat="48.21261" lon="-0.70329">
        <ele>125</ele>
        <time>2012-02-29T14:41:37Z</time>
      </trkpt>
      <trkpt lat="48.21261" lon="-0.70329">
        <ele>125</ele>
        <time>2012-02-29T14:41:53Z</time>
      </trkpt>
      <trkpt lat="48.21261" lon="-0.70329">
        <ele>125</ele>
        <time>2012-02-29T14:42:09Z</time>
      </trkpt>
      <trkpt lat="48.21261" lon="-0.70329">
        <ele>125</ele>
        <time>2012-02-29T14:42:25Z</time>
      </trkpt>
      <trkpt lat="48.21261" lon="-0.70329">
        <ele>125</ele>
        <time>2012-02-29T14:42:41Z</time>
      </trkpt>
      <trkpt lat="48.21261" lon="-0.70329">
        <ele>125</ele>
        <time>2012-02-29T14:42:57Z</time>
      </trkpt>
      <trkpt lat="48.21261" lon="-0.70329">
        <ele>125</ele>
        <time>2012-02-29T14:43:13Z</time>
      </trkpt>
      <trkpt lat="48.21261" lon="-0.70329">
        <ele>125</ele>
        <time>2012-02-29T14:43:29Z</time>
      </trkpt>
      <trkpt lat="48.21261" lon="-0.70329">
        <ele>125</ele>
        <time>2012-02-29T14:43:45Z</time>
      </trkpt>
      <trkpt lat="48.21261" lon="-0.70329">
        <ele>125</ele>
        <time>2012-02-29T14:44:01Z</time>
      </trkpt>
      <trkpt lat="48.21261" lon="-0.70329">
        <ele>125</ele>
        <time>2012-02-29T14:44:17Z</time>
      </trkpt>
      <trkpt lat="48.21261" lon="-0.70329">
        <ele>125</ele>
        <time>2012-02-29T14:44:33Z</time>
      </trkpt>
      <trkpt lat="48.21261" lon="-0.70329">
        <ele>125</ele>
        <time>2012-02-29T14:44:49Z</time>
      </trkpt>
      <trkpt lat="48.21261" lon="-0.70329">
        <ele>125</ele>
        <time>2012-02-29T14:45:05Z</time>
      </trkpt>
      <trkpt lat="48.21261" lon="-0.70329">
        <ele>125</ele>
        <time>2012-02-29T14:45:21Z</time>
      </trkpt>
      <trkpt lat="48.21261" lon="-0.70329">
        <ele>125</ele>
        <time>2012-02-29T14:45:37Z</time>
      </trkpt>
      <trkpt lat="48.21261" lon="-0.70329">
        <ele>125</ele>
        <time>2012-02-29T14:45:53Z</time>
      </trkpt>
      <trkpt lat="48.21261" lon="-0.70329">
        <ele>125</ele>
        <time>2012-02-29T14:46:09Z</time>
      </trkpt>
      <trkpt lat="48.21261" lon="-0.70329">
        <ele>125</ele>
        <time>2012-02-29T14:46:25Z</time>
      </trkpt>
      <trkpt lat="48.21261" lon="-0.70329">
        <ele>125</ele>
        <time>2012-02-29T14:46:41Z</time>
      </trkpt>
      <trkpt lat="48.21261" lon="-0.70329">
        <ele>125</ele>
        <time>2012-02-29T14:46:57Z</time>
      </trkpt>
      <trkpt lat="48.21261" lon="-0.70329">
        <ele>125</ele>
        <time>2012-02-29T14:47:13Z</time>
      </trkpt>
      <trkpt lat="48.21261" lon="-0.70329">
        <ele>125</ele>
        <time>2012-02-29T14:47:29Z</time>
      </trkpt>
      <trkpt lat="48.21261" lon="-0.70329">
        <ele>125</ele>
        <time>2012-02-29T14:47:45Z</time>
      </trkpt>
      <trkpt lat="48.21261" lon="-0.70329">
        <ele>125</ele>
        <time>2012-02-29T14:48:01Z</time>
      </trkpt>
      <trkpt lat="48.21261" lon="-0.70329">
        <ele>125</ele>
        <time>2012-02-29T14:48:17Z</time>
      </trkpt>
      <trkpt lat="48.21261" lon="-0.70329">
        <ele>125</ele>
        <time>2012-02-29T14:48:33Z</time>
      </trkpt>
      <trkpt lat="48.21261" lon="-0.70329">
        <ele>125</ele>
        <time>2012-02-29T14:48:49Z</time>
      </trkpt>
      <trkpt lat="48.21261" lon="-0.70329">
        <ele>125</ele>
        <time>2012-02-29T14:49:05Z</time>
      </trkpt>
      <trkpt lat="48.21261" lon="-0.70329">
        <ele>125</ele>
        <time>2012-02-29T14:49:21Z</time>
      </trkpt>
      <trkpt lat="48.21261" lon="-0.70329">
        <ele>125</ele>
        <time>2012-02-29T14:49:37Z</time>
      </trkpt>
      <trkpt lat="48.21261" lon="-0.70329">
        <ele>125</ele>
        <time>2012-02-29T14:49:53Z</time>
      </trkpt>
      <trkpt lat="48.21261" lon="-0.70329">
        <ele>125</ele>
        <time>2012-02-29T14:50:09Z</time>
      </trkpt>
      <trkpt lat="48.21261" lon="-0.70329">
        <ele>125</ele>
        <time>2012-02-29T14:50:25Z</time>
      </trkpt>
      <trkpt lat="48.21261" lon="-0.70329">
        <ele>125</ele>
        <time>2012-02-29T14:50:41Z</time>
      </trkpt>
      <trkpt lat="48.21261" lon="-0.70329">
        <ele>125</ele>
        <time>2012-02-29T14:50:57Z</time>
      </trkpt>
      <trkpt lat="48.21261" lon="-0.70329">
        <ele>125</ele>
        <time>2012-02-29T14:51:13Z</time>
      </trkpt>
      <trkpt lat="48.21261" lon="-0.70329">
        <ele>125</ele>
        <time>2012-02-29T14:51:29Z</time>
      </trkpt>
      <trkpt lat="48.21261" lon="-0.70329">
        <ele>125</ele>
        <time>2012-02-29T14:51:45Z</time>
      </trkpt>
      <trkpt lat="48.21261" lon="-0.70329">
        <ele>125</ele>
        <time>2012-02-29T14:52:01Z</time>
      </trkpt>
      <trkpt lat="48.21261" lon="-0.70329">
        <ele>125</ele>
        <time>2012-02-29T14:52:17Z</time>
      </trkpt>
      <trkpt lat="48.21261" lon="-0.70329">
        <ele>125</ele>
        <time>2012-02-29T14:52:33Z</time>
      </trkpt>
      <trkpt lat="48.21261" lon="-0.70329">
        <ele>125</ele>
        <time>2012-02-29T14:52:49Z</time>
      </trkpt>
      <trkpt lat="48.21261" lon="-0.70329">
        <ele>125</ele>
        <time>2012-02-29T14:53:05Z</time>
      </trkpt>
      <trkpt lat="48.21261" lon="-0.70329">
        <ele>125</ele>
        <time>2012-02-29T14:53:21Z</time>
      </trkpt>
      <trkpt lat="48.21261" lon="-0.70329">
        <ele>125</ele>
        <time>2012-02-29T14:53:37Z</time>
      </trkpt>
      <trkpt lat="48.21261" lon="-0.70329">
        <ele>125</ele>
        <time>2012-02-29T14:53:53Z</time>
      </trkpt>
      <trkpt lat="48.21261" lon="-0.70329">
        <ele>125</ele>
        <time>2012-02-29T14:54:09Z</time>
      </trkpt>
      <trkpt lat="48.21261" lon="-0.70329">
        <ele>125</ele>
        <time>2012-02-29T14:54:25Z</time>
      </trkpt>
      <trkpt lat="48.21261" lon="-0.70329">
        <ele>125</ele>
        <time>2012-02-29T14:54:41Z</time>
      </trkpt>
      <trkpt lat="48.21261" lon="-0.70329">
        <ele>125</ele>
        <time>2012-02-29T14:54:57Z</time>
      </trkpt>
      <trkpt lat="48.21261" lon="-0.70329">
        <ele>125</ele>
        <time>2012-02-29T14:55:13Z</time>
      </trkpt>
      <trkpt lat="48.21261" lon="-0.70329">
        <ele>125</ele>
        <time>2012-02-29T14:55:29Z</time>
      </trkpt>
      <trkpt lat="48.21261" lon="-0.70329">
        <ele>125</ele>
        <time>2012-02-29T14:55:45Z</time>
      </trkpt>
      <trkpt lat="48.21261" lon="-0.70329">
        <ele>125</ele>
        <time>2012-02-29T14:56:01Z</time>
      </trkpt>
      <trkpt lat="48.21261" lon="-0.70329">
        <ele>125</ele>
        <time>2012-02-29T14:56:17Z</time>
      </trkpt>
      <trkpt lat="48.21261" lon="-0.70329">
        <ele>125</ele>
        <time>2012-02-29T14:56:33Z</time>
      </trkpt>
      <trkpt lat="48.21261" lon="-0.70329">
        <ele>125</ele>
        <time>2012-02-29T14:56:49Z</time>
      </trkpt>
      <trkpt lat="48.21261" lon="-0.70329">
        <ele>125</ele>
        <time>2012-02-29T14:57:05Z</time>
      </trkpt>
      <trkpt lat="48.21261" lon="-0.70329">
        <ele>125</ele>
        <time>2012-02-29T14:57:21Z</time>
      </trkpt>
      <trkpt lat="48.21261" lon="-0.70329">
        <ele>125</ele>
        <time>2012-02-29T14:57:37Z</time>
      </trkpt>
      <trkpt lat="48.21261" lon="-0.70329">
        <ele>125</ele>
        <time>2012-02-29T14:57:53Z</time>
      </trkpt>
      <trkpt lat="48.21261" lon="-0.70329">
        <ele>125</ele>
        <time>2012-02-29T14:58:09Z</time>
      </trkpt>
      <trkpt lat="48.21261" lon="-0.70329">
        <ele>125</ele>
        <time>2012-02-29T14:58:25Z</time>
      </trkpt>
      <trkpt lat="48.21261" lon="-0.70329">
        <ele>125</ele>
        <time>2012-02-29T14:58:40Z</time>
      </trkpt>
      <trkpt lat="48.21261" lon="-0.70329">
        <ele>125</ele>
        <time>2012-02-29T14:58:56Z</time>
      </trkpt>
      <trkpt lat="48.21261" lon="-0.70329">
        <ele>125</ele>
        <time>2012-02-29T14:59:12Z</time>
      </trkpt>
      <trkpt lat="48.21261" lon="-0.70329">
        <ele>125</ele>
        <time>2012-02-29T14:59:28Z</time>
      </trkpt>
      <trkpt lat="48.21261" lon="-0.70329">
        <ele>125</ele>
        <time>2012-02-29T14:59:44Z</time>
      </trkpt>
      <trkpt lat="48.21266" lon="-0.70321">
        <ele>116</ele>
        <time>2012-02-29T14:59:58Z</time>
      </trkpt>
      <trkpt lat="48.2127" lon="-0.70315">
        <ele>116</ele>
        <time>2012-02-29T15:00:02Z</time>
      </trkpt>
      <trkpt lat="48.21272" lon="-0.70311">
        <ele>117</ele>
        <time>2012-02-29T15:00:04Z</time>
      </trkpt>
      <trkpt lat="48.21282" lon="-0.70298">
        <ele>120</ele>
        <time>2012-02-29T15:00:10Z</time>
      </trkpt>
      <trkpt lat="48.21288" lon="-0.7029">
        <ele>120</ele>
        <time>2012-02-29T15:00:14Z</time>
      </trkpt>
      <trkpt lat="48.21292" lon="-0.70284">
        <ele>121</ele>
        <time>2012-02-29T15:00:16Z</time>
      </trkpt>
      <trkpt lat="48.21295" lon="-0.70279">
        <ele>121</ele>
        <time>2012-02-29T15:00:18Z</time>
      </trkpt>
      <trkpt lat="48.21299" lon="-0.70273">
        <ele>121</ele>
        <time>2012-02-29T15:00:20Z</time>
      </trkpt>
      <trkpt lat="48.21308" lon="-0.70263">
        <ele>121</ele>
        <time>2012-02-29T15:00:24Z</time>
      </trkpt>
      <trkpt lat="48.21314" lon="-0.70258">
        <ele>121</ele>
        <time>2012-02-29T15:00:26Z</time>
      </trkpt>
      <trkpt lat="48.21319" lon="-0.70253">
        <ele>121</ele>
        <time>2012-02-29T15:00:28Z</time>
      </trkpt>
      <trkpt lat="48.21329" lon="-0.70244">
        <ele>121</ele>
        <time>2012-02-29T15:00:32Z</time>
      </trkpt>
      <trkpt lat="48.21335" lon="-0.70239">
        <ele>121</ele>
        <time>2012-02-29T15:00:34Z</time>
      </trkpt>
      <trkpt lat="48.21345" lon="-0.70229">
        <ele>123</ele>
        <time>2012-02-29T15:00:38Z</time>
      </trkpt>
      <trkpt lat="48.2135" lon="-0.70224">
        <ele>124</ele>
        <time>2012-02-29T15:00:40Z</time>
      </trkpt>
      <trkpt lat="48.21361" lon="-0.70211">
        <ele>124</ele>
        <time>2012-02-29T15:00:44Z</time>
      </trkpt>
      <trkpt lat="48.21365" lon="-0.70204">
        <ele>125</ele>
        <time>2012-02-29T15:00:46Z</time>
      </trkpt>
      <trkpt lat="48.21375" lon="-0.70189">
        <ele>125</ele>
        <time>2012-02-29T15:00:50Z</time>
      </trkpt>
      <trkpt lat="48.2138" lon="-0.70181">
        <ele>125</ele>
        <time>2012-02-29T15:00:52Z</time>
      </trkpt>
      <trkpt lat="48.21392" lon="-0.70166">
        <ele>125</ele>
        <time>2012-02-29T15:00:56Z</time>
      </trkpt>
      <trkpt lat="48.21403" lon="-0.70154">
        <ele>125</ele>
        <time>2012-02-29T15:01:00Z</time>
      </trkpt>
      <trkpt lat="48.21411" lon="-0.70139">
        <ele>126</ele>
        <time>2012-02-29T15:01:04Z</time>
      </trkpt>
      <trkpt lat="48.21415" lon="-0.70133">
        <ele>126</ele>
        <time>2012-02-29T15:01:06Z</time>
      </trkpt>
      <trkpt lat="48.21425" lon="-0.70119">
        <ele>127</ele>
        <time>2012-02-29T15:01:10Z</time>
      </trkpt>
      <trkpt lat="48.2143" lon="-0.7011">
        <ele>127</ele>
        <time>2012-02-29T15:01:12Z</time>
      </trkpt>
      <trkpt lat="48.21438" lon="-0.70091">
        <ele>128</ele>
        <time>2012-02-29T15:01:16Z</time>
      </trkpt>
      <trkpt lat="48.21443" lon="-0.70069">
        <ele>128</ele>
        <time>2012-02-29T15:01:20Z</time>
      </trkpt>
      <trkpt lat="48.21446" lon="-0.70058">
        <ele>127</ele>
        <time>2012-02-29T15:01:22Z</time>
      </trkpt>
      <trkpt lat="48.2145" lon="-0.70034">
        <ele>128</ele>
        <time>2012-02-29T15:01:26Z</time>
      </trkpt>
      <trkpt lat="48.21452" lon="-0.70011">
        <ele>126</ele>
        <time>2012-02-29T15:01:30Z</time>
      </trkpt>
      <trkpt lat="48.21452" lon="-0.7">
        <ele>125</ele>
        <time>2012-02-29T15:01:32Z</time>
      </trkpt>
      <trkpt lat="48.21455" lon="-0.6998">
        <ele>122</ele>
        <time>2012-02-29T15:01:36Z</time>
      </trkpt>
      <trkpt lat="48.2146" lon="-0.69962">
        <ele>122</ele>
        <time>2012-02-29T15:01:40Z</time>
      </trkpt>
      <trkpt lat="48.21463" lon="-0.69953">
        <ele>120</ele>
        <time>2012-02-29T15:01:42Z</time>
      </trkpt>
      <trkpt lat="48.21476" lon="-0.69921">
        <ele>118</ele>
        <time>2012-02-29T15:01:48Z</time>
      </trkpt>
      <trkpt lat="48.21487" lon="-0.69901">
        <ele>119</ele>
        <time>2012-02-29T15:01:52Z</time>
      </trkpt>
      <trkpt lat="48.21491" lon="-0.69893">
        <ele>119</ele>
        <time>2012-02-29T15:01:54Z</time>
      </trkpt>
      <trkpt lat="48.215" lon="-0.69876">
        <ele>120</ele>
        <time>2012-02-29T15:01:58Z</time>
      </trkpt>
      <trkpt lat="48.21506" lon="-0.69868">
        <ele>121</ele>
        <time>2012-02-29T15:02:00Z</time>
      </trkpt>
      <trkpt lat="48.21518" lon="-0.69843">
        <ele>123</ele>
        <time>2012-02-29T15:02:06Z</time>
      </trkpt>
      <trkpt lat="48.21529" lon="-0.69825">
        <ele>122</ele>
        <time>2012-02-29T15:02:10Z</time>
      </trkpt>
      <trkpt lat="48.21536" lon="-0.69818">
        <ele>123</ele>
        <time>2012-02-29T15:02:12Z</time>
      </trkpt>
      <trkpt lat="48.2155" lon="-0.69805">
        <ele>119</ele>
        <time>2012-02-29T15:02:16Z</time>
      </trkpt>
      <trkpt lat="48.2156" lon="-0.69791">
        <ele>116</ele>
        <time>2012-02-29T15:02:20Z</time>
      </trkpt>
      <trkpt lat="48.21581" lon="-0.69777">
        <ele>115</ele>
        <time>2012-02-29T15:02:26Z</time>
      </trkpt>
      <trkpt lat="48.21595" lon="-0.69767">
        <ele>116</ele>
        <time>2012-02-29T15:02:30Z</time>
      </trkpt>
      <trkpt lat="48.21613" lon="-0.69758">
        <ele>116</ele>
        <time>2012-02-29T15:02:34Z</time>
      </trkpt>
      <trkpt lat="48.21629" lon="-0.69753">
        <ele>119</ele>
        <time>2012-02-29T15:02:38Z</time>
      </trkpt>
      <trkpt lat="48.2166" lon="-0.69741">
        <ele>124</ele>
        <time>2012-02-29T15:02:46Z</time>
      </trkpt>
      <trkpt lat="48.21694" lon="-0.69731">
        <ele>123</ele>
        <time>2012-02-29T15:02:54Z</time>
      </trkpt>
      <trkpt lat="48.21707" lon="-0.69724">
        <ele>128</ele>
        <time>2012-02-29T15:02:58Z</time>
      </trkpt>
      <trkpt lat="48.21716" lon="-0.69723">
        <ele>129</ele>
        <time>2012-02-29T15:03:00Z</time>
      </trkpt>
      <trkpt lat="48.21739" lon="-0.69718">
        <ele>129</ele>
        <time>2012-02-29T15:03:06Z</time>
      </trkpt>
      <trkpt lat="48.21758" lon="-0.69713">
        <ele>133</ele>
        <time>2012-02-29T15:03:10Z</time>
      </trkpt>
      <trkpt lat="48.21785" lon="-0.69706">
        <ele>133</ele>
        <time>2012-02-29T15:03:16Z</time>
      </trkpt>
      <trkpt lat="48.21813" lon="-0.697">
        <ele>133</ele>
        <time>2012-02-29T15:03:22Z</time>
      </trkpt>
      <trkpt lat="48.21833" lon="-0.69697">
        <ele>132</ele>
        <time>2012-02-29T15:03:26Z</time>
      </trkpt>
      <trkpt lat="48.21866" lon="-0.69697">
        <ele>139</ele>
        <time>2012-02-29T15:03:34Z</time>
      </trkpt>
      <trkpt lat="48.21881" lon="-0.69696">
        <ele>141</ele>
        <time>2012-02-29T15:03:38Z</time>
      </trkpt>
      <trkpt lat="48.21911" lon="-0.69694">
        <ele>150</ele>
        <time>2012-02-29T15:03:46Z</time>
      </trkpt>
      <trkpt lat="48.2193" lon="-0.69694">
        <ele>151</ele>
        <time>2012-02-29T15:03:50Z</time>
      </trkpt>
      <trkpt lat="48.21968" lon="-0.69692">
        <ele>150</ele>
        <time>2012-02-29T15:03:58Z</time>
      </trkpt>
      <trkpt lat="48.21984" lon="-0.69689">
        <ele>153</ele>
        <time>2012-02-29T15:04:02Z</time>
      </trkpt>
      <trkpt lat="48.2201" lon="-0.69686">
        <ele>153</ele>
        <time>2012-02-29T15:04:08Z</time>
      </trkpt>
      <trkpt lat="48.22031" lon="-0.69686">
        <ele>148</ele>
        <time>2012-02-29T15:04:12Z</time>
      </trkpt>
      <trkpt lat="48.22057" lon="-0.69689">
        <ele>150</ele>
        <time>2012-02-29T15:04:18Z</time>
      </trkpt>
      <trkpt lat="48.22075" lon="-0.69695">
        <ele>148</ele>
        <time>2012-02-29T15:04:22Z</time>
      </trkpt>
      <trkpt lat="48.22103" lon="-0.69705">
        <ele>143</ele>
        <time>2012-02-29T15:04:28Z</time>
      </trkpt>
      <trkpt lat="48.22128" lon="-0.69711">
        <ele>146</ele>
        <time>2012-02-29T15:04:34Z</time>
      </trkpt>
      <trkpt lat="48.22143" lon="-0.69712">
        <ele>147</ele>
        <time>2012-02-29T15:04:38Z</time>
      </trkpt>
      <trkpt lat="48.22166" lon="-0.69719">
        <ele>144</ele>
        <time>2012-02-29T15:04:47Z</time>
      </trkpt>
      <trkpt lat="48.22181" lon="-0.69724">
        <ele>145</ele>
        <time>2012-02-29T15:04:51Z</time>
      </trkpt>
      <trkpt lat="48.22188" lon="-0.69728">
        <ele>146</ele>
        <time>2012-02-29T15:04:53Z</time>
      </trkpt>
      <trkpt lat="48.22207" lon="-0.69737">
        <ele>151</ele>
        <time>2012-02-29T15:04:59Z</time>
      </trkpt>
      <trkpt lat="48.22231" lon="-0.69748">
        <ele>148</ele>
        <time>2012-02-29T15:05:05Z</time>
      </trkpt>
      <trkpt lat="48.22244" lon="-0.69754">
        <ele>150</ele>
        <time>2012-02-29T15:05:09Z</time>
      </trkpt>
      <trkpt lat="48.22251" lon="-0.69758">
        <ele>150</ele>
        <time>2012-02-29T15:05:11Z</time>
      </trkpt>
      <trkpt lat="48.22265" lon="-0.69763">
        <ele>148</ele>
        <time>2012-02-29T15:05:15Z</time>
      </trkpt>
      <trkpt lat="48.22271" lon="-0.69766">
        <ele>147</ele>
        <time>2012-02-29T15:05:17Z</time>
      </trkpt>
      <trkpt lat="48.22283" lon="-0.69773">
        <ele>143</ele>
        <time>2012-02-29T15:05:21Z</time>
      </trkpt>
      <trkpt lat="48.2229" lon="-0.69777">
        <ele>142</ele>
        <time>2012-02-29T15:05:23Z</time>
      </trkpt>
      <trkpt lat="48.22304" lon="-0.69787">
        <ele>141</ele>
        <time>2012-02-29T15:05:27Z</time>
      </trkpt>
      <trkpt lat="48.22311" lon="-0.69791">
        <ele>141</ele>
        <time>2012-02-29T15:05:29Z</time>
      </trkpt>
      <trkpt lat="48.22326" lon="-0.69801">
        <ele>141</ele>
        <time>2012-02-29T15:05:33Z</time>
      </trkpt>
      <trkpt lat="48.22341" lon="-0.6981">
        <ele>138</ele>
        <time>2012-02-29T15:05:37Z</time>
      </trkpt>
      <trkpt lat="48.22355" lon="-0.69813">
        <ele>137</ele>
        <time>2012-02-29T15:05:41Z</time>
      </trkpt>
      <trkpt lat="48.22368" lon="-0.69816">
        <ele>137</ele>
        <time>2012-02-29T15:05:45Z</time>
      </trkpt>
      <trkpt lat="48.22387" lon="-0.69827">
        <ele>136</ele>
        <time>2012-02-29T15:05:51Z</time>
      </trkpt>
      <trkpt lat="48.22401" lon="-0.69834">
        <ele>133</ele>
        <time>2012-02-29T15:05:55Z</time>
      </trkpt>
      <trkpt lat="48.22408" lon="-0.69838">
        <ele>133</ele>
        <time>2012-02-29T15:05:57Z</time>
      </trkpt>
      <trkpt lat="48.22422" lon="-0.69844">
        <ele>133</ele>
        <time>2012-02-29T15:06:01Z</time>
      </trkpt>
      <trkpt lat="48.22445" lon="-0.69858">
        <ele>132</ele>
        <time>2012-02-29T15:06:07Z</time>
      </trkpt>
      <trkpt lat="48.2246" lon="-0.69868">
        <ele>131</ele>
        <time>2012-02-29T15:06:11Z</time>
      </trkpt>
      <trkpt lat="48.22475" lon="-0.69879">
        <ele>130</ele>
        <time>2012-02-29T15:06:15Z</time>
      </trkpt>
      <trkpt lat="48.22489" lon="-0.69889">
        <ele>129</ele>
        <time>2012-02-29T15:06:19Z</time>
      </trkpt>
      <trkpt lat="48.22505" lon="-0.69901">
        <ele>129</ele>
        <time>2012-02-29T15:06:23Z</time>
      </trkpt>
      <trkpt lat="48.2252" lon="-0.69912">
        <ele>129</ele>
        <time>2012-02-29T15:06:27Z</time>
      </trkpt>
      <trkpt lat="48.22535" lon="-0.69923">
        <ele>128</ele>
        <time>2012-02-29T15:06:31Z</time>
      </trkpt>
      <trkpt lat="48.22543" lon="-0.69929">
        <ele>128</ele>
        <time>2012-02-29T15:06:33Z</time>
      </trkpt>
      <trkpt lat="48.22559" lon="-0.69939">
        <ele>127</ele>
        <time>2012-02-29T15:06:37Z</time>
      </trkpt>
      <trkpt lat="48.22576" lon="-0.69947">
        <ele>125</ele>
        <time>2012-02-29T15:06:41Z</time>
      </trkpt>
      <trkpt lat="48.22593" lon="-0.69951">
        <ele>124</ele>
        <time>2012-02-29T15:06:45Z</time>
      </trkpt>
      <trkpt lat="48.2261" lon="-0.6995">
        <ele>122</ele>
        <time>2012-02-29T15:06:49Z</time>
      </trkpt>
      <trkpt lat="48.22626" lon="-0.69944">
        <ele>123</ele>
        <time>2012-02-29T15:06:53Z</time>
      </trkpt>
      <trkpt lat="48.22643" lon="-0.69934">
        <ele>123</ele>
        <time>2012-02-29T15:06:57Z</time>
      </trkpt>
      <trkpt lat="48.22651" lon="-0.69928">
        <ele>123</ele>
        <time>2012-02-29T15:06:59Z</time>
      </trkpt>
      <trkpt lat="48.22665" lon="-0.69914">
        <ele>123</ele>
        <time>2012-02-29T15:07:03Z</time>
      </trkpt>
      <trkpt lat="48.22679" lon="-0.69897">
        <ele>123</ele>
        <time>2012-02-29T15:07:07Z</time>
      </trkpt>
      <trkpt lat="48.22691" lon="-0.69878">
        <ele>123</ele>
        <time>2012-02-29T15:07:11Z</time>
      </trkpt>
      <trkpt lat="48.22702" lon="-0.69858">
        <ele>124</ele>
        <time>2012-02-29T15:07:15Z</time>
      </trkpt>
      <trkpt lat="48.22713" lon="-0.69837">
        <ele>124</ele>
        <time>2012-02-29T15:07:19Z</time>
      </trkpt>
      <trkpt lat="48.22724" lon="-0.69816">
        <ele>124</ele>
        <time>2012-02-29T15:07:23Z</time>
      </trkpt>
      <trkpt lat="48.22733" lon="-0.69796">
        <ele>125</ele>
        <time>2012-02-29T15:07:27Z</time>
      </trkpt>
      <trkpt lat="48.22743" lon="-0.69775">
        <ele>126</ele>
        <time>2012-02-29T15:07:31Z</time>
      </trkpt>
      <trkpt lat="48.22753" lon="-0.69755">
        <ele>125</ele>
        <time>2012-02-29T15:07:35Z</time>
      </trkpt>
      <trkpt lat="48.22764" lon="-0.69735">
        <ele>125</ele>
        <time>2012-02-29T15:07:39Z</time>
      </trkpt>
      <trkpt lat="48.22768" lon="-0.69725">
        <ele>125</ele>
        <time>2012-02-29T15:07:41Z</time>
      </trkpt>
      <trkpt lat="48.22779" lon="-0.69706">
        <ele>125</ele>
        <time>2012-02-29T15:07:45Z</time>
      </trkpt>
      <trkpt lat="48.22789" lon="-0.69687">
        <ele>126</ele>
        <time>2012-02-29T15:07:49Z</time>
      </trkpt>
      <trkpt lat="48.22799" lon="-0.69668">
        <ele>125</ele>
        <time>2012-02-29T15:07:53Z</time>
      </trkpt>
      <trkpt lat="48.22803" lon="-0.6966">
        <ele>124</ele>
        <time>2012-02-29T15:07:55Z</time>
      </trkpt>
      <trkpt lat="48.22816" lon="-0.69645">
        <ele>121</ele>
        <time>2012-02-29T15:07:59Z</time>
      </trkpt>
      <trkpt lat="48.22827" lon="-0.69629">
        <ele>121</ele>
        <time>2012-02-29T15:08:03Z</time>
      </trkpt>
      <trkpt lat="48.22838" lon="-0.69612">
        <ele>120</ele>
        <time>2012-02-29T15:08:07Z</time>
      </trkpt>
      <trkpt lat="48.22843" lon="-0.69595">
        <ele>116</ele>
        <time>2012-02-29T15:08:11Z</time>
      </trkpt>
      <trkpt lat="48.22846" lon="-0.69587">
        <ele>114</ele>
        <time>2012-02-29T15:08:13Z</time>
      </trkpt>
      <trkpt lat="48.22854" lon="-0.69567">
        <ele>111</ele>
        <time>2012-02-29T15:08:17Z</time>
      </trkpt>
      <trkpt lat="48.22856" lon="-0.69556">
        <ele>109</ele>
        <time>2012-02-29T15:08:19Z</time>
      </trkpt>
      <trkpt lat="48.22865" lon="-0.69541">
        <ele>110</ele>
        <time>2012-02-29T15:08:23Z</time>
      </trkpt>
      <trkpt lat="48.22876" lon="-0.69526">
        <ele>106</ele>
        <time>2012-02-29T15:08:29Z</time>
      </trkpt>
      <trkpt lat="48.22892" lon="-0.69523">
        <ele>108</ele>
        <time>2012-02-29T15:08:33Z</time>
      </trkpt>
      <trkpt lat="48.22899" lon="-0.69521">
        <ele>110</ele>
        <time>2012-02-29T15:08:35Z</time>
      </trkpt>
      <trkpt lat="48.22918" lon="-0.69521">
        <ele>112</ele>
        <time>2012-02-29T15:08:39Z</time>
      </trkpt>
      <trkpt lat="48.22937" lon="-0.69521">
        <ele>114</ele>
        <time>2012-02-29T15:08:43Z</time>
      </trkpt>
      <trkpt lat="48.2296" lon="-0.6952">
        <ele>118</ele>
        <time>2012-02-29T15:08:47Z</time>
      </trkpt>
      <trkpt lat="48.22985" lon="-0.69515">
        <ele>116</ele>
        <time>2012-02-29T15:08:53Z</time>
      </trkpt>
      <trkpt lat="48.23001" lon="-0.69507">
        <ele>115</ele>
        <time>2012-02-29T15:08:57Z</time>
      </trkpt>
      <trkpt lat="48.23016" lon="-0.69495">
        <ele>117</ele>
        <time>2012-02-29T15:09:01Z</time>
      </trkpt>
      <trkpt lat="48.23029" lon="-0.6948">
        <ele>118</ele>
        <time>2012-02-29T15:09:05Z</time>
      </trkpt>
      <trkpt lat="48.23041" lon="-0.69462">
        <ele>118</ele>
        <time>2012-02-29T15:09:09Z</time>
      </trkpt>
      <trkpt lat="48.23052" lon="-0.69442">
        <ele>118</ele>
        <time>2012-02-29T15:09:13Z</time>
      </trkpt>
      <trkpt lat="48.2306" lon="-0.69419">
        <ele>118</ele>
        <time>2012-02-29T15:09:17Z</time>
      </trkpt>
      <trkpt lat="48.23063" lon="-0.69407">
        <ele>119</ele>
        <time>2012-02-29T15:09:19Z</time>
      </trkpt>
      <trkpt lat="48.23073" lon="-0.69374">
        <ele>121</ele>
        <time>2012-02-29T15:09:25Z</time>
      </trkpt>
      <trkpt lat="48.23078" lon="-0.69351">
        <ele>123</ele>
        <time>2012-02-29T15:09:29Z</time>
      </trkpt>
      <trkpt lat="48.23084" lon="-0.69328">
        <ele>122</ele>
        <time>2012-02-29T15:09:33Z</time>
      </trkpt>
      <trkpt lat="48.23091" lon="-0.69305">
        <ele>124</ele>
        <time>2012-02-29T15:09:37Z</time>
      </trkpt>
      <trkpt lat="48.231" lon="-0.69284">
        <ele>124</ele>
        <time>2012-02-29T15:09:41Z</time>
      </trkpt>
      <trkpt lat="48.23109" lon="-0.69263">
        <ele>125</ele>
        <time>2012-02-29T15:09:45Z</time>
      </trkpt>
      <trkpt lat="48.23118" lon="-0.69244">
        <ele>125</ele>
        <time>2012-02-29T15:09:49Z</time>
      </trkpt>
      <trkpt lat="48.23126" lon="-0.69223">
        <ele>126</ele>
        <time>2012-02-29T15:09:53Z</time>
      </trkpt>
      <trkpt lat="48.23138" lon="-0.69191">
        <ele>127</ele>
        <time>2012-02-29T15:09:59Z</time>
      </trkpt>
      <trkpt lat="48.23145" lon="-0.69169">
        <ele>127</ele>
        <time>2012-02-29T15:10:03Z</time>
      </trkpt>
      <trkpt lat="48.23151" lon="-0.69146">
        <ele>126</ele>
        <time>2012-02-29T15:10:07Z</time>
      </trkpt>
      <trkpt lat="48.23159" lon="-0.69125">
        <ele>127</ele>
        <time>2012-02-29T15:10:11Z</time>
      </trkpt>
      <trkpt lat="48.23164" lon="-0.69104">
        <ele>129</ele>
        <time>2012-02-29T15:10:15Z</time>
      </trkpt>
      <trkpt lat="48.23171" lon="-0.69081">
        <ele>129</ele>
        <time>2012-02-29T15:10:19Z</time>
      </trkpt>
      <trkpt lat="48.23174" lon="-0.6907">
        <ele>129</ele>
        <time>2012-02-29T15:10:21Z</time>
      </trkpt>
      <trkpt lat="48.23181" lon="-0.69047">
        <ele>129</ele>
        <time>2012-02-29T15:10:25Z</time>
      </trkpt>
      <trkpt lat="48.23187" lon="-0.69024">
        <ele>129</ele>
        <time>2012-02-29T15:10:29Z</time>
      </trkpt>
      <trkpt lat="48.23193" lon="-0.69001">
        <ele>128</ele>
        <time>2012-02-29T15:10:33Z</time>
      </trkpt>
      <trkpt lat="48.23197" lon="-0.68979">
        <ele>128</ele>
        <time>2012-02-29T15:10:37Z</time>
      </trkpt>
      <trkpt lat="48.23201" lon="-0.68956">
        <ele>127</ele>
        <time>2012-02-29T15:10:41Z</time>
      </trkpt>
      <trkpt lat="48.23206" lon="-0.68933">
        <ele>127</ele>
        <time>2012-02-29T15:10:45Z</time>
      </trkpt>
      <trkpt lat="48.23211" lon="-0.6891">
        <ele>126</ele>
        <time>2012-02-29T15:10:49Z</time>
      </trkpt>
      <trkpt lat="48.23218" lon="-0.68887">
        <ele>121</ele>
        <time>2012-02-29T15:10:53Z</time>
      </trkpt>
      <trkpt lat="48.23221" lon="-0.68875">
        <ele>120</ele>
        <time>2012-02-29T15:10:55Z</time>
      </trkpt>
      <trkpt lat="48.23222" lon="-0.68845">
        <ele>121</ele>
        <time>2012-02-29T15:11:01Z</time>
      </trkpt>
      <trkpt lat="48.23228" lon="-0.68821">
        <ele>118</ele>
        <time>2012-02-29T15:11:05Z</time>
      </trkpt>
      <trkpt lat="48.2323" lon="-0.6881">
        <ele>117</ele>
        <time>2012-02-29T15:11:07Z</time>
      </trkpt>
      <trkpt lat="48.23234" lon="-0.68787">
        <ele>119</ele>
        <time>2012-02-29T15:11:11Z</time>
      </trkpt>
      <trkpt lat="48.23236" lon="-0.68775">
        <ele>119</ele>
        <time>2012-02-29T15:11:13Z</time>
      </trkpt>
      <trkpt lat="48.23241" lon="-0.6875">
        <ele>120</ele>
        <time>2012-02-29T15:11:17Z</time>
      </trkpt>
      <trkpt lat="48.23247" lon="-0.68715">
        <ele>121</ele>
        <time>2012-02-29T15:11:23Z</time>
      </trkpt>
      <trkpt lat="48.2325" lon="-0.68691">
        <ele>121</ele>
        <time>2012-02-29T15:11:27Z</time>
      </trkpt>
      <trkpt lat="48.23255" lon="-0.68667">
        <ele>120</ele>
        <time>2012-02-29T15:11:31Z</time>
      </trkpt>
      <trkpt lat="48.23257" lon="-0.68657">
        <ele>119</ele>
        <time>2012-02-29T15:11:33Z</time>
      </trkpt>
      <trkpt lat="48.23259" lon="-0.68634">
        <ele>122</ele>
        <time>2012-02-29T15:11:37Z</time>
      </trkpt>
      <trkpt lat="48.23261" lon="-0.68612">
        <ele>123</ele>
        <time>2012-02-29T15:11:41Z</time>
      </trkpt>
      <trkpt lat="48.23263" lon="-0.68588">
        <ele>123</ele>
        <time>2012-02-29T15:11:45Z</time>
      </trkpt>
      <trkpt lat="48.23265" lon="-0.68564">
        <ele>124</ele>
        <time>2012-02-29T15:11:49Z</time>
      </trkpt>
      <trkpt lat="48.23266" lon="-0.68551">
        <ele>125</ele>
        <time>2012-02-29T15:11:51Z</time>
      </trkpt>
      <trkpt lat="48.23267" lon="-0.68526">
        <ele>126</ele>
        <time>2012-02-29T15:11:55Z</time>
      </trkpt>
      <trkpt lat="48.23268" lon="-0.68513">
        <ele>126</ele>
        <time>2012-02-29T15:11:57Z</time>
      </trkpt>
      <trkpt lat="48.23268" lon="-0.68487">
        <ele>128</ele>
        <time>2012-02-29T15:12:01Z</time>
      </trkpt>
      <trkpt lat="48.23268" lon="-0.68464">
        <ele>132</ele>
        <time>2012-02-29T15:12:05Z</time>
      </trkpt>
      <trkpt lat="48.23269" lon="-0.68452">
        <ele>133</ele>
        <time>2012-02-29T15:12:07Z</time>
      </trkpt>
      <trkpt lat="48.23271" lon="-0.68428">
        <ele>135</ele>
        <time>2012-02-29T15:12:11Z</time>
      </trkpt>
      <trkpt lat="48.23276" lon="-0.68404">
        <ele>133</ele>
        <time>2012-02-29T15:12:15Z</time>
      </trkpt>
      <trkpt lat="48.23276" lon="-0.68393">
        <ele>135</ele>
        <time>2012-02-29T15:12:17Z</time>
      </trkpt>
      <trkpt lat="48.23276" lon="-0.68359">
        <ele>139</ele>
        <time>2012-02-29T15:12:23Z</time>
      </trkpt>
      <trkpt lat="48.23276" lon="-0.6833">
        <ele>141</ele>
        <time>2012-02-29T15:12:29Z</time>
      </trkpt>
      <trkpt lat="48.23275" lon="-0.68309">
        <ele>141</ele>
        <time>2012-02-29T15:12:33Z</time>
      </trkpt>
      <trkpt lat="48.23274" lon="-0.68298">
        <ele>140</ele>
        <time>2012-02-29T15:12:35Z</time>
      </trkpt>
      <trkpt lat="48.23272" lon="-0.68277">
        <ele>140</ele>
        <time>2012-02-29T15:12:39Z</time>
      </trkpt>
      <trkpt lat="48.2327" lon="-0.68265">
        <ele>142</ele>
        <time>2012-02-29T15:12:41Z</time>
      </trkpt>
      <trkpt lat="48.23265" lon="-0.68246">
        <ele>146</ele>
        <time>2012-02-29T15:12:45Z</time>
      </trkpt>
      <trkpt lat="48.23261" lon="-0.68226">
        <ele>145</ele>
        <time>2012-02-29T15:12:49Z</time>
      </trkpt>
      <trkpt lat="48.23258" lon="-0.68216">
        <ele>143</ele>
        <time>2012-02-29T15:12:51Z</time>
      </trkpt>
      <trkpt lat="48.23253" lon="-0.68192">
        <ele>142</ele>
        <time>2012-02-29T15:12:55Z</time>
      </trkpt>
      <trkpt lat="48.2325" lon="-0.68169">
        <ele>139</ele>
        <time>2012-02-29T15:12:59Z</time>
      </trkpt>
      <trkpt lat="48.23248" lon="-0.68145">
        <ele>140</ele>
        <time>2012-02-29T15:13:03Z</time>
      </trkpt>
      <trkpt lat="48.23245" lon="-0.68108">
        <ele>144</ele>
        <time>2012-02-29T15:13:09Z</time>
      </trkpt>
      <trkpt lat="48.23246" lon="-0.68081">
        <ele>143</ele>
        <time>2012-02-29T15:13:13Z</time>
      </trkpt>
      <trkpt lat="48.23246" lon="-0.68056">
        <ele>144</ele>
        <time>2012-02-29T15:13:17Z</time>
      </trkpt>
      <trkpt lat="48.23247" lon="-0.68031">
        <ele>144</ele>
        <time>2012-02-29T15:13:21Z</time>
      </trkpt>
      <trkpt lat="48.23246" lon="-0.68007">
        <ele>147</ele>
        <time>2012-02-29T15:13:25Z</time>
      </trkpt>
      <trkpt lat="48.23248" lon="-0.67983">
        <ele>147</ele>
        <time>2012-02-29T15:13:29Z</time>
      </trkpt>
      <trkpt lat="48.23249" lon="-0.67961">
        <ele>143</ele>
        <time>2012-02-29T15:13:33Z</time>
      </trkpt>
      <trkpt lat="48.2325" lon="-0.67925">
        <ele>144</ele>
        <time>2012-02-29T15:13:39Z</time>
      </trkpt>
      <trkpt lat="48.23251" lon="-0.67901">
        <ele>147</ele>
        <time>2012-02-29T15:13:43Z</time>
      </trkpt>
      <trkpt lat="48.2325" lon="-0.67877">
        <ele>148</ele>
        <time>2012-02-29T15:13:47Z</time>
      </trkpt>
      <trkpt lat="48.23251" lon="-0.67866">
        <ele>149</ele>
        <time>2012-02-29T15:13:49Z</time>
      </trkpt>
      <trkpt lat="48.23252" lon="-0.67844">
        <ele>149</ele>
        <time>2012-02-29T15:13:53Z</time>
      </trkpt>
      <trkpt lat="48.23253" lon="-0.67822">
        <ele>148</ele>
        <time>2012-02-29T15:13:57Z</time>
      </trkpt>
      <trkpt lat="48.23253" lon="-0.67812">
        <ele>148</ele>
        <time>2012-02-29T15:13:59Z</time>
      </trkpt>
      <trkpt lat="48.23257" lon="-0.67789">
        <ele>149</ele>
        <time>2012-02-29T15:14:03Z</time>
      </trkpt>
      <trkpt lat="48.23259" lon="-0.67765">
        <ele>150</ele>
        <time>2012-02-29T15:14:07Z</time>
      </trkpt>
      <trkpt lat="48.23257" lon="-0.67745">
        <ele>152</ele>
        <time>2012-02-29T15:14:11Z</time>
      </trkpt>
      <trkpt lat="48.23258" lon="-0.67721">
        <ele>152</ele>
        <time>2012-02-29T15:14:15Z</time>
      </trkpt>
      <trkpt lat="48.23258" lon="-0.67686">
        <ele>154</ele>
        <time>2012-02-29T15:14:21Z</time>
      </trkpt>
      <trkpt lat="48.23262" lon="-0.67663">
        <ele>155</ele>
        <time>2012-02-29T15:14:25Z</time>
      </trkpt>
      <trkpt lat="48.23265" lon="-0.67639">
        <ele>154</ele>
        <time>2012-02-29T15:14:29Z</time>
      </trkpt>
      <trkpt lat="48.23268" lon="-0.67603">
        <ele>153</ele>
        <time>2012-02-29T15:14:35Z</time>
      </trkpt>
      <trkpt lat="48.23269" lon="-0.6759">
        <ele>152</ele>
        <time>2012-02-29T15:14:39Z</time>
      </trkpt>
      <trkpt lat="48.23269" lon="-0.6759">
        <ele>152</ele>
        <time>2012-02-29T15:14:59Z</time>
      </trkpt>
      <trkpt lat="48.23269" lon="-0.6759">
        <ele>152</ele>
        <time>2012-02-29T15:15:35Z</time>
      </trkpt>
      <trkpt lat="48.23269" lon="-0.6759">
        <ele>152</ele>
        <time>2012-02-29T15:15:53Z</time>
      </trkpt>
      <trkpt lat="48.23269" lon="-0.6759">
        <ele>152</ele>
        <time>2012-02-29T15:16:13Z</time>
      </trkpt>
      <trkpt lat="48.23269" lon="-0.6759">
        <ele>152</ele>
        <time>2012-02-29T15:16:37Z</time>
      </trkpt>
      <trkpt lat="48.23269" lon="-0.6759">
        <ele>152</ele>
        <time>2012-02-29T15:16:55Z</time>
      </trkpt>
      <trkpt lat="48.23269" lon="-0.6759">
        <ele>152</ele>
        <time>2012-02-29T15:17:13Z</time>
      </trkpt>
      <trkpt lat="48.23269" lon="-0.6759">
        <ele>152</ele>
        <time>2012-02-29T15:17:35Z</time>
      </trkpt>
      <trkpt lat="48.23269" lon="-0.6759">
        <ele>152</ele>
        <time>2012-02-29T15:17:55Z</time>
      </trkpt>
      <trkpt lat="48.23285" lon="-0.67594">
        <ele>144</ele>
        <time>2012-02-29T15:17:59Z</time>
      </trkpt>
      <trkpt lat="48.23285" lon="-0.67594">
        <ele>143</ele>
        <time>2012-02-29T15:18:19Z</time>
      </trkpt>
      <trkpt lat="48.23289" lon="-0.67588">
        <ele>143</ele>
        <time>2012-02-29T15:19:57Z</time>
      </trkpt>
      <trkpt lat="48.23295" lon="-0.6758">
        <ele>143</ele>
        <time>2012-02-29T15:20:03Z</time>
      </trkpt>
      <trkpt lat="48.23297" lon="-0.67577">
        <ele>143</ele>
        <time>2012-02-29T15:20:05Z</time>
      </trkpt>
      <trkpt lat="48.23305" lon="-0.67566">
        <ele>142</ele>
        <time>2012-02-29T15:20:09Z</time>
      </trkpt>
      <trkpt lat="48.23308" lon="-0.67558">
        <ele>142</ele>
        <time>2012-02-29T15:20:11Z</time>
      </trkpt>
      <trkpt lat="48.23312" lon="-0.67549">
        <ele>142</ele>
        <time>2012-02-29T15:20:13Z</time>
      </trkpt>
      <trkpt lat="48.23315" lon="-0.6754">
        <ele>142</ele>
        <time>2012-02-29T15:20:15Z</time>
      </trkpt>
      <trkpt lat="48.23324" lon="-0.67523">
        <ele>142</ele>
        <time>2012-02-29T15:20:19Z</time>
      </trkpt>
      <trkpt lat="48.23328" lon="-0.67514">
        <ele>142</ele>
        <time>2012-02-29T15:20:21Z</time>
      </trkpt>
      <trkpt lat="48.23339" lon="-0.67498">
        <ele>142</ele>
        <time>2012-02-29T15:20:25Z</time>
      </trkpt>
      <trkpt lat="48.23348" lon="-0.67483">
        <ele>142</ele>
        <time>2012-02-29T15:20:29Z</time>
      </trkpt>
      <trkpt lat="48.23359" lon="-0.67469">
        <ele>142</ele>
        <time>2012-02-29T15:20:33Z</time>
      </trkpt>
      <trkpt lat="48.23364" lon="-0.67463">
        <ele>141</ele>
        <time>2012-02-29T15:20:35Z</time>
      </trkpt>
      <trkpt lat="48.23376" lon="-0.67451">
        <ele>140</ele>
        <time>2012-02-29T15:20:39Z</time>
      </trkpt>
      <trkpt lat="48.23382" lon="-0.67446">
        <ele>139</ele>
        <time>2012-02-29T15:20:41Z</time>
      </trkpt>
      <trkpt lat="48.23394" lon="-0.67434">
        <ele>140</ele>
        <time>2012-02-29T15:20:45Z</time>
      </trkpt>
      <trkpt lat="48.23401" lon="-0.67428">
        <ele>140</ele>
        <time>2012-02-29T15:20:47Z</time>
      </trkpt>
      <trkpt lat="48.23414" lon="-0.67414">
        <ele>139</ele>
        <time>2012-02-29T15:20:51Z</time>
      </trkpt>
      <trkpt lat="48.23427" lon="-0.674">
        <ele>138</ele>
        <time>2012-02-29T15:20:55Z</time>
      </trkpt>
      <trkpt lat="48.23437" lon="-0.67382">
        <ele>139</ele>
        <time>2012-02-29T15:20:59Z</time>
      </trkpt>
      <trkpt lat="48.23448" lon="-0.67365">
        <ele>138</ele>
        <time>2012-02-29T15:21:03Z</time>
      </trkpt>
      <trkpt lat="48.23463" lon="-0.67351">
        <ele>138</ele>
        <time>2012-02-29T15:21:07Z</time>
      </trkpt>
      <trkpt lat="48.23469" lon="-0.67343">
        <ele>138</ele>
        <time>2012-02-29T15:21:09Z</time>
      </trkpt>
      <trkpt lat="48.23483" lon="-0.67329">
        <ele>136</ele>
        <time>2012-02-29T15:21:13Z</time>
      </trkpt>
      <trkpt lat="48.23497" lon="-0.67315">
        <ele>135</ele>
        <time>2012-02-29T15:21:17Z</time>
      </trkpt>
      <trkpt lat="48.23504" lon="-0.67307">
        <ele>134</ele>
        <time>2012-02-29T15:21:19Z</time>
      </trkpt>
      <trkpt lat="48.23518" lon="-0.67293">
        <ele>132</ele>
        <time>2012-02-29T15:21:23Z</time>
      </trkpt>
      <trkpt lat="48.23532" lon="-0.67279">
        <ele>132</ele>
        <time>2012-02-29T15:21:27Z</time>
      </trkpt>
      <trkpt lat="48.2354" lon="-0.67274">
        <ele>132</ele>
        <time>2012-02-29T15:21:29Z</time>
      </trkpt>
      <trkpt lat="48.23555" lon="-0.67262">
        <ele>132</ele>
        <time>2012-02-29T15:21:33Z</time>
      </trkpt>
      <trkpt lat="48.23572" lon="-0.67255">
        <ele>130</ele>
        <time>2012-02-29T15:21:37Z</time>
      </trkpt>
      <trkpt lat="48.23588" lon="-0.6725">
        <ele>129</ele>
        <time>2012-02-29T15:21:41Z</time>
      </trkpt>
      <trkpt lat="48.23614" lon="-0.67244">
        <ele>129</ele>
        <time>2012-02-29T15:21:47Z</time>
      </trkpt>
      <trkpt lat="48.23631" lon="-0.67237">
        <ele>128</ele>
        <time>2012-02-29T15:21:51Z</time>
      </trkpt>
      <trkpt lat="48.23648" lon="-0.67226">
        <ele>127</ele>
        <time>2012-02-29T15:21:55Z</time>
      </trkpt>
      <trkpt lat="48.23664" lon="-0.67212">
        <ele>127</ele>
        <time>2012-02-29T15:21:59Z</time>
      </trkpt>
      <trkpt lat="48.23679" lon="-0.67197">
        <ele>127</ele>
        <time>2012-02-29T15:22:03Z</time>
      </trkpt>
      <trkpt lat="48.23694" lon="-0.67182">
        <ele>127</ele>
        <time>2012-02-29T15:22:07Z</time>
      </trkpt>
      <trkpt lat="48.23709" lon="-0.67166">
        <ele>127</ele>
        <time>2012-02-29T15:22:11Z</time>
      </trkpt>
      <trkpt lat="48.23724" lon="-0.6715">
        <ele>127</ele>
        <time>2012-02-29T15:22:15Z</time>
      </trkpt>
      <trkpt lat="48.23739" lon="-0.67134">
        <ele>128</ele>
        <time>2012-02-29T15:22:19Z</time>
      </trkpt>
      <trkpt lat="48.23754" lon="-0.67118">
        <ele>128</ele>
        <time>2012-02-29T15:22:23Z</time>
      </trkpt>
      <trkpt lat="48.23769" lon="-0.67101">
        <ele>127</ele>
        <time>2012-02-29T15:22:27Z</time>
      </trkpt>
      <trkpt lat="48.23784" lon="-0.67085">
        <ele>128</ele>
        <time>2012-02-29T15:22:31Z</time>
      </trkpt>
      <trkpt lat="48.23799" lon="-0.67069">
        <ele>128</ele>
        <time>2012-02-29T15:22:35Z</time>
      </trkpt>
      <trkpt lat="48.23814" lon="-0.67053">
        <ele>127</ele>
        <time>2012-02-29T15:22:39Z</time>
      </trkpt>
      <trkpt lat="48.23829" lon="-0.67036">
        <ele>127</ele>
        <time>2012-02-29T15:22:43Z</time>
      </trkpt>
      <trkpt lat="48.23843" lon="-0.67019">
        <ele>126</ele>
        <time>2012-02-29T15:22:47Z</time>
      </trkpt>
      <trkpt lat="48.23856" lon="-0.67002">
        <ele>125</ele>
        <time>2012-02-29T15:22:51Z</time>
      </trkpt>
      <trkpt lat="48.23869" lon="-0.66985">
        <ele>126</ele>
        <time>2012-02-29T15:22:55Z</time>
      </trkpt>
      <trkpt lat="48.23882" lon="-0.66967">
        <ele>125</ele>
        <time>2012-02-29T15:22:59Z</time>
      </trkpt>
      <trkpt lat="48.23894" lon="-0.66948">
        <ele>125</ele>
        <time>2012-02-29T15:23:03Z</time>
      </trkpt>
      <trkpt lat="48.23907" lon="-0.6693">
        <ele>125</ele>
        <time>2012-02-29T15:23:07Z</time>
      </trkpt>
      <trkpt lat="48.23921" lon="-0.66913">
        <ele>125</ele>
        <time>2012-02-29T15:23:11Z</time>
      </trkpt>
      <trkpt lat="48.23934" lon="-0.66895">
        <ele>123</ele>
        <time>2012-02-29T15:23:15Z</time>
      </trkpt>
      <trkpt lat="48.23955" lon="-0.6687">
        <ele>119</ele>
        <time>2012-02-29T15:23:21Z</time>
      </trkpt>
      <trkpt lat="48.23968" lon="-0.66852">
        <ele>119</ele>
        <time>2012-02-29T15:23:25Z</time>
      </trkpt>
      <trkpt lat="48.23974" lon="-0.66842">
        <ele>120</ele>
        <time>2012-02-29T15:23:27Z</time>
      </trkpt>
      <trkpt lat="48.23986" lon="-0.66823">
        <ele>120</ele>
        <time>2012-02-29T15:23:31Z</time>
      </trkpt>
      <trkpt lat="48.23998" lon="-0.66803">
        <ele>121</ele>
        <time>2012-02-29T15:23:35Z</time>
      </trkpt>
      <trkpt lat="48.2401" lon="-0.66785">
        <ele>122</ele>
        <time>2012-02-29T15:23:39Z</time>
      </trkpt>
      <trkpt lat="48.2402" lon="-0.66765">
        <ele>122</ele>
        <time>2012-02-29T15:23:43Z</time>
      </trkpt>
      <trkpt lat="48.24032" lon="-0.66745">
        <ele>124</ele>
        <time>2012-02-29T15:23:49Z</time>
      </trkpt>
      <trkpt lat="48.2404" lon="-0.66732">
        <ele>125</ele>
        <time>2012-02-29T15:23:53Z</time>
      </trkpt>
      <trkpt lat="48.24044" lon="-0.66725">
        <ele>125</ele>
        <time>2012-02-29T15:23:55Z</time>
      </trkpt>
      <trkpt lat="48.24048" lon="-0.66718">
        <ele>125</ele>
        <time>2012-02-29T15:23:57Z</time>
      </trkpt>
      <trkpt lat="48.24058" lon="-0.66704">
        <ele>126</ele>
        <time>2012-02-29T15:24:01Z</time>
      </trkpt>
      <trkpt lat="48.24063" lon="-0.66699">
        <ele>126</ele>
        <time>2012-02-29T15:24:03Z</time>
      </trkpt>
      <trkpt lat="48.2407" lon="-0.66687">
        <ele>126</ele>
        <time>2012-02-29T15:24:07Z</time>
      </trkpt>
      <trkpt lat="48.24074" lon="-0.66679">
        <ele>126</ele>
        <time>2012-02-29T15:24:09Z</time>
      </trkpt>
      <trkpt lat="48.24083" lon="-0.66663">
        <ele>126</ele>
        <time>2012-02-29T15:24:13Z</time>
      </trkpt>
      <trkpt lat="48.24089" lon="-0.66655">
        <ele>127</ele>
        <time>2012-02-29T15:24:15Z</time>
      </trkpt>
      <trkpt lat="48.24098" lon="-0.66635">
        <ele>127</ele>
        <time>2012-02-29T15:24:19Z</time>
      </trkpt>
      <trkpt lat="48.24108" lon="-0.66615">
        <ele>127</ele>
        <time>2012-02-29T15:24:23Z</time>
      </trkpt>
      <trkpt lat="48.24112" lon="-0.66606">
        <ele>127</ele>
        <time>2012-02-29T15:24:25Z</time>
      </trkpt>
      <trkpt lat="48.24122" lon="-0.66587">
        <ele>127</ele>
        <time>2012-02-29T15:24:29Z</time>
      </trkpt>
      <trkpt lat="48.24128" lon="-0.66577">
        <ele>126</ele>
        <time>2012-02-29T15:24:31Z</time>
      </trkpt>
      <trkpt lat="48.24139" lon="-0.66558">
        <ele>126</ele>
        <time>2012-02-29T15:24:35Z</time>
      </trkpt>
      <trkpt lat="48.24151" lon="-0.66541">
        <ele>126</ele>
        <time>2012-02-29T15:24:39Z</time>
      </trkpt>
      <trkpt lat="48.24158" lon="-0.66532">
        <ele>126</ele>
        <time>2012-02-29T15:24:41Z</time>
      </trkpt>
      <trkpt lat="48.24171" lon="-0.66515">
        <ele>125</ele>
        <time>2012-02-29T15:24:45Z</time>
      </trkpt>
      <trkpt lat="48.24183" lon="-0.66496">
        <ele>125</ele>
        <time>2012-02-29T15:24:49Z</time>
      </trkpt>
      <trkpt lat="48.24189" lon="-0.66486">
        <ele>125</ele>
        <time>2012-02-29T15:24:51Z</time>
      </trkpt>
      <trkpt lat="48.24201" lon="-0.66464">
        <ele>126</ele>
        <time>2012-02-29T15:24:55Z</time>
      </trkpt>
      <trkpt lat="48.24212" lon="-0.66442">
        <ele>126</ele>
        <time>2012-02-29T15:24:59Z</time>
      </trkpt>
      <trkpt lat="48.24221" lon="-0.6642">
        <ele>126</ele>
        <time>2012-02-29T15:25:03Z</time>
      </trkpt>
      <trkpt lat="48.2423" lon="-0.66396">
        <ele>126</ele>
        <time>2012-02-29T15:25:07Z</time>
      </trkpt>
      <trkpt lat="48.24238" lon="-0.66372">
        <ele>126</ele>
        <time>2012-02-29T15:25:11Z</time>
      </trkpt>
      <trkpt lat="48.24248" lon="-0.66349">
        <ele>125</ele>
        <time>2012-02-29T15:25:15Z</time>
      </trkpt>
      <trkpt lat="48.24252" lon="-0.66336">
        <ele>125</ele>
        <time>2012-02-29T15:25:17Z</time>
      </trkpt>
      <trkpt lat="48.24261" lon="-0.66312">
        <ele>125</ele>
        <time>2012-02-29T15:25:21Z</time>
      </trkpt>
      <trkpt lat="48.24269" lon="-0.6629">
        <ele>125</ele>
        <time>2012-02-29T15:25:25Z</time>
      </trkpt>
      <trkpt lat="48.24278" lon="-0.66269">
        <ele>125</ele>
        <time>2012-02-29T15:25:29Z</time>
      </trkpt>
      <trkpt lat="48.24283" lon="-0.66258">
        <ele>125</ele>
        <time>2012-02-29T15:25:31Z</time>
      </trkpt>
      <trkpt lat="48.24293" lon="-0.66239">
        <ele>125</ele>
        <time>2012-02-29T15:25:35Z</time>
      </trkpt>
      <trkpt lat="48.24304" lon="-0.66221">
        <ele>125</ele>
        <time>2012-02-29T15:25:39Z</time>
      </trkpt>
      <trkpt lat="48.24315" lon="-0.66203">
        <ele>125</ele>
        <time>2012-02-29T15:25:43Z</time>
      </trkpt>
      <trkpt lat="48.24327" lon="-0.66184">
        <ele>124</ele>
        <time>2012-02-29T15:25:47Z</time>
      </trkpt>
      <trkpt lat="48.24333" lon="-0.66174">
        <ele>125</ele>
        <time>2012-02-29T15:25:49Z</time>
      </trkpt>
      <trkpt lat="48.24344" lon="-0.66155">
        <ele>125</ele>
        <time>2012-02-29T15:25:53Z</time>
      </trkpt>
      <trkpt lat="48.24356" lon="-0.66135">
        <ele>125</ele>
        <time>2012-02-29T15:25:57Z</time>
      </trkpt>
      <trkpt lat="48.24368" lon="-0.66115">
        <ele>125</ele>
        <time>2012-02-29T15:26:01Z</time>
      </trkpt>
      <trkpt lat="48.24381" lon="-0.66094">
        <ele>125</ele>
        <time>2012-02-29T15:26:05Z</time>
      </trkpt>
      <trkpt lat="48.24392" lon="-0.66073">
        <ele>125</ele>
        <time>2012-02-29T15:26:09Z</time>
      </trkpt>
      <trkpt lat="48.24403" lon="-0.6605">
        <ele>125</ele>
        <time>2012-02-29T15:26:13Z</time>
      </trkpt>
      <trkpt lat="48.24411" lon="-0.66026">
        <ele>125</ele>
        <time>2012-02-29T15:26:17Z</time>
      </trkpt>
      <trkpt lat="48.24419" lon="-0.66002">
        <ele>125</ele>
        <time>2012-02-29T15:26:21Z</time>
      </trkpt>
      <trkpt lat="48.24427" lon="-0.65976">
        <ele>125</ele>
        <time>2012-02-29T15:26:25Z</time>
      </trkpt>
      <trkpt lat="48.24435" lon="-0.65951">
        <ele>126</ele>
        <time>2012-02-29T15:26:29Z</time>
      </trkpt>
      <trkpt lat="48.24443" lon="-0.65926">
        <ele>126</ele>
        <time>2012-02-29T15:26:33Z</time>
      </trkpt>
      <trkpt lat="48.24451" lon="-0.65901">
        <ele>126</ele>
        <time>2012-02-29T15:26:37Z</time>
      </trkpt>
      <trkpt lat="48.24459" lon="-0.65874">
        <ele>127</ele>
        <time>2012-02-29T15:26:41Z</time>
      </trkpt>
      <trkpt lat="48.24468" lon="-0.65849">
        <ele>127</ele>
        <time>2012-02-29T15:26:45Z</time>
      </trkpt>
      <trkpt lat="48.24476" lon="-0.65823">
        <ele>128</ele>
        <time>2012-02-29T15:26:49Z</time>
      </trkpt>
      <trkpt lat="48.24482" lon="-0.65797">
        <ele>128</ele>
        <time>2012-02-29T15:26:53Z</time>
      </trkpt>
      <trkpt lat="48.24485" lon="-0.6577">
        <ele>128</ele>
        <time>2012-02-29T15:26:57Z</time>
      </trkpt>
      <trkpt lat="48.24483" lon="-0.65744">
        <ele>128</ele>
        <time>2012-02-29T15:27:01Z</time>
      </trkpt>
      <trkpt lat="48.24478" lon="-0.6572">
        <ele>129</ele>
        <time>2012-02-29T15:27:05Z</time>
      </trkpt>
      <trkpt lat="48.24475" lon="-0.65706">
        <ele>129</ele>
        <time>2012-02-29T15:27:07Z</time>
      </trkpt>
      <trkpt lat="48.24467" lon="-0.65681">
        <ele>130</ele>
        <time>2012-02-29T15:27:11Z</time>
      </trkpt>
      <trkpt lat="48.24458" lon="-0.65657">
        <ele>130</ele>
        <time>2012-02-29T15:27:15Z</time>
      </trkpt>
      <trkpt lat="48.24449" lon="-0.6564">
        <ele>129</ele>
        <time>2012-02-29T15:27:19Z</time>
      </trkpt>
      <trkpt lat="48.24432" lon="-0.65621">
        <ele>129</ele>
        <time>2012-02-29T15:27:25Z</time>
      </trkpt>
      <trkpt lat="48.24421" lon="-0.65613">
        <ele>130</ele>
        <time>2012-02-29T15:27:29Z</time>
      </trkpt>
      <trkpt lat="48.24415" lon="-0.65611">
        <ele>128</ele>
        <time>2012-02-29T15:27:31Z</time>
      </trkpt>
      <trkpt lat="48.24403" lon="-0.65599">
        <ele>130</ele>
        <time>2012-02-29T15:27:35Z</time>
      </trkpt>
      <trkpt lat="48.24398" lon="-0.6559">
        <ele>130</ele>
        <time>2012-02-29T15:27:37Z</time>
      </trkpt>
      <trkpt lat="48.24392" lon="-0.65569">
        <ele>130</ele>
        <time>2012-02-29T15:27:41Z</time>
      </trkpt>
      <trkpt lat="48.24384" lon="-0.65548">
        <ele>128</ele>
        <time>2012-02-29T15:27:45Z</time>
      </trkpt>
      <trkpt lat="48.2438" lon="-0.65536">
        <ele>128</ele>
        <time>2012-02-29T15:27:47Z</time>
      </trkpt>
      <trkpt lat="48.24386" lon="-0.65506">
        <ele>125</ele>
        <time>2012-02-29T15:27:53Z</time>
      </trkpt>
      <trkpt lat="48.2438" lon="-0.65478">
        <ele>125</ele>
        <time>2012-02-29T15:27:59Z</time>
      </trkpt>
      <trkpt lat="48.24381" lon="-0.6541">
        <ele>132</ele>
        <time>2012-02-29T15:28:11Z</time>
      </trkpt>
      <trkpt lat="48.24391" lon="-0.65353">
        <ele>138</ele>
        <time>2012-02-29T15:28:19Z</time>
      </trkpt>
      <trkpt lat="48.24402" lon="-0.65312">
        <ele>141</ele>
        <time>2012-02-29T15:28:25Z</time>
      </trkpt>
      <trkpt lat="48.24408" lon="-0.65264">
        <ele>145</ele>
        <time>2012-02-29T15:28:33Z</time>
      </trkpt>
      <trkpt lat="48.24411" lon="-0.65239">
        <ele>148</ele>
        <time>2012-02-29T15:28:37Z</time>
      </trkpt>
      <trkpt lat="48.24429" lon="-0.65194">
        <ele>153</ele>
        <time>2012-02-29T15:28:43Z</time>
      </trkpt>
      <trkpt lat="48.24446" lon="-0.65172">
        <ele>154</ele>
        <time>2012-02-29T15:28:49Z</time>
      </trkpt>
      <trkpt lat="48.24458" lon="-0.65165">
        <ele>154</ele>
        <time>2012-02-29T15:28:53Z</time>
      </trkpt>
      <trkpt lat="48.24468" lon="-0.65158">
        <ele>153</ele>
        <time>2012-02-29T15:28:57Z</time>
      </trkpt>
      <trkpt lat="48.24473" lon="-0.65154">
        <ele>152</ele>
        <time>2012-02-29T15:28:59Z</time>
      </trkpt>
      <trkpt lat="48.24486" lon="-0.65146">
        <ele>150</ele>
        <time>2012-02-29T15:29:03Z</time>
      </trkpt>
      <trkpt lat="48.24492" lon="-0.65142">
        <ele>148</ele>
        <time>2012-02-29T15:29:05Z</time>
      </trkpt>
      <trkpt lat="48.24499" lon="-0.65138">
        <ele>147</ele>
        <time>2012-02-29T15:29:07Z</time>
      </trkpt>
      <trkpt lat="48.24513" lon="-0.65132">
        <ele>145</ele>
        <time>2012-02-29T15:29:11Z</time>
      </trkpt>
      <trkpt lat="48.2452" lon="-0.65128">
        <ele>144</ele>
        <time>2012-02-29T15:29:13Z</time>
      </trkpt>
      <trkpt lat="48.24536" lon="-0.65124">
        <ele>141</ele>
        <time>2012-02-29T15:29:17Z</time>
      </trkpt>
      <trkpt lat="48.24551" lon="-0.65121">
        <ele>138</ele>
        <time>2012-02-29T15:29:21Z</time>
      </trkpt>
      <trkpt lat="48.24568" lon="-0.65121">
        <ele>136</ele>
        <time>2012-02-29T15:29:25Z</time>
      </trkpt>
      <trkpt lat="48.24585" lon="-0.6512">
        <ele>135</ele>
        <time>2012-02-29T15:29:29Z</time>
      </trkpt>
      <trkpt lat="48.24594" lon="-0.6512">
        <ele>134</ele>
        <time>2012-02-29T15:29:31Z</time>
      </trkpt>
      <trkpt lat="48.24612" lon="-0.6512">
        <ele>133</ele>
        <time>2012-02-29T15:29:35Z</time>
      </trkpt>
      <trkpt lat="48.24629" lon="-0.6512">
        <ele>132</ele>
        <time>2012-02-29T15:29:39Z</time>
      </trkpt>
      <trkpt lat="48.24646" lon="-0.65121">
        <ele>130</ele>
        <time>2012-02-29T15:29:43Z</time>
      </trkpt>
      <trkpt lat="48.24664" lon="-0.65121">
        <ele>129</ele>
        <time>2012-02-29T15:29:47Z</time>
      </trkpt>
      <trkpt lat="48.24683" lon="-0.65122">
        <ele>129</ele>
        <time>2012-02-29T15:29:51Z</time>
      </trkpt>
      <trkpt lat="48.24701" lon="-0.65123">
        <ele>128</ele>
        <time>2012-02-29T15:29:55Z</time>
      </trkpt>
      <trkpt lat="48.2472" lon="-0.65122">
        <ele>128</ele>
        <time>2012-02-29T15:29:59Z</time>
      </trkpt>
      <trkpt lat="48.2474" lon="-0.65122">
        <ele>128</ele>
        <time>2012-02-29T15:30:03Z</time>
      </trkpt>
      <trkpt lat="48.24759" lon="-0.65121">
        <ele>128</ele>
        <time>2012-02-29T15:30:07Z</time>
      </trkpt>
      <trkpt lat="48.24778" lon="-0.65119">
        <ele>129</ele>
        <time>2012-02-29T15:30:11Z</time>
      </trkpt>
      <trkpt lat="48.24794" lon="-0.65115">
        <ele>131</ele>
        <time>2012-02-29T15:30:15Z</time>
      </trkpt>
      <trkpt lat="48.24812" lon="-0.65114">
        <ele>129</ele>
        <time>2012-02-29T15:30:19Z</time>
      </trkpt>
      <trkpt lat="48.24822" lon="-0.65114">
        <ele>128</ele>
        <time>2012-02-29T15:30:21Z</time>
      </trkpt>
      <trkpt lat="48.24841" lon="-0.65112">
        <ele>127</ele>
        <time>2012-02-29T15:30:25Z</time>
      </trkpt>
      <trkpt lat="48.24859" lon="-0.6511">
        <ele>128</ele>
        <time>2012-02-29T15:30:29Z</time>
      </trkpt>
      <trkpt lat="48.24878" lon="-0.65108">
        <ele>128</ele>
        <time>2012-02-29T15:30:33Z</time>
      </trkpt>
      <trkpt lat="48.24898" lon="-0.65106">
        <ele>127</ele>
        <time>2012-02-29T15:30:37Z</time>
      </trkpt>
      <trkpt lat="48.24915" lon="-0.65104">
        <ele>129</ele>
        <time>2012-02-29T15:30:41Z</time>
      </trkpt>
      <trkpt lat="48.24931" lon="-0.65102">
        <ele>130</ele>
        <time>2012-02-29T15:30:45Z</time>
      </trkpt>
      <trkpt lat="48.2494" lon="-0.65102">
        <ele>130</ele>
        <time>2012-02-29T15:30:47Z</time>
      </trkpt>
      <trkpt lat="48.24956" lon="-0.651">
        <ele>131</ele>
        <time>2012-02-29T15:30:51Z</time>
      </trkpt>
      <trkpt lat="48.24972" lon="-0.65099">
        <ele>132</ele>
        <time>2012-02-29T15:30:55Z</time>
      </trkpt>
      <trkpt lat="48.24989" lon="-0.65101">
        <ele>129</ele>
        <time>2012-02-29T15:30:59Z</time>
      </trkpt>
      <trkpt lat="48.25001" lon="-0.651">
        <ele>127</ele>
        <time>2012-02-29T15:31:03Z</time>
      </trkpt>
      <trkpt lat="48.25006" lon="-0.65099">
        <ele>127</ele>
        <time>2012-02-29T15:31:05Z</time>
      </trkpt>
      <trkpt lat="48.25017" lon="-0.65098">
        <ele>128</ele>
        <time>2012-02-29T15:31:09Z</time>
      </trkpt>
      <trkpt lat="48.25023" lon="-0.65099">
        <ele>127</ele>
        <time>2012-02-29T15:31:11Z</time>
      </trkpt>
      <trkpt lat="48.25036" lon="-0.65099">
        <ele>133</ele>
        <time>2012-02-29T15:31:17Z</time>
      </trkpt>
      <trkpt lat="48.25043" lon="-0.651">
        <ele>134</ele>
        <time>2012-02-29T15:31:19Z</time>
      </trkpt>
      <trkpt lat="48.25054" lon="-0.65104">
        <ele>132</ele>
        <time>2012-02-29T15:31:23Z</time>
      </trkpt>
      <trkpt lat="48.2506" lon="-0.65104">
        <ele>132</ele>
        <time>2012-02-29T15:31:25Z</time>
      </trkpt>
      <trkpt lat="48.25065" lon="-0.65105">
        <ele>132</ele>
        <time>2012-02-29T15:31:27Z</time>
      </trkpt>
      <trkpt lat="48.25079" lon="-0.65104">
        <ele>132</ele>
        <time>2012-02-29T15:31:31Z</time>
      </trkpt>
      <trkpt lat="48.25088" lon="-0.65103">
        <ele>131</ele>
        <time>2012-02-29T15:31:33Z</time>
      </trkpt>
      <trkpt lat="48.25112" lon="-0.651">
        <ele>129</ele>
        <time>2012-02-29T15:31:39Z</time>
      </trkpt>
      <trkpt lat="48.25128" lon="-0.65098">
        <ele>132</ele>
        <time>2012-02-29T15:31:43Z</time>
      </trkpt>
      <trkpt lat="48.25143" lon="-0.65098">
        <ele>134</ele>
        <time>2012-02-29T15:31:47Z</time>
      </trkpt>
      <trkpt lat="48.25158" lon="-0.65097">
        <ele>136</ele>
        <time>2012-02-29T15:31:51Z</time>
      </trkpt>
      <trkpt lat="48.25165" lon="-0.65099">
        <ele>135</ele>
        <time>2012-02-29T15:31:53Z</time>
      </trkpt>
      <trkpt lat="48.25176" lon="-0.65105">
        <ele>135</ele>
        <time>2012-02-29T15:31:57Z</time>
      </trkpt>
      <trkpt lat="48.25182" lon="-0.65106">
        <ele>135</ele>
        <time>2012-02-29T15:31:59Z</time>
      </trkpt>
      <trkpt lat="48.25204" lon="-0.65105">
        <ele>137</ele>
        <time>2012-02-29T15:32:05Z</time>
      </trkpt>
      <trkpt lat="48.25222" lon="-0.65108">
        <ele>137</ele>
        <time>2012-02-29T15:32:09Z</time>
      </trkpt>
      <trkpt lat="48.25241" lon="-0.6511">
        <ele>136</ele>
        <time>2012-02-29T15:32:13Z</time>
      </trkpt>
      <trkpt lat="48.25259" lon="-0.65114">
        <ele>136</ele>
        <time>2012-02-29T15:32:17Z</time>
      </trkpt>
      <trkpt lat="48.25276" lon="-0.65119">
        <ele>135</ele>
        <time>2012-02-29T15:32:21Z</time>
      </trkpt>
      <trkpt lat="48.25293" lon="-0.65123">
        <ele>135</ele>
        <time>2012-02-29T15:32:25Z</time>
      </trkpt>
      <trkpt lat="48.25312" lon="-0.65126">
        <ele>136</ele>
        <time>2012-02-29T15:32:29Z</time>
      </trkpt>
      <trkpt lat="48.25321" lon="-0.65127">
        <ele>136</ele>
        <time>2012-02-29T15:32:31Z</time>
      </trkpt>
      <trkpt lat="48.25349" lon="-0.65125">
        <ele>134</ele>
        <time>2012-02-29T15:32:37Z</time>
      </trkpt>
      <trkpt lat="48.25366" lon="-0.65122">
        <ele>134</ele>
        <time>2012-02-29T15:32:41Z</time>
      </trkpt>
      <trkpt lat="48.25392" lon="-0.65123">
        <ele>135</ele>
        <time>2012-02-29T15:32:47Z</time>
      </trkpt>
      <trkpt lat="48.25409" lon="-0.65129">
        <ele>138</ele>
        <time>2012-02-29T15:32:51Z</time>
      </trkpt>
      <trkpt lat="48.25429" lon="-0.65132">
        <ele>135</ele>
        <time>2012-02-29T15:32:55Z</time>
      </trkpt>
      <trkpt lat="48.25465" lon="-0.65143">
        <ele>139</ele>
        <time>2012-02-29T15:33:05Z</time>
      </trkpt>
      <trkpt lat="48.25482" lon="-0.65151">
        <ele>138</ele>
        <time>2012-02-29T15:33:09Z</time>
      </trkpt>
      <trkpt lat="48.2549" lon="-0.65157">
        <ele>139</ele>
        <time>2012-02-29T15:33:11Z</time>
      </trkpt>
      <trkpt lat="48.25506" lon="-0.6517">
        <ele>139</ele>
        <time>2012-02-29T15:33:15Z</time>
      </trkpt>
      <trkpt lat="48.25526" lon="-0.65189">
        <ele>138</ele>
        <time>2012-02-29T15:33:21Z</time>
      </trkpt>
      <trkpt lat="48.25547" lon="-0.65207">
        <ele>141</ele>
        <time>2012-02-29T15:33:27Z</time>
      </trkpt>
      <trkpt lat="48.25564" lon="-0.65219">
        <ele>138</ele>
        <time>2012-02-29T15:33:31Z</time>
      </trkpt>
      <trkpt lat="48.25583" lon="-0.65228">
        <ele>137</ele>
        <time>2012-02-29T15:33:35Z</time>
      </trkpt>
      <trkpt lat="48.256" lon="-0.65235">
        <ele>137</ele>
        <time>2012-02-29T15:33:39Z</time>
      </trkpt>
      <trkpt lat="48.25618" lon="-0.65239">
        <ele>136</ele>
        <time>2012-02-29T15:33:43Z</time>
      </trkpt>
      <trkpt lat="48.25637" lon="-0.65243">
        <ele>134</ele>
        <time>2012-02-29T15:33:47Z</time>
      </trkpt>
      <trkpt lat="48.25655" lon="-0.65246">
        <ele>132</ele>
        <time>2012-02-29T15:33:51Z</time>
      </trkpt>
      <trkpt lat="48.25674" lon="-0.65247">
        <ele>131</ele>
        <time>2012-02-29T15:33:55Z</time>
      </trkpt>
      <trkpt lat="48.25692" lon="-0.65247">
        <ele>130</ele>
        <time>2012-02-29T15:33:59Z</time>
      </trkpt>
      <trkpt lat="48.2571" lon="-0.65246">
        <ele>130</ele>
        <time>2012-02-29T15:34:03Z</time>
      </trkpt>
      <trkpt lat="48.25728" lon="-0.65246">
        <ele>130</ele>
        <time>2012-02-29T15:34:07Z</time>
      </trkpt>
      <trkpt lat="48.25746" lon="-0.65247">
        <ele>129</ele>
        <time>2012-02-29T15:34:11Z</time>
      </trkpt>
      <trkpt lat="48.25764" lon="-0.65248">
        <ele>129</ele>
        <time>2012-02-29T15:34:15Z</time>
      </trkpt>
      <trkpt lat="48.25781" lon="-0.6525">
        <ele>128</ele>
        <time>2012-02-29T15:34:19Z</time>
      </trkpt>
      <trkpt lat="48.25798" lon="-0.65254">
        <ele>127</ele>
        <time>2012-02-29T15:34:23Z</time>
      </trkpt>
      <trkpt lat="48.25816" lon="-0.65258">
        <ele>127</ele>
        <time>2012-02-29T15:34:27Z</time>
      </trkpt>
      <trkpt lat="48.25825" lon="-0.65259">
        <ele>127</ele>
        <time>2012-02-29T15:34:29Z</time>
      </trkpt>
      <trkpt lat="48.25843" lon="-0.65262">
        <ele>127</ele>
        <time>2012-02-29T15:34:33Z</time>
      </trkpt>
      <trkpt lat="48.25861" lon="-0.65265">
        <ele>127</ele>
        <time>2012-02-29T15:34:37Z</time>
      </trkpt>
      <trkpt lat="48.2588" lon="-0.65267">
        <ele>127</ele>
        <time>2012-02-29T15:34:43Z</time>
      </trkpt>
      <trkpt lat="48.25898" lon="-0.6527">
        <ele>128</ele>
        <time>2012-02-29T15:34:47Z</time>
      </trkpt>
      <trkpt lat="48.25907" lon="-0.6527">
        <ele>128</ele>
        <time>2012-02-29T15:34:49Z</time>
      </trkpt>
      <trkpt lat="48.25924" lon="-0.65271">
        <ele>128</ele>
        <time>2012-02-29T15:34:53Z</time>
      </trkpt>
      <trkpt lat="48.25943" lon="-0.6527">
        <ele>128</ele>
        <time>2012-02-29T15:34:57Z</time>
      </trkpt>
      <trkpt lat="48.25961" lon="-0.65268">
        <ele>128</ele>
        <time>2012-02-29T15:35:01Z</time>
      </trkpt>
      <trkpt lat="48.2598" lon="-0.65265">
        <ele>128</ele>
        <time>2012-02-29T15:35:05Z</time>
      </trkpt>
      <trkpt lat="48.25998" lon="-0.65263">
        <ele>128</ele>
        <time>2012-02-29T15:35:09Z</time>
      </trkpt>
      <trkpt lat="48.26016" lon="-0.65259">
        <ele>128</ele>
        <time>2012-02-29T15:35:13Z</time>
      </trkpt>
      <trkpt lat="48.26034" lon="-0.65253">
        <ele>128</ele>
        <time>2012-02-29T15:35:17Z</time>
      </trkpt>
      <trkpt lat="48.26052" lon="-0.65248">
        <ele>128</ele>
        <time>2012-02-29T15:35:21Z</time>
      </trkpt>
      <trkpt lat="48.2607" lon="-0.65243">
        <ele>128</ele>
        <time>2012-02-29T15:35:25Z</time>
      </trkpt>
      <trkpt lat="48.26089" lon="-0.65237">
        <ele>127</ele>
        <time>2012-02-29T15:35:29Z</time>
      </trkpt>
      <trkpt lat="48.26108" lon="-0.65231">
        <ele>127</ele>
        <time>2012-02-29T15:35:33Z</time>
      </trkpt>
      <trkpt lat="48.26126" lon="-0.65226">
        <ele>127</ele>
        <time>2012-02-29T15:35:37Z</time>
      </trkpt>
      <trkpt lat="48.26145" lon="-0.65221">
        <ele>126</ele>
        <time>2012-02-29T15:35:41Z</time>
      </trkpt>
      <trkpt lat="48.26162" lon="-0.65216">
        <ele>127</ele>
        <time>2012-02-29T15:35:45Z</time>
      </trkpt>
      <trkpt lat="48.26177" lon="-0.65212">
        <ele>127</ele>
        <time>2012-02-29T15:35:49Z</time>
      </trkpt>
      <trkpt lat="48.26191" lon="-0.6521">
        <ele>127</ele>
        <time>2012-02-29T15:35:53Z</time>
      </trkpt>
      <trkpt lat="48.26199" lon="-0.65208">
        <ele>127</ele>
        <time>2012-02-29T15:35:55Z</time>
      </trkpt>
      <trkpt lat="48.26214" lon="-0.65203">
        <ele>127</ele>
        <time>2012-02-29T15:35:59Z</time>
      </trkpt>
      <trkpt lat="48.2623" lon="-0.65198">
        <ele>126</ele>
        <time>2012-02-29T15:36:03Z</time>
      </trkpt>
      <trkpt lat="48.26247" lon="-0.65192">
        <ele>126</ele>
        <time>2012-02-29T15:36:07Z</time>
      </trkpt>
      <trkpt lat="48.26264" lon="-0.65185">
        <ele>125</ele>
        <time>2012-02-29T15:36:11Z</time>
      </trkpt>
      <trkpt lat="48.26273" lon="-0.65181">
        <ele>126</ele>
        <time>2012-02-29T15:36:13Z</time>
      </trkpt>
      <trkpt lat="48.2629" lon="-0.65172">
        <ele>126</ele>
        <time>2012-02-29T15:36:17Z</time>
      </trkpt>
      <trkpt lat="48.26307" lon="-0.65163">
        <ele>126</ele>
        <time>2012-02-29T15:36:21Z</time>
      </trkpt>
      <trkpt lat="48.26324" lon="-0.65154">
        <ele>126</ele>
        <time>2012-02-29T15:36:25Z</time>
      </trkpt>
      <trkpt lat="48.26341" lon="-0.65144">
        <ele>127</ele>
        <time>2012-02-29T15:36:29Z</time>
      </trkpt>
      <trkpt lat="48.26359" lon="-0.65137">
        <ele>125</ele>
        <time>2012-02-29T15:36:33Z</time>
      </trkpt>
      <trkpt lat="48.26377" lon="-0.65127">
        <ele>124</ele>
        <time>2012-02-29T15:36:37Z</time>
      </trkpt>
      <trkpt lat="48.26395" lon="-0.65117">
        <ele>124</ele>
        <time>2012-02-29T15:36:41Z</time>
      </trkpt>
      <trkpt lat="48.26413" lon="-0.65107">
        <ele>125</ele>
        <time>2012-02-29T15:36:45Z</time>
      </trkpt>
      <trkpt lat="48.26431" lon="-0.65097">
        <ele>125</ele>
        <time>2012-02-29T15:36:49Z</time>
      </trkpt>
      <trkpt lat="48.26449" lon="-0.65086">
        <ele>126</ele>
        <time>2012-02-29T15:36:53Z</time>
      </trkpt>
      <trkpt lat="48.26467" lon="-0.65077">
        <ele>126</ele>
        <time>2012-02-29T15:36:57Z</time>
      </trkpt>
      <trkpt lat="48.26486" lon="-0.65067">
        <ele>125</ele>
        <time>2012-02-29T15:37:01Z</time>
      </trkpt>
      <trkpt lat="48.26504" lon="-0.65058">
        <ele>126</ele>
        <time>2012-02-29T15:37:05Z</time>
      </trkpt>
      <trkpt lat="48.26522" lon="-0.65048">
        <ele>126</ele>
        <time>2012-02-29T15:37:09Z</time>
      </trkpt>
      <trkpt lat="48.2654" lon="-0.65038">
        <ele>126</ele>
        <time>2012-02-29T15:37:13Z</time>
      </trkpt>
      <trkpt lat="48.26558" lon="-0.65027">
        <ele>127</ele>
        <time>2012-02-29T15:37:17Z</time>
      </trkpt>
      <trkpt lat="48.26577" lon="-0.65017">
        <ele>127</ele>
        <time>2012-02-29T15:37:21Z</time>
      </trkpt>
      <trkpt lat="48.26594" lon="-0.65007">
        <ele>127</ele>
        <time>2012-02-29T15:37:25Z</time>
      </trkpt>
      <trkpt lat="48.26611" lon="-0.64998">
        <ele>128</ele>
        <time>2012-02-29T15:37:29Z</time>
      </trkpt>
      <trkpt lat="48.26629" lon="-0.64988">
        <ele>128</ele>
        <time>2012-02-29T15:37:33Z</time>
      </trkpt>
      <trkpt lat="48.26647" lon="-0.6498">
        <ele>128</ele>
        <time>2012-02-29T15:37:37Z</time>
      </trkpt>
      <trkpt lat="48.26666" lon="-0.64973">
        <ele>129</ele>
        <time>2012-02-29T15:37:41Z</time>
      </trkpt>
      <trkpt lat="48.26684" lon="-0.64965">
        <ele>129</ele>
        <time>2012-02-29T15:37:45Z</time>
      </trkpt>
      <trkpt lat="48.26702" lon="-0.64954">
        <ele>129</ele>
        <time>2012-02-29T15:37:49Z</time>
      </trkpt>
      <trkpt lat="48.26718" lon="-0.6494">
        <ele>129</ele>
        <time>2012-02-29T15:37:53Z</time>
      </trkpt>
      <trkpt lat="48.26731" lon="-0.64923">
        <ele>129</ele>
        <time>2012-02-29T15:37:57Z</time>
      </trkpt>
      <trkpt lat="48.26742" lon="-0.64902">
        <ele>131</ele>
        <time>2012-02-29T15:38:01Z</time>
      </trkpt>
      <trkpt lat="48.26747" lon="-0.6489">
        <ele>131</ele>
        <time>2012-02-29T15:38:03Z</time>
      </trkpt>
      <trkpt lat="48.26754" lon="-0.64864">
        <ele>131</ele>
        <time>2012-02-29T15:38:07Z</time>
      </trkpt>
      <trkpt lat="48.2676" lon="-0.64837">
        <ele>132</ele>
        <time>2012-02-29T15:38:11Z</time>
      </trkpt>
      <trkpt lat="48.26765" lon="-0.6481">
        <ele>132</ele>
        <time>2012-02-29T15:38:15Z</time>
      </trkpt>
      <trkpt lat="48.26771" lon="-0.64784">
        <ele>132</ele>
        <time>2012-02-29T15:38:19Z</time>
      </trkpt>
      <trkpt lat="48.26777" lon="-0.64757">
        <ele>132</ele>
        <time>2012-02-29T15:38:23Z</time>
      </trkpt>
      <trkpt lat="48.26783" lon="-0.6473">
        <ele>131</ele>
        <time>2012-02-29T15:38:27Z</time>
      </trkpt>
      <trkpt lat="48.26788" lon="-0.64692">
        <ele>130</ele>
        <time>2012-02-29T15:38:33Z</time>
      </trkpt>
      <trkpt lat="48.2679" lon="-0.64663">
        <ele>131</ele>
        <time>2012-02-29T15:38:37Z</time>
      </trkpt>
      <trkpt lat="48.26797" lon="-0.64638">
        <ele>131</ele>
        <time>2012-02-29T15:38:41Z</time>
      </trkpt>
      <trkpt lat="48.26799" lon="-0.64609">
        <ele>131</ele>
        <time>2012-02-29T15:38:45Z</time>
      </trkpt>
      <trkpt lat="48.26803" lon="-0.64581">
        <ele>131</ele>
        <time>2012-02-29T15:38:49Z</time>
      </trkpt>
      <trkpt lat="48.2681" lon="-0.64541">
        <ele>129</ele>
        <time>2012-02-29T15:38:55Z</time>
      </trkpt>
      <trkpt lat="48.26814" lon="-0.64512">
        <ele>127</ele>
        <time>2012-02-29T15:38:59Z</time>
      </trkpt>
      <trkpt lat="48.26824" lon="-0.64487">
        <ele>129</ele>
        <time>2012-02-29T15:39:03Z</time>
      </trkpt>
      <trkpt lat="48.26832" lon="-0.64462">
        <ele>130</ele>
        <time>2012-02-29T15:39:07Z</time>
      </trkpt>
      <trkpt lat="48.26839" lon="-0.64422">
        <ele>131</ele>
        <time>2012-02-29T15:39:13Z</time>
      </trkpt>
      <trkpt lat="48.26849" lon="-0.64387">
        <ele>131</ele>
        <time>2012-02-29T15:39:19Z</time>
      </trkpt>
      <trkpt lat="48.26861" lon="-0.64368">
        <ele>132</ele>
        <time>2012-02-29T15:39:23Z</time>
      </trkpt>
      <trkpt lat="48.26904" lon="-0.64337">
        <ele>133</ele>
        <time>2012-02-29T15:39:33Z</time>
      </trkpt>
      <trkpt lat="48.26913" lon="-0.64318">
        <ele>132</ele>
        <time>2012-02-29T15:39:37Z</time>
      </trkpt>
      <trkpt lat="48.26916" lon="-0.6426">
        <ele>136</ele>
        <time>2012-02-29T15:39:45Z</time>
      </trkpt>
      <trkpt lat="48.26913" lon="-0.64216">
        <ele>139</ele>
        <time>2012-02-29T15:39:51Z</time>
      </trkpt>
      <trkpt lat="48.2691" lon="-0.64187">
        <ele>141</ele>
        <time>2012-02-29T15:39:55Z</time>
      </trkpt>
      <trkpt lat="48.26921" lon="-0.64141">
        <ele>143</ele>
        <time>2012-02-29T15:40:03Z</time>
      </trkpt>
      <trkpt lat="48.26922" lon="-0.64117">
        <ele>142</ele>
        <time>2012-02-29T15:40:07Z</time>
      </trkpt>
      <trkpt lat="48.26928" lon="-0.64065">
        <ele>145</ele>
        <time>2012-02-29T15:40:15Z</time>
      </trkpt>
      <trkpt lat="48.26941" lon="-0.64033">
        <ele>143</ele>
        <time>2012-02-29T15:40:21Z</time>
      </trkpt>
      <trkpt lat="48.26961" lon="-0.63976">
        <ele>141</ele>
        <time>2012-02-29T15:40:31Z</time>
      </trkpt>
      <trkpt lat="48.26975" lon="-0.63924">
        <ele>141</ele>
        <time>2012-02-29T15:40:41Z</time>
      </trkpt>
      <trkpt lat="48.26978" lon="-0.6389">
        <ele>141</ele>
        <time>2012-02-29T15:40:47Z</time>
      </trkpt>
      <trkpt lat="48.27002" lon="-0.63828">
        <ele>143</ele>
        <time>2012-02-29T15:40:59Z</time>
      </trkpt>
      <trkpt lat="48.27017" lon="-0.63779">
        <ele>142</ele>
        <time>2012-02-29T15:41:07Z</time>
      </trkpt>
      <trkpt lat="48.27037" lon="-0.63738">
        <ele>137</ele>
        <time>2012-02-29T15:41:15Z</time>
      </trkpt>
      <trkpt lat="48.27038" lon="-0.63691">
        <ele>136</ele>
        <time>2012-02-29T15:41:21Z</time>
      </trkpt>
      <trkpt lat="48.27039" lon="-0.63634">
        <ele>134</ele>
        <time>2012-02-29T15:41:29Z</time>
      </trkpt>
      <trkpt lat="48.27049" lon="-0.63603">
        <ele>128</ele>
        <time>2012-02-29T15:41:35Z</time>
      </trkpt>
      <trkpt lat="48.27062" lon="-0.63582">
        <ele>128</ele>
        <time>2012-02-29T15:41:39Z</time>
      </trkpt>
      <trkpt lat="48.27068" lon="-0.63539">
        <ele>130</ele>
        <time>2012-02-29T15:41:45Z</time>
      </trkpt>
      <trkpt lat="48.27066" lon="-0.63507">
        <ele>131</ele>
        <time>2012-02-29T15:41:49Z</time>
      </trkpt>
      <trkpt lat="48.27066" lon="-0.63482">
        <ele>132</ele>
        <time>2012-02-29T15:41:53Z</time>
      </trkpt>
      <trkpt lat="48.2707" lon="-0.63462">
        <ele>131</ele>
        <time>2012-02-29T15:41:57Z</time>
      </trkpt>
      <trkpt lat="48.27073" lon="-0.63445">
        <ele>129</ele>
        <time>2012-02-29T15:42:01Z</time>
      </trkpt>
      <trkpt lat="48.27076" lon="-0.63435">
        <ele>128</ele>
        <time>2012-02-29T15:42:03Z</time>
      </trkpt>
      <trkpt lat="48.27084" lon="-0.63411">
        <ele>130</ele>
        <time>2012-02-29T15:42:07Z</time>
      </trkpt>
      <trkpt lat="48.27089" lon="-0.63401">
        <ele>131</ele>
        <time>2012-02-29T15:42:09Z</time>
      </trkpt>
      <trkpt lat="48.27101" lon="-0.63382">
        <ele>132</ele>
        <time>2012-02-29T15:42:13Z</time>
      </trkpt>
      <trkpt lat="48.27134" lon="-0.63336">
        <ele>135</ele>
        <time>2012-02-29T15:42:23Z</time>
      </trkpt>
      <trkpt lat="48.27145" lon="-0.63318">
        <ele>135</ele>
        <time>2012-02-29T15:42:27Z</time>
      </trkpt>
      <trkpt lat="48.27153" lon="-0.63296">
        <ele>136</ele>
        <time>2012-02-29T15:42:31Z</time>
      </trkpt>
      <trkpt lat="48.27164" lon="-0.63276">
        <ele>136</ele>
        <time>2012-02-29T15:42:35Z</time>
      </trkpt>
      <trkpt lat="48.27177" lon="-0.63256">
        <ele>138</ele>
        <time>2012-02-29T15:42:39Z</time>
      </trkpt>
      <trkpt lat="48.27183" lon="-0.63245">
        <ele>138</ele>
        <time>2012-02-29T15:42:41Z</time>
      </trkpt>
      <trkpt lat="48.27194" lon="-0.63223">
        <ele>139</ele>
        <time>2012-02-29T15:42:45Z</time>
      </trkpt>
      <trkpt lat="48.27206" lon="-0.63199">
        <ele>140</ele>
        <time>2012-02-29T15:42:49Z</time>
      </trkpt>
      <trkpt lat="48.27216" lon="-0.63177">
        <ele>138</ele>
        <time>2012-02-29T15:42:53Z</time>
      </trkpt>
      <trkpt lat="48.27225" lon="-0.63159">
        <ele>137</ele>
        <time>2012-02-29T15:42:57Z</time>
      </trkpt>
      <trkpt lat="48.27232" lon="-0.63136">
        <ele>137</ele>
        <time>2012-02-29T15:43:01Z</time>
      </trkpt>
      <trkpt lat="48.27267" lon="-0.63083">
        <ele>137</ele>
        <time>2012-02-29T15:43:13Z</time>
      </trkpt>
      <trkpt lat="48.27276" lon="-0.6306">
        <ele>138</ele>
        <time>2012-02-29T15:43:17Z</time>
      </trkpt>
      <trkpt lat="48.27295" lon="-0.63032">
        <ele>138</ele>
        <time>2012-02-29T15:43:23Z</time>
      </trkpt>
      <trkpt lat="48.27318" lon="-0.63">
        <ele>139</ele>
        <time>2012-02-29T15:43:31Z</time>
      </trkpt>
      <trkpt lat="48.27327" lon="-0.62987">
        <ele>140</ele>
        <time>2012-02-29T15:43:35Z</time>
      </trkpt>
      <trkpt lat="48.27341" lon="-0.62974">
        <ele>140</ele>
        <time>2012-02-29T15:43:39Z</time>
      </trkpt>
      <trkpt lat="48.27349" lon="-0.62968">
        <ele>140</ele>
        <time>2012-02-29T15:43:41Z</time>
      </trkpt>
      <trkpt lat="48.27363" lon="-0.6296">
        <ele>140</ele>
        <time>2012-02-29T15:43:45Z</time>
      </trkpt>
      <trkpt lat="48.2737" lon="-0.62956">
        <ele>141</ele>
        <time>2012-02-29T15:43:47Z</time>
      </trkpt>
      <trkpt lat="48.27386" lon="-0.62948">
        <ele>141</ele>
        <time>2012-02-29T15:43:51Z</time>
      </trkpt>
      <trkpt lat="48.27402" lon="-0.62942">
        <ele>141</ele>
        <time>2012-02-29T15:43:55Z</time>
      </trkpt>
      <trkpt lat="48.2741" lon="-0.62939">
        <ele>141</ele>
        <time>2012-02-29T15:43:57Z</time>
      </trkpt>
      <trkpt lat="48.27429" lon="-0.62934">
        <ele>140</ele>
        <time>2012-02-29T15:44:01Z</time>
      </trkpt>
      <trkpt lat="48.27447" lon="-0.6293">
        <ele>140</ele>
        <time>2012-02-29T15:44:05Z</time>
      </trkpt>
      <trkpt lat="48.27463" lon="-0.62927">
        <ele>139</ele>
        <time>2012-02-29T15:44:09Z</time>
      </trkpt>
      <trkpt lat="48.27481" lon="-0.62924">
        <ele>138</ele>
        <time>2012-02-29T15:44:13Z</time>
      </trkpt>
      <trkpt lat="48.27497" lon="-0.62922">
        <ele>137</ele>
        <time>2012-02-29T15:44:17Z</time>
      </trkpt>
      <trkpt lat="48.27504" lon="-0.62921">
        <ele>137</ele>
        <time>2012-02-29T15:44:19Z</time>
      </trkpt>
      <trkpt lat="48.27519" lon="-0.62918">
        <ele>136</ele>
        <time>2012-02-29T15:44:23Z</time>
      </trkpt>
      <trkpt lat="48.27526" lon="-0.62916">
        <ele>136</ele>
        <time>2012-02-29T15:44:25Z</time>
      </trkpt>
      <trkpt lat="48.27541" lon="-0.62913">
        <ele>136</ele>
        <time>2012-02-29T15:44:29Z</time>
      </trkpt>
      <trkpt lat="48.27549" lon="-0.6291">
        <ele>136</ele>
        <time>2012-02-29T15:44:31Z</time>
      </trkpt>
      <trkpt lat="48.27566" lon="-0.62905">
        <ele>136</ele>
        <time>2012-02-29T15:44:35Z</time>
      </trkpt>
      <trkpt lat="48.27583" lon="-0.62899">
        <ele>136</ele>
        <time>2012-02-29T15:44:39Z</time>
      </trkpt>
      <trkpt lat="48.276" lon="-0.62894">
        <ele>137</ele>
        <time>2012-02-29T15:44:43Z</time>
      </trkpt>
      <trkpt lat="48.27615" lon="-0.62889">
        <ele>137</ele>
        <time>2012-02-29T15:44:47Z</time>
      </trkpt>
      <trkpt lat="48.27621" lon="-0.62888">
        <ele>138</ele>
        <time>2012-02-29T15:44:49Z</time>
      </trkpt>
      <trkpt lat="48.27636" lon="-0.62886">
        <ele>136</ele>
        <time>2012-02-29T15:44:53Z</time>
      </trkpt>
      <trkpt lat="48.27652" lon="-0.62881">
        <ele>136</ele>
        <time>2012-02-29T15:44:57Z</time>
      </trkpt>
      <trkpt lat="48.27664" lon="-0.62875">
        <ele>136</ele>
        <time>2012-02-29T15:45:01Z</time>
      </trkpt>
      <trkpt lat="48.27672" lon="-0.62872">
        <ele>137</ele>
        <time>2012-02-29T15:45:03Z</time>
      </trkpt>
      <trkpt lat="48.27687" lon="-0.62867">
        <ele>137</ele>
        <time>2012-02-29T15:45:07Z</time>
      </trkpt>
      <trkpt lat="48.27699" lon="-0.62865">
        <ele>137</ele>
        <time>2012-02-29T15:45:11Z</time>
      </trkpt>
      <trkpt lat="48.2771" lon="-0.62864">
        <ele>134</ele>
        <time>2012-02-29T15:45:17Z</time>
      </trkpt>
      <trkpt lat="48.27714" lon="-0.62863">
        <ele>135</ele>
        <time>2012-02-29T15:45:19Z</time>
      </trkpt>
      <trkpt lat="48.27726" lon="-0.62863">
        <ele>138</ele>
        <time>2012-02-29T15:45:27Z</time>
      </trkpt>
      <trkpt lat="48.27741" lon="-0.62863">
        <ele>137</ele>
        <time>2012-02-29T15:45:33Z</time>
      </trkpt>
      <trkpt lat="48.27747" lon="-0.62862">
        <ele>136</ele>
        <time>2012-02-29T15:45:35Z</time>
      </trkpt>
      <trkpt lat="48.27753" lon="-0.62861">
        <ele>135</ele>
        <time>2012-02-29T15:45:37Z</time>
      </trkpt>
      <trkpt lat="48.2776" lon="-0.62859">
        <ele>134</ele>
        <time>2012-02-29T15:45:39Z</time>
      </trkpt>
      <trkpt lat="48.27771" lon="-0.62856">
        <ele>132</ele>
        <time>2012-02-29T15:45:43Z</time>
      </trkpt>
      <trkpt lat="48.27776" lon="-0.62854">
        <ele>132</ele>
        <time>2012-02-29T15:45:45Z</time>
      </trkpt>
      <trkpt lat="48.27788" lon="-0.62849">
        <ele>131</ele>
        <time>2012-02-29T15:45:49Z</time>
      </trkpt>
      <trkpt lat="48.27794" lon="-0.62847">
        <ele>131</ele>
        <time>2012-02-29T15:45:51Z</time>
      </trkpt>
      <trkpt lat="48.27807" lon="-0.62841">
        <ele>131</ele>
        <time>2012-02-29T15:45:55Z</time>
      </trkpt>
      <trkpt lat="48.27813" lon="-0.62839">
        <ele>131</ele>
        <time>2012-02-29T15:45:57Z</time>
      </trkpt>
      <trkpt lat="48.27827" lon="-0.62835">
        <ele>133</ele>
        <time>2012-02-29T15:46:01Z</time>
      </trkpt>
      <trkpt lat="48.27834" lon="-0.62835">
        <ele>134</ele>
        <time>2012-02-29T15:46:03Z</time>
      </trkpt>
      <trkpt lat="48.27849" lon="-0.62833">
        <ele>135</ele>
        <time>2012-02-29T15:46:07Z</time>
      </trkpt>
      <trkpt lat="48.27856" lon="-0.62832">
        <ele>135</ele>
        <time>2012-02-29T15:46:09Z</time>
      </trkpt>
      <trkpt lat="48.27867" lon="-0.62826">
        <ele>136</ele>
        <time>2012-02-29T15:46:13Z</time>
      </trkpt>
      <trkpt lat="48.2788" lon="-0.62833">
        <ele>137</ele>
        <time>2012-02-29T15:46:19Z</time>
      </trkpt>
      <trkpt lat="48.27886" lon="-0.62837">
        <ele>138</ele>
        <time>2012-02-29T15:46:21Z</time>
      </trkpt>
      <trkpt lat="48.27897" lon="-0.62843">
        <ele>138</ele>
        <time>2012-02-29T15:46:25Z</time>
      </trkpt>
      <trkpt lat="48.27902" lon="-0.62845">
        <ele>138</ele>
        <time>2012-02-29T15:46:27Z</time>
      </trkpt>
      <trkpt lat="48.27913" lon="-0.62848">
        <ele>137</ele>
        <time>2012-02-29T15:46:31Z</time>
      </trkpt>
      <trkpt lat="48.27919" lon="-0.62849">
        <ele>137</ele>
        <time>2012-02-29T15:46:33Z</time>
      </trkpt>
      <trkpt lat="48.2793" lon="-0.62844">
        <ele>136</ele>
        <time>2012-02-29T15:46:37Z</time>
      </trkpt>
      <trkpt lat="48.27934" lon="-0.62841">
        <ele>136</ele>
        <time>2012-02-29T15:46:39Z</time>
      </trkpt>
      <trkpt lat="48.27949" lon="-0.62842">
        <ele>136</ele>
        <time>2012-02-29T15:46:45Z</time>
      </trkpt>
      <trkpt lat="48.27955" lon="-0.62843">
        <ele>136</ele>
        <time>2012-02-29T15:46:47Z</time>
      </trkpt>
      <trkpt lat="48.27967" lon="-0.62847">
        <ele>136</ele>
        <time>2012-02-29T15:46:51Z</time>
      </trkpt>
      <trkpt lat="48.27973" lon="-0.62849">
        <ele>136</ele>
        <time>2012-02-29T15:46:53Z</time>
      </trkpt>
      <trkpt lat="48.27985" lon="-0.62854">
        <ele>137</ele>
        <time>2012-02-29T15:46:57Z</time>
      </trkpt>
      <trkpt lat="48.27991" lon="-0.62857">
        <ele>137</ele>
        <time>2012-02-29T15:46:59Z</time>
      </trkpt>
      <trkpt lat="48.28002" lon="-0.62861">
        <ele>136</ele>
        <time>2012-02-29T15:47:03Z</time>
      </trkpt>
      <trkpt lat="48.28009" lon="-0.62864">
        <ele>136</ele>
        <time>2012-02-29T15:47:05Z</time>
      </trkpt>
      <trkpt lat="48.28022" lon="-0.62869">
        <ele>136</ele>
        <time>2012-02-29T15:47:09Z</time>
      </trkpt>
      <trkpt lat="48.28029" lon="-0.62871">
        <ele>136</ele>
        <time>2012-02-29T15:47:11Z</time>
      </trkpt>
      <trkpt lat="48.28042" lon="-0.62873">
        <ele>137</ele>
        <time>2012-02-29T15:47:15Z</time>
      </trkpt>
      <trkpt lat="48.2805" lon="-0.62874">
        <ele>137</ele>
        <time>2012-02-29T15:47:17Z</time>
      </trkpt>
      <trkpt lat="48.28064" lon="-0.62877">
        <ele>137</ele>
        <time>2012-02-29T15:47:21Z</time>
      </trkpt>
      <trkpt lat="48.28072" lon="-0.62878">
        <ele>137</ele>
        <time>2012-02-29T15:47:23Z</time>
      </trkpt>
      <trkpt lat="48.28087" lon="-0.62881">
        <ele>137</ele>
        <time>2012-02-29T15:47:27Z</time>
      </trkpt>
      <trkpt lat="48.28095" lon="-0.62881">
        <ele>137</ele>
        <time>2012-02-29T15:47:29Z</time>
      </trkpt>
      <trkpt lat="48.2811" lon="-0.62884">
        <ele>137</ele>
        <time>2012-02-29T15:47:33Z</time>
      </trkpt>
      <trkpt lat="48.28126" lon="-0.62886">
        <ele>137</ele>
        <time>2012-02-29T15:47:37Z</time>
      </trkpt>
      <trkpt lat="48.28133" lon="-0.62887">
        <ele>137</ele>
        <time>2012-02-29T15:47:39Z</time>
      </trkpt>
      <trkpt lat="48.28149" lon="-0.62888">
        <ele>137</ele>
        <time>2012-02-29T15:47:43Z</time>
      </trkpt>
      <trkpt lat="48.28161" lon="-0.62891">
        <ele>137</ele>
        <time>2012-02-29T15:47:47Z</time>
      </trkpt>
      <trkpt lat="48.28177" lon="-0.62895">
        <ele>137</ele>
        <time>2012-02-29T15:47:55Z</time>
      </trkpt>
      <trkpt lat="48.28197" lon="-0.62888">
        <ele>137</ele>
        <time>2012-02-29T15:48:01Z</time>
      </trkpt>
      <trkpt lat="48.28206" lon="-0.62889">
        <ele>137</ele>
        <time>2012-02-29T15:48:03Z</time>
      </trkpt>
      <trkpt lat="48.28228" lon="-0.62887">
        <ele>138</ele>
        <time>2012-02-29T15:48:09Z</time>
      </trkpt>
      <trkpt lat="48.28242" lon="-0.62886">
        <ele>138</ele>
        <time>2012-02-29T15:48:13Z</time>
      </trkpt>
      <trkpt lat="48.28255" lon="-0.62887">
        <ele>138</ele>
        <time>2012-02-29T15:48:17Z</time>
      </trkpt>
      <trkpt lat="48.28262" lon="-0.62887">
        <ele>138</ele>
        <time>2012-02-29T15:48:19Z</time>
      </trkpt>
      <trkpt lat="48.28278" lon="-0.62887">
        <ele>137</ele>
        <time>2012-02-29T15:48:23Z</time>
      </trkpt>
      <trkpt lat="48.28286" lon="-0.62887">
        <ele>137</ele>
        <time>2012-02-29T15:48:25Z</time>
      </trkpt>
      <trkpt lat="48.283" lon="-0.62887">
        <ele>137</ele>
        <time>2012-02-29T15:48:29Z</time>
      </trkpt>
      <trkpt lat="48.28316" lon="-0.62887">
        <ele>136</ele>
        <time>2012-02-29T15:48:33Z</time>
      </trkpt>
      <trkpt lat="48.28331" lon="-0.62888">
        <ele>137</ele>
        <time>2012-02-29T15:48:37Z</time>
      </trkpt>
      <trkpt lat="48.28339" lon="-0.62888">
        <ele>137</ele>
        <time>2012-02-29T15:48:39Z</time>
      </trkpt>
      <trkpt lat="48.28355" lon="-0.6289">
        <ele>137</ele>
        <time>2012-02-29T15:48:43Z</time>
      </trkpt>
      <trkpt lat="48.2837" lon="-0.62892">
        <ele>137</ele>
        <time>2012-02-29T15:48:47Z</time>
      </trkpt>
      <trkpt lat="48.28376" lon="-0.62895">
        <ele>137</ele>
        <time>2012-02-29T15:48:49Z</time>
      </trkpt>
      <trkpt lat="48.28391" lon="-0.62898">
        <ele>137</ele>
        <time>2012-02-29T15:48:53Z</time>
      </trkpt>
      <trkpt lat="48.28407" lon="-0.62901">
        <ele>138</ele>
        <time>2012-02-29T15:48:57Z</time>
      </trkpt>
      <trkpt lat="48.28423" lon="-0.62906">
        <ele>137</ele>
        <time>2012-02-29T15:49:01Z</time>
      </trkpt>
      <trkpt lat="48.28439" lon="-0.62909">
        <ele>140</ele>
        <time>2012-02-29T15:49:05Z</time>
      </trkpt>
      <trkpt lat="48.28454" lon="-0.62913">
        <ele>141</ele>
        <time>2012-02-29T15:49:09Z</time>
      </trkpt>
      <trkpt lat="48.28462" lon="-0.62914">
        <ele>141</ele>
        <time>2012-02-29T15:49:11Z</time>
      </trkpt>
      <trkpt lat="48.28478" lon="-0.62917">
        <ele>142</ele>
        <time>2012-02-29T15:49:15Z</time>
      </trkpt>
      <trkpt lat="48.28496" lon="-0.62918">
        <ele>143</ele>
        <time>2012-02-29T15:49:19Z</time>
      </trkpt>
      <trkpt lat="48.28504" lon="-0.62918">
        <ele>144</ele>
        <time>2012-02-29T15:49:21Z</time>
      </trkpt>
      <trkpt lat="48.28521" lon="-0.62916">
        <ele>146</ele>
        <time>2012-02-29T15:49:25Z</time>
      </trkpt>
      <trkpt lat="48.28529" lon="-0.62915">
        <ele>146</ele>
        <time>2012-02-29T15:49:27Z</time>
      </trkpt>
      <trkpt lat="48.28546" lon="-0.62913">
        <ele>145</ele>
        <time>2012-02-29T15:49:31Z</time>
      </trkpt>
      <trkpt lat="48.28564" lon="-0.6291">
        <ele>144</ele>
        <time>2012-02-29T15:49:35Z</time>
      </trkpt>
      <trkpt lat="48.28573" lon="-0.62909">
        <ele>144</ele>
        <time>2012-02-29T15:49:37Z</time>
      </trkpt>
      <trkpt lat="48.28591" lon="-0.62904">
        <ele>143</ele>
        <time>2012-02-29T15:49:41Z</time>
      </trkpt>
      <trkpt lat="48.28609" lon="-0.62899">
        <ele>143</ele>
        <time>2012-02-29T15:49:45Z</time>
      </trkpt>
      <trkpt lat="48.28626" lon="-0.62891">
        <ele>143</ele>
        <time>2012-02-29T15:49:49Z</time>
      </trkpt>
      <trkpt lat="48.28642" lon="-0.62881">
        <ele>142</ele>
        <time>2012-02-29T15:49:53Z</time>
      </trkpt>
      <trkpt lat="48.28656" lon="-0.6287">
        <ele>141</ele>
        <time>2012-02-29T15:49:57Z</time>
      </trkpt>
      <trkpt lat="48.28664" lon="-0.62863">
        <ele>141</ele>
        <time>2012-02-29T15:49:59Z</time>
      </trkpt>
      <trkpt lat="48.28678" lon="-0.62848">
        <ele>141</ele>
        <time>2012-02-29T15:50:03Z</time>
      </trkpt>
      <trkpt lat="48.28693" lon="-0.62832">
        <ele>139</ele>
        <time>2012-02-29T15:50:07Z</time>
      </trkpt>
      <trkpt lat="48.287" lon="-0.62825">
        <ele>138</ele>
        <time>2012-02-29T15:50:09Z</time>
      </trkpt>
      <trkpt lat="48.28715" lon="-0.62811">
        <ele>136</ele>
        <time>2012-02-29T15:50:13Z</time>
      </trkpt>
      <trkpt lat="48.28729" lon="-0.62799">
        <ele>135</ele>
        <time>2012-02-29T15:50:17Z</time>
      </trkpt>
      <trkpt lat="48.28736" lon="-0.62794">
        <ele>135</ele>
        <time>2012-02-29T15:50:19Z</time>
      </trkpt>
      <trkpt lat="48.28752" lon="-0.62783">
        <ele>135</ele>
        <time>2012-02-29T15:50:23Z</time>
      </trkpt>
      <trkpt lat="48.28769" lon="-0.62774">
        <ele>134</ele>
        <time>2012-02-29T15:50:27Z</time>
      </trkpt>
      <trkpt lat="48.28787" lon="-0.62766">
        <ele>134</ele>
        <time>2012-02-29T15:50:31Z</time>
      </trkpt>
      <trkpt lat="48.28805" lon="-0.62759">
        <ele>134</ele>
        <time>2012-02-29T15:50:35Z</time>
      </trkpt>
      <trkpt lat="48.28822" lon="-0.62751">
        <ele>134</ele>
        <time>2012-02-29T15:50:39Z</time>
      </trkpt>
      <trkpt lat="48.28839" lon="-0.6274">
        <ele>134</ele>
        <time>2012-02-29T15:50:43Z</time>
      </trkpt>
      <trkpt lat="48.28855" lon="-0.62726">
        <ele>133</ele>
        <time>2012-02-29T15:50:47Z</time>
      </trkpt>
      <trkpt lat="48.28869" lon="-0.62708">
        <ele>133</ele>
        <time>2012-02-29T15:50:51Z</time>
      </trkpt>
      <trkpt lat="48.28882" lon="-0.62691">
        <ele>133</ele>
        <time>2012-02-29T15:50:55Z</time>
      </trkpt>
      <trkpt lat="48.28892" lon="-0.62672">
        <ele>134</ele>
        <time>2012-02-29T15:50:59Z</time>
      </trkpt>
      <trkpt lat="48.28901" lon="-0.6265">
        <ele>134</ele>
        <time>2012-02-29T15:51:03Z</time>
      </trkpt>
      <trkpt lat="48.28911" lon="-0.62627">
        <ele>134</ele>
        <time>2012-02-29T15:51:07Z</time>
      </trkpt>
      <trkpt lat="48.28918" lon="-0.62601">
        <ele>134</ele>
        <time>2012-02-29T15:51:11Z</time>
      </trkpt>
      <trkpt lat="48.28925" lon="-0.62576">
        <ele>135</ele>
        <time>2012-02-29T15:51:15Z</time>
      </trkpt>
      <trkpt lat="48.28931" lon="-0.62554">
        <ele>135</ele>
        <time>2012-02-29T15:51:19Z</time>
      </trkpt>
      <trkpt lat="48.28937" lon="-0.6253">
        <ele>135</ele>
        <time>2012-02-29T15:51:23Z</time>
      </trkpt>
      <trkpt lat="48.28943" lon="-0.62505">
        <ele>135</ele>
        <time>2012-02-29T15:51:27Z</time>
      </trkpt>
      <trkpt lat="48.28948" lon="-0.62479">
        <ele>135</ele>
        <time>2012-02-29T15:51:31Z</time>
      </trkpt>
      <trkpt lat="48.28954" lon="-0.62453">
        <ele>135</ele>
        <time>2012-02-29T15:51:35Z</time>
      </trkpt>
      <trkpt lat="48.28959" lon="-0.62427">
        <ele>135</ele>
        <time>2012-02-29T15:51:39Z</time>
      </trkpt>
      <trkpt lat="48.28964" lon="-0.62402">
        <ele>135</ele>
        <time>2012-02-29T15:51:43Z</time>
      </trkpt>
      <trkpt lat="48.28966" lon="-0.62388">
        <ele>134</ele>
        <time>2012-02-29T15:51:45Z</time>
      </trkpt>
      <trkpt lat="48.2897" lon="-0.62362">
        <ele>134</ele>
        <time>2012-02-29T15:51:49Z</time>
      </trkpt>
      <trkpt lat="48.28972" lon="-0.62338">
        <ele>134</ele>
        <time>2012-02-29T15:51:53Z</time>
      </trkpt>
      <trkpt lat="48.28975" lon="-0.62316">
        <ele>134</ele>
        <time>2012-02-29T15:51:57Z</time>
      </trkpt>
      <trkpt lat="48.28977" lon="-0.62308">
        <ele>133</ele>
        <time>2012-02-29T15:51:59Z</time>
      </trkpt>
      <trkpt lat="48.28977" lon="-0.62281">
        <ele>134</ele>
        <time>2012-02-29T15:52:05Z</time>
      </trkpt>
      <trkpt lat="48.28975" lon="-0.62262">
        <ele>133</ele>
        <time>2012-02-29T15:52:11Z</time>
      </trkpt>
      <trkpt lat="48.28975" lon="-0.62252">
        <ele>134</ele>
        <time>2012-02-29T15:52:13Z</time>
      </trkpt>
      <trkpt lat="48.28974" lon="-0.62231">
        <ele>133</ele>
        <time>2012-02-29T15:52:17Z</time>
      </trkpt>
      <trkpt lat="48.28974" lon="-0.62219">
        <ele>134</ele>
        <time>2012-02-29T15:52:19Z</time>
      </trkpt>
      <trkpt lat="48.28974" lon="-0.62208">
        <ele>133</ele>
        <time>2012-02-29T15:52:21Z</time>
      </trkpt>
      <trkpt lat="48.28974" lon="-0.62187">
        <ele>130</ele>
        <time>2012-02-29T15:52:25Z</time>
      </trkpt>
      <trkpt lat="48.28978" lon="-0.62154">
        <ele>128</ele>
        <time>2012-02-29T15:52:31Z</time>
      </trkpt>
      <trkpt lat="48.28985" lon="-0.62114">
        <ele>128</ele>
        <time>2012-02-29T15:52:39Z</time>
      </trkpt>
      <trkpt lat="48.29004" lon="-0.62087">
        <ele>130</ele>
        <time>2012-02-29T15:52:45Z</time>
      </trkpt>
      <trkpt lat="48.29022" lon="-0.62062">
        <ele>130</ele>
        <time>2012-02-29T15:52:51Z</time>
      </trkpt>
      <trkpt lat="48.29053" lon="-0.62032">
        <ele>133</ele>
        <time>2012-02-29T15:52:59Z</time>
      </trkpt>
      <trkpt lat="48.29075" lon="-0.62017">
        <ele>126</ele>
        <time>2012-02-29T15:53:05Z</time>
      </trkpt>
      <trkpt lat="48.29095" lon="-0.6201">
        <ele>129</ele>
        <time>2012-02-29T15:53:09Z</time>
      </trkpt>
      <trkpt lat="48.29104" lon="-0.62007">
        <ele>130</ele>
        <time>2012-02-29T15:53:11Z</time>
      </trkpt>
      <trkpt lat="48.2913" lon="-0.61999">
        <ele>130</ele>
        <time>2012-02-29T15:53:17Z</time>
      </trkpt>
      <trkpt lat="48.29147" lon="-0.61996">
        <ele>132</ele>
        <time>2012-02-29T15:53:21Z</time>
      </trkpt>
      <trkpt lat="48.29154" lon="-0.61994">
        <ele>132</ele>
        <time>2012-02-29T15:53:23Z</time>
      </trkpt>
      <trkpt lat="48.29169" lon="-0.61988">
        <ele>132</ele>
        <time>2012-02-29T15:53:27Z</time>
      </trkpt>
      <trkpt lat="48.2919" lon="-0.6198">
        <ele>132</ele>
        <time>2012-02-29T15:53:33Z</time>
      </trkpt>
      <trkpt lat="48.29209" lon="-0.61973">
        <ele>134</ele>
        <time>2012-02-29T15:53:37Z</time>
      </trkpt>
      <trkpt lat="48.29228" lon="-0.61965">
        <ele>134</ele>
        <time>2012-02-29T15:53:41Z</time>
      </trkpt>
      <trkpt lat="48.29246" lon="-0.61957">
        <ele>134</ele>
        <time>2012-02-29T15:53:45Z</time>
      </trkpt>
      <trkpt lat="48.29263" lon="-0.61951">
        <ele>134</ele>
        <time>2012-02-29T15:53:49Z</time>
      </trkpt>
      <trkpt lat="48.29278" lon="-0.61946">
        <ele>134</ele>
        <time>2012-02-29T15:53:53Z</time>
      </trkpt>
      <trkpt lat="48.29293" lon="-0.61944">
        <ele>134</ele>
        <time>2012-02-29T15:53:57Z</time>
      </trkpt>
      <trkpt lat="48.29308" lon="-0.61944">
        <ele>134</ele>
        <time>2012-02-29T15:54:01Z</time>
      </trkpt>
      <trkpt lat="48.29324" lon="-0.6194">
        <ele>134</ele>
        <time>2012-02-29T15:54:05Z</time>
      </trkpt>
      <trkpt lat="48.2934" lon="-0.61942">
        <ele>134</ele>
        <time>2012-02-29T15:54:09Z</time>
      </trkpt>
      <trkpt lat="48.29356" lon="-0.61948">
        <ele>134</ele>
        <time>2012-02-29T15:54:13Z</time>
      </trkpt>
      <trkpt lat="48.29373" lon="-0.61955">
        <ele>134</ele>
        <time>2012-02-29T15:54:17Z</time>
      </trkpt>
      <trkpt lat="48.29382" lon="-0.61961">
        <ele>135</ele>
        <time>2012-02-29T15:54:19Z</time>
      </trkpt>
      <trkpt lat="48.29399" lon="-0.6197">
        <ele>135</ele>
        <time>2012-02-29T15:54:23Z</time>
      </trkpt>
      <trkpt lat="48.29416" lon="-0.61982">
        <ele>136</ele>
        <time>2012-02-29T15:54:27Z</time>
      </trkpt>
      <trkpt lat="48.29433" lon="-0.61991">
        <ele>136</ele>
        <time>2012-02-29T15:54:31Z</time>
      </trkpt>
      <trkpt lat="48.29452" lon="-0.61998">
        <ele>136</ele>
        <time>2012-02-29T15:54:35Z</time>
      </trkpt>
      <trkpt lat="48.29471" lon="-0.62003">
        <ele>135</ele>
        <time>2012-02-29T15:54:39Z</time>
      </trkpt>
      <trkpt lat="48.2949" lon="-0.62006">
        <ele>135</ele>
        <time>2012-02-29T15:54:43Z</time>
      </trkpt>
      <trkpt lat="48.29509" lon="-0.62008">
        <ele>134</ele>
        <time>2012-02-29T15:54:47Z</time>
      </trkpt>
      <trkpt lat="48.29527" lon="-0.6201">
        <ele>131</ele>
        <time>2012-02-29T15:54:51Z</time>
      </trkpt>
      <trkpt lat="48.29544" lon="-0.62015">
        <ele>131</ele>
        <time>2012-02-29T15:54:55Z</time>
      </trkpt>
      <trkpt lat="48.29562" lon="-0.62021">
        <ele>131</ele>
        <time>2012-02-29T15:54:59Z</time>
      </trkpt>
      <trkpt lat="48.29572" lon="-0.62023">
        <ele>132</ele>
        <time>2012-02-29T15:55:01Z</time>
      </trkpt>
      <trkpt lat="48.2959" lon="-0.62031">
        <ele>132</ele>
        <time>2012-02-29T15:55:05Z</time>
      </trkpt>
      <trkpt lat="48.29605" lon="-0.62039">
        <ele>132</ele>
        <time>2012-02-29T15:55:09Z</time>
      </trkpt>
      <trkpt lat="48.29619" lon="-0.62045">
        <ele>132</ele>
        <time>2012-02-29T15:55:13Z</time>
      </trkpt>
      <trkpt lat="48.29626" lon="-0.6205">
        <ele>132</ele>
        <time>2012-02-29T15:55:15Z</time>
      </trkpt>
      <trkpt lat="48.2964" lon="-0.62061">
        <ele>133</ele>
        <time>2012-02-29T15:55:19Z</time>
      </trkpt>
      <trkpt lat="48.29657" lon="-0.62071">
        <ele>133</ele>
        <time>2012-02-29T15:55:23Z</time>
      </trkpt>
      <trkpt lat="48.29667" lon="-0.62074">
        <ele>131</ele>
        <time>2012-02-29T15:55:25Z</time>
      </trkpt>
      <trkpt lat="48.29683" lon="-0.62078">
        <ele>134</ele>
        <time>2012-02-29T15:55:29Z</time>
      </trkpt>
      <trkpt lat="48.29701" lon="-0.6208">
        <ele>133</ele>
        <time>2012-02-29T15:55:33Z</time>
      </trkpt>
      <trkpt lat="48.2971" lon="-0.6208">
        <ele>133</ele>
        <time>2012-02-29T15:55:35Z</time>
      </trkpt>
      <trkpt lat="48.29728" lon="-0.62079">
        <ele>134</ele>
        <time>2012-02-29T15:55:39Z</time>
      </trkpt>
      <trkpt lat="48.29745" lon="-0.62074">
        <ele>134</ele>
        <time>2012-02-29T15:55:43Z</time>
      </trkpt>
      <trkpt lat="48.29752" lon="-0.62072">
        <ele>136</ele>
        <time>2012-02-29T15:55:45Z</time>
      </trkpt>
      <trkpt lat="48.29767" lon="-0.62064">
        <ele>137</ele>
        <time>2012-02-29T15:55:49Z</time>
      </trkpt>
      <trkpt lat="48.29781" lon="-0.62056">
        <ele>137</ele>
        <time>2012-02-29T15:55:53Z</time>
      </trkpt>
      <trkpt lat="48.29788" lon="-0.62051">
        <ele>138</ele>
        <time>2012-02-29T15:55:55Z</time>
      </trkpt>
      <trkpt lat="48.298" lon="-0.62041">
        <ele>136</ele>
        <time>2012-02-29T15:55:59Z</time>
      </trkpt>
      <trkpt lat="48.29814" lon="-0.6203">
        <ele>137</ele>
        <time>2012-02-29T15:56:03Z</time>
      </trkpt>
      <trkpt lat="48.29821" lon="-0.62024">
        <ele>138</ele>
        <time>2012-02-29T15:56:05Z</time>
      </trkpt>
      <trkpt lat="48.29835" lon="-0.62013">
        <ele>138</ele>
        <time>2012-02-29T15:56:09Z</time>
      </trkpt>
      <trkpt lat="48.29849" lon="-0.62">
        <ele>138</ele>
        <time>2012-02-29T15:56:13Z</time>
      </trkpt>
      <trkpt lat="48.29854" lon="-0.61995">
        <ele>138</ele>
        <time>2012-02-29T15:56:15Z</time>
      </trkpt>
      <trkpt lat="48.29865" lon="-0.61986">
        <ele>139</ele>
        <time>2012-02-29T15:56:19Z</time>
      </trkpt>
      <trkpt lat="48.29869" lon="-0.61982">
        <ele>139</ele>
        <time>2012-02-29T15:56:21Z</time>
      </trkpt>
      <trkpt lat="48.29878" lon="-0.61973">
        <ele>139</ele>
        <time>2012-02-29T15:56:25Z</time>
      </trkpt>
      <trkpt lat="48.29882" lon="-0.6197">
        <ele>139</ele>
        <time>2012-02-29T15:56:27Z</time>
      </trkpt>
      <trkpt lat="48.29887" lon="-0.61966">
        <ele>138</ele>
        <time>2012-02-29T15:56:29Z</time>
      </trkpt>
      <trkpt lat="48.29895" lon="-0.6196">
        <ele>138</ele>
        <time>2012-02-29T15:56:33Z</time>
      </trkpt>
      <trkpt lat="48.29899" lon="-0.61956">
        <ele>138</ele>
        <time>2012-02-29T15:56:35Z</time>
      </trkpt>
      <trkpt lat="48.29904" lon="-0.61952">
        <ele>138</ele>
        <time>2012-02-29T15:56:37Z</time>
      </trkpt>
      <trkpt lat="48.29913" lon="-0.61944">
        <ele>138</ele>
        <time>2012-02-29T15:56:41Z</time>
      </trkpt>
      <trkpt lat="48.29917" lon="-0.61941">
        <ele>138</ele>
        <time>2012-02-29T15:56:43Z</time>
      </trkpt>
      <trkpt lat="48.29927" lon="-0.61933">
        <ele>137</ele>
        <time>2012-02-29T15:56:49Z</time>
      </trkpt>
      <trkpt lat="48.2993" lon="-0.6193">
        <ele>137</ele>
        <time>2012-02-29T15:56:51Z</time>
      </trkpt>
      <trkpt lat="48.2994" lon="-0.61927">
        <ele>137</ele>
        <time>2012-02-29T15:56:57Z</time>
      </trkpt>
      <trkpt lat="48.29943" lon="-0.61926">
        <ele>138</ele>
        <time>2012-02-29T15:56:59Z</time>
      </trkpt>
      <trkpt lat="48.29943" lon="-0.61926">
        <ele>138</ele>
        <time>2012-02-29T15:57:15Z</time>
      </trkpt>
      <trkpt lat="48.29943" lon="-0.61926">
        <ele>138</ele>
        <time>2012-02-29T15:57:51Z</time>
      </trkpt>
      <trkpt lat="48.29943" lon="-0.61926">
        <ele>138</ele>
        <time>2012-02-29T15:58:09Z</time>
      </trkpt>
      <trkpt lat="48.29935" lon="-0.61932">
        <ele>128</ele>
        <time>2012-02-29T15:58:27Z</time>
      </trkpt>
      <trkpt lat="48.2993" lon="-0.61936">
        <ele>128</ele>
        <time>2012-02-29T15:58:29Z</time>
      </trkpt>
      <trkpt lat="48.29918" lon="-0.61946">
        <ele>127</ele>
        <time>2012-02-29T15:58:33Z</time>
      </trkpt>
      <trkpt lat="48.29912" lon="-0.61952">
        <ele>128</ele>
        <time>2012-02-29T15:58:35Z</time>
      </trkpt>
      <trkpt lat="48.29898" lon="-0.61964">
        <ele>129</ele>
        <time>2012-02-29T15:58:36Z</time>
      </trkpt>
      <trkpt lat="48.29905" lon="-0.61958">
        <ele>128</ele>
        <time>2012-02-29T15:58:37Z</time>
      </trkpt>
      <trkpt lat="48.29892" lon="-0.6197">
        <ele>131</ele>
        <time>2012-02-29T15:58:38Z</time>
      </trkpt>
      <trkpt lat="48.29886" lon="-0.61976">
        <ele>132</ele>
        <time>2012-02-29T15:58:40Z</time>
      </trkpt>
      <trkpt lat="48.29881" lon="-0.61981">
        <ele>133</ele>
        <time>2012-02-29T15:58:42Z</time>
      </trkpt>
      <trkpt lat="48.29875" lon="-0.61986">
        <ele>133</ele>
        <time>2012-02-29T15:58:44Z</time>
      </trkpt>
      <trkpt lat="48.29862" lon="-0.61997">
        <ele>134</ele>
        <time>2012-02-29T15:58:48Z</time>
      </trkpt>
      <trkpt lat="48.29848" lon="-0.62008">
        <ele>135</ele>
        <time>2012-02-29T15:58:52Z</time>
      </trkpt>
      <trkpt lat="48.29833" lon="-0.62019">
        <ele>134</ele>
        <time>2012-02-29T15:58:56Z</time>
      </trkpt>
      <trkpt lat="48.29818" lon="-0.62032">
        <ele>134</ele>
        <time>2012-02-29T15:59:00Z</time>
      </trkpt>
      <trkpt lat="48.29806" lon="-0.62045">
        <ele>136</ele>
        <time>2012-02-29T15:59:04Z</time>
      </trkpt>
      <trkpt lat="48.298" lon="-0.62052">
        <ele>135</ele>
        <time>2012-02-29T15:59:06Z</time>
      </trkpt>
      <trkpt lat="48.29786" lon="-0.62064">
        <ele>134</ele>
        <time>2012-02-29T15:59:10Z</time>
      </trkpt>
      <trkpt lat="48.29771" lon="-0.62074">
        <ele>134</ele>
        <time>2012-02-29T15:59:14Z</time>
      </trkpt>
      <trkpt lat="48.29756" lon="-0.62081">
        <ele>132</ele>
        <time>2012-02-29T15:59:18Z</time>
      </trkpt>
      <trkpt lat="48.29752" lon="-0.62079">
        <ele>131</ele>
        <time>2012-02-29T15:59:20Z</time>
      </trkpt>
      <trkpt lat="48.29739" lon="-0.62085">
        <ele>127</ele>
        <time>2012-02-29T15:59:24Z</time>
      </trkpt>
      <trkpt lat="48.29732" lon="-0.62087">
        <ele>125</ele>
        <time>2012-02-29T15:59:26Z</time>
      </trkpt>
      <trkpt lat="48.29717" lon="-0.62086">
        <ele>123</ele>
        <time>2012-02-29T15:59:30Z</time>
      </trkpt>
      <trkpt lat="48.29708" lon="-0.62085">
        <ele>123</ele>
        <time>2012-02-29T15:59:32Z</time>
      </trkpt>
      <trkpt lat="48.29689" lon="-0.62081">
        <ele>125</ele>
        <time>2012-02-29T15:59:36Z</time>
      </trkpt>
      <trkpt lat="48.2967" lon="-0.62075">
        <ele>126</ele>
        <time>2012-02-29T15:59:40Z</time>
      </trkpt>
      <trkpt lat="48.29653" lon="-0.62068">
        <ele>125</ele>
        <time>2012-02-29T15:59:44Z</time>
      </trkpt>
      <trkpt lat="48.29637" lon="-0.62058">
        <ele>127</ele>
        <time>2012-02-29T15:59:48Z</time>
      </trkpt>
      <trkpt lat="48.2962" lon="-0.62047">
        <ele>127</ele>
        <time>2012-02-29T15:59:52Z</time>
      </trkpt>
      <trkpt lat="48.29605" lon="-0.62037">
        <ele>126</ele>
        <time>2012-02-29T15:59:56Z</time>
      </trkpt>
      <trkpt lat="48.2959" lon="-0.6203">
        <ele>127</ele>
        <time>2012-02-29T16:00:00Z</time>
      </trkpt>
      <trkpt lat="48.29575" lon="-0.62026">
        <ele>127</ele>
        <time>2012-02-29T16:00:04Z</time>
      </trkpt>
      <trkpt lat="48.29558" lon="-0.62018">
        <ele>129</ele>
        <time>2012-02-29T16:00:08Z</time>
      </trkpt>
      <trkpt lat="48.2955" lon="-0.62016">
        <ele>130</ele>
        <time>2012-02-29T16:00:10Z</time>
      </trkpt>
      <trkpt lat="48.29533" lon="-0.6201">
        <ele>129</ele>
        <time>2012-02-29T16:00:14Z</time>
      </trkpt>
      <trkpt lat="48.29518" lon="-0.62008">
        <ele>127</ele>
        <time>2012-02-29T16:00:18Z</time>
      </trkpt>
      <trkpt lat="48.2951" lon="-0.62007">
        <ele>128</ele>
        <time>2012-02-29T16:00:20Z</time>
      </trkpt>
      <trkpt lat="48.29495" lon="-0.62007">
        <ele>126</ele>
        <time>2012-02-29T16:00:24Z</time>
      </trkpt>
      <trkpt lat="48.29487" lon="-0.62007">
        <ele>126</ele>
        <time>2012-02-29T16:00:26Z</time>
      </trkpt>
      <trkpt lat="48.29471" lon="-0.62003">
        <ele>127</ele>
        <time>2012-02-29T16:00:30Z</time>
      </trkpt>
      <trkpt lat="48.29457" lon="-0.61999">
        <ele>129</ele>
        <time>2012-02-29T16:00:34Z</time>
      </trkpt>
      <trkpt lat="48.29443" lon="-0.61994">
        <ele>130</ele>
        <time>2012-02-29T16:00:38Z</time>
      </trkpt>
      <trkpt lat="48.2943" lon="-0.61988">
        <ele>130</ele>
        <time>2012-02-29T16:00:42Z</time>
      </trkpt>
      <trkpt lat="48.29424" lon="-0.61984">
        <ele>131</ele>
        <time>2012-02-29T16:00:44Z</time>
      </trkpt>
      <trkpt lat="48.2941" lon="-0.61976">
        <ele>133</ele>
        <time>2012-02-29T16:00:48Z</time>
      </trkpt>
      <trkpt lat="48.29403" lon="-0.61972">
        <ele>134</ele>
        <time>2012-02-29T16:00:50Z</time>
      </trkpt>
      <trkpt lat="48.29387" lon="-0.61961">
        <ele>134</ele>
        <time>2012-02-29T16:00:54Z</time>
      </trkpt>
      <trkpt lat="48.29374" lon="-0.61953">
        <ele>135</ele>
        <time>2012-02-29T16:00:58Z</time>
      </trkpt>
      <trkpt lat="48.2936" lon="-0.61948">
        <ele>136</ele>
        <time>2012-02-29T16:01:02Z</time>
      </trkpt>
      <trkpt lat="48.29353" lon="-0.61945">
        <ele>136</ele>
        <time>2012-02-29T16:01:04Z</time>
      </trkpt>
      <trkpt lat="48.29339" lon="-0.6194">
        <ele>136</ele>
        <time>2012-02-29T16:01:08Z</time>
      </trkpt>
      <trkpt lat="48.29332" lon="-0.61938">
        <ele>136</ele>
        <time>2012-02-29T16:01:10Z</time>
      </trkpt>
      <trkpt lat="48.29319" lon="-0.61938">
        <ele>136</ele>
        <time>2012-02-29T16:01:14Z</time>
      </trkpt>
      <trkpt lat="48.29314" lon="-0.61939">
        <ele>136</ele>
        <time>2012-02-29T16:01:16Z</time>
      </trkpt>
      <trkpt lat="48.29301" lon="-0.61938">
        <ele>137</ele>
        <time>2012-02-29T16:01:22Z</time>
      </trkpt>
      <trkpt lat="48.29281" lon="-0.61941">
        <ele>137</ele>
        <time>2012-02-29T16:01:28Z</time>
      </trkpt>
      <trkpt lat="48.29273" lon="-0.61943">
        <ele>137</ele>
        <time>2012-02-29T16:01:30Z</time>
      </trkpt>
      <trkpt lat="48.29258" lon="-0.61947">
        <ele>138</ele>
        <time>2012-02-29T16:01:34Z</time>
      </trkpt>
      <trkpt lat="48.29249" lon="-0.61949">
        <ele>138</ele>
        <time>2012-02-29T16:01:36Z</time>
      </trkpt>
      <trkpt lat="48.29233" lon="-0.61954">
        <ele>138</ele>
        <time>2012-02-29T16:01:40Z</time>
      </trkpt>
      <trkpt lat="48.29226" lon="-0.61956">
        <ele>138</ele>
        <time>2012-02-29T16:01:42Z</time>
      </trkpt>
      <trkpt lat="48.29206" lon="-0.61962">
        <ele>138</ele>
        <time>2012-02-29T16:01:48Z</time>
      </trkpt>
      <trkpt lat="48.29197" lon="-0.61963">
        <ele>138</ele>
        <time>2012-02-29T16:01:52Z</time>
      </trkpt>
      <trkpt lat="48.29193" lon="-0.61964">
        <ele>137</ele>
        <time>2012-02-29T16:01:54Z</time>
      </trkpt>
      <trkpt lat="48.29188" lon="-0.61964">
        <ele>138</ele>
        <time>2012-02-29T16:01:58Z</time>
      </trkpt>
      <trkpt lat="48.29188" lon="-0.61964">
        <ele>138</ele>
        <time>2012-02-29T16:02:14Z</time>
      </trkpt>
      <trkpt lat="48.29184" lon="-0.61965">
        <ele>138</ele>
        <time>2012-02-29T16:02:18Z</time>
      </trkpt>
      <trkpt lat="48.29177" lon="-0.61967">
        <ele>136</ele>
        <time>2012-02-29T16:02:22Z</time>
      </trkpt>
      <trkpt lat="48.29164" lon="-0.6197">
        <ele>135</ele>
        <time>2012-02-29T16:02:28Z</time>
      </trkpt>
      <trkpt lat="48.29159" lon="-0.61973">
        <ele>135</ele>
        <time>2012-02-29T16:02:30Z</time>
      </trkpt>
      <trkpt lat="48.29153" lon="-0.61975">
        <ele>135</ele>
        <time>2012-02-29T16:02:32Z</time>
      </trkpt>
      <trkpt lat="48.29147" lon="-0.61978">
        <ele>136</ele>
        <time>2012-02-29T16:02:34Z</time>
      </trkpt>
      <trkpt lat="48.29135" lon="-0.61982">
        <ele>137</ele>
        <time>2012-02-29T16:02:38Z</time>
      </trkpt>
      <trkpt lat="48.29129" lon="-0.61984">
        <ele>137</ele>
        <time>2012-02-29T16:02:40Z</time>
      </trkpt>
      <trkpt lat="48.29116" lon="-0.61991">
        <ele>139</ele>
        <time>2012-02-29T16:02:44Z</time>
      </trkpt>
      <trkpt lat="48.2911" lon="-0.61994">
        <ele>140</ele>
        <time>2012-02-29T16:02:46Z</time>
      </trkpt>
      <trkpt lat="48.29096" lon="-0.62001">
        <ele>140</ele>
        <time>2012-02-29T16:02:50Z</time>
      </trkpt>
      <trkpt lat="48.2909" lon="-0.62004">
        <ele>140</ele>
        <time>2012-02-29T16:02:52Z</time>
      </trkpt>
      <trkpt lat="48.29078" lon="-0.62011">
        <ele>141</ele>
        <time>2012-02-29T16:02:56Z</time>
      </trkpt>
      <trkpt lat="48.29072" lon="-0.62016">
        <ele>141</ele>
        <time>2012-02-29T16:02:58Z</time>
      </trkpt>
      <trkpt lat="48.29058" lon="-0.6203">
        <ele>141</ele>
        <time>2012-02-29T16:03:02Z</time>
      </trkpt>
      <trkpt lat="48.29052" lon="-0.62037">
        <ele>141</ele>
        <time>2012-02-29T16:03:04Z</time>
      </trkpt>
      <trkpt lat="48.29038" lon="-0.62043">
        <ele>136</ele>
        <time>2012-02-29T16:03:08Z</time>
      </trkpt>
      <trkpt lat="48.29033" lon="-0.62047">
        <ele>134</ele>
        <time>2012-02-29T16:03:10Z</time>
      </trkpt>
      <trkpt lat="48.29014" lon="-0.62067">
        <ele>132</ele>
        <time>2012-02-29T16:03:16Z</time>
      </trkpt>
      <trkpt lat="48.28998" lon="-0.62091">
        <ele>130</ele>
        <time>2012-02-29T16:03:22Z</time>
      </trkpt>
      <trkpt lat="48.28984" lon="-0.62131">
        <ele>127</ele>
        <time>2012-02-29T16:03:30Z</time>
      </trkpt>
      <trkpt lat="48.28978" lon="-0.62171">
        <ele>129</ele>
        <time>2012-02-29T16:03:36Z</time>
      </trkpt>
      <trkpt lat="48.28979" lon="-0.62217">
        <ele>135</ele>
        <time>2012-02-29T16:03:42Z</time>
      </trkpt>
      <trkpt lat="48.28979" lon="-0.62245">
        <ele>135</ele>
        <time>2012-02-29T16:03:46Z</time>
      </trkpt>
      <trkpt lat="48.28979" lon="-0.62298">
        <ele>142</ele>
        <time>2012-02-29T16:03:54Z</time>
      </trkpt>
      <trkpt lat="48.28979" lon="-0.62324">
        <ele>142</ele>
        <time>2012-02-29T16:03:58Z</time>
      </trkpt>
      <trkpt lat="48.28975" lon="-0.62363">
        <ele>142</ele>
        <time>2012-02-29T16:04:04Z</time>
      </trkpt>
      <trkpt lat="48.28972" lon="-0.6239">
        <ele>141</ele>
        <time>2012-02-29T16:04:08Z</time>
      </trkpt>
      <trkpt lat="48.28967" lon="-0.62413">
        <ele>141</ele>
        <time>2012-02-29T16:04:12Z</time>
      </trkpt>
      <trkpt lat="48.28964" lon="-0.62423">
        <ele>141</ele>
        <time>2012-02-29T16:04:14Z</time>
      </trkpt>
      <trkpt lat="48.2896" lon="-0.62444">
        <ele>140</ele>
        <time>2012-02-29T16:04:18Z</time>
      </trkpt>
      <trkpt lat="48.28958" lon="-0.62455">
        <ele>141</ele>
        <time>2012-02-29T16:04:20Z</time>
      </trkpt>
      <trkpt lat="48.28912" lon="-0.62641">
        <ele>142</ele>
        <time>2012-02-29T16:04:48Z</time>
      </trkpt>
      <trkpt lat="48.28906" lon="-0.62654">
        <ele>141</ele>
        <time>2012-02-29T16:04:50Z</time>
      </trkpt>
      <trkpt lat="48.28901" lon="-0.62666">
        <ele>140</ele>
        <time>2012-02-29T16:04:52Z</time>
      </trkpt>
      <trkpt lat="48.28893" lon="-0.62686">
        <ele>137</ele>
        <time>2012-02-29T16:04:56Z</time>
      </trkpt>
      <trkpt lat="48.28882" lon="-0.62704">
        <ele>135</ele>
        <time>2012-02-29T16:05:00Z</time>
      </trkpt>
      <trkpt lat="48.28876" lon="-0.62714">
        <ele>134</ele>
        <time>2012-02-29T16:05:02Z</time>
      </trkpt>
      <trkpt lat="48.28861" lon="-0.62731">
        <ele>133</ele>
        <time>2012-02-29T16:05:06Z</time>
      </trkpt>
      <trkpt lat="48.28845" lon="-0.62746">
        <ele>133</ele>
        <time>2012-02-29T16:05:10Z</time>
      </trkpt>
      <trkpt lat="48.28829" lon="-0.62757">
        <ele>132</ele>
        <time>2012-02-29T16:05:14Z</time>
      </trkpt>
      <trkpt lat="48.28812" lon="-0.62767">
        <ele>131</ele>
        <time>2012-02-29T16:05:18Z</time>
      </trkpt>
      <trkpt lat="48.28804" lon="-0.6277">
        <ele>131</ele>
        <time>2012-02-29T16:05:20Z</time>
      </trkpt>
      <trkpt lat="48.28788" lon="-0.62777">
        <ele>131</ele>
        <time>2012-02-29T16:05:24Z</time>
      </trkpt>
      <trkpt lat="48.2877" lon="-0.62785">
        <ele>132</ele>
        <time>2012-02-29T16:05:28Z</time>
      </trkpt>
      <trkpt lat="48.28755" lon="-0.62793">
        <ele>133</ele>
        <time>2012-02-29T16:05:32Z</time>
      </trkpt>
      <trkpt lat="48.28742" lon="-0.62801">
        <ele>133</ele>
        <time>2012-02-29T16:05:36Z</time>
      </trkpt>
      <trkpt lat="48.28728" lon="-0.62813">
        <ele>132</ele>
        <time>2012-02-29T16:05:40Z</time>
      </trkpt>
      <trkpt lat="48.28721" lon="-0.62819">
        <ele>132</ele>
        <time>2012-02-29T16:05:42Z</time>
      </trkpt>
      <trkpt lat="48.28707" lon="-0.62834">
        <ele>132</ele>
        <time>2012-02-29T16:05:46Z</time>
      </trkpt>
      <trkpt lat="48.28692" lon="-0.62849">
        <ele>132</ele>
        <time>2012-02-29T16:05:50Z</time>
      </trkpt>
      <trkpt lat="48.28677" lon="-0.62865">
        <ele>133</ele>
        <time>2012-02-29T16:05:54Z</time>
      </trkpt>
      <trkpt lat="48.28661" lon="-0.6288">
        <ele>134</ele>
        <time>2012-02-29T16:05:58Z</time>
      </trkpt>
      <trkpt lat="48.28645" lon="-0.62893">
        <ele>134</ele>
        <time>2012-02-29T16:06:02Z</time>
      </trkpt>
      <trkpt lat="48.28628" lon="-0.62903">
        <ele>134</ele>
        <time>2012-02-29T16:06:06Z</time>
      </trkpt>
      <trkpt lat="48.28611" lon="-0.62911">
        <ele>133</ele>
        <time>2012-02-29T16:06:10Z</time>
      </trkpt>
      <trkpt lat="48.28593" lon="-0.62915">
        <ele>133</ele>
        <time>2012-02-29T16:06:14Z</time>
      </trkpt>
      <trkpt lat="48.28575" lon="-0.62919">
        <ele>133</ele>
        <time>2012-02-29T16:06:18Z</time>
      </trkpt>
      <trkpt lat="48.28557" lon="-0.62922">
        <ele>133</ele>
        <time>2012-02-29T16:06:22Z</time>
      </trkpt>
      <trkpt lat="48.28537" lon="-0.62924">
        <ele>133</ele>
        <time>2012-02-29T16:06:26Z</time>
      </trkpt>
      <trkpt lat="48.28518" lon="-0.62925">
        <ele>133</ele>
        <time>2012-02-29T16:06:30Z</time>
      </trkpt>
      <trkpt lat="48.28501" lon="-0.62924">
        <ele>134</ele>
        <time>2012-02-29T16:06:34Z</time>
      </trkpt>
      <trkpt lat="48.28484" lon="-0.62922">
        <ele>134</ele>
        <time>2012-02-29T16:06:38Z</time>
      </trkpt>
      <trkpt lat="48.28468" lon="-0.62919">
        <ele>134</ele>
        <time>2012-02-29T16:06:42Z</time>
      </trkpt>
      <trkpt lat="48.2846" lon="-0.62918">
        <ele>134</ele>
        <time>2012-02-29T16:06:44Z</time>
      </trkpt>
      <trkpt lat="48.28444" lon="-0.62914">
        <ele>134</ele>
        <time>2012-02-29T16:06:48Z</time>
      </trkpt>
      <trkpt lat="48.28436" lon="-0.62912">
        <ele>134</ele>
        <time>2012-02-29T16:06:50Z</time>
      </trkpt>
      <trkpt lat="48.2842" lon="-0.62908">
        <ele>135</ele>
        <time>2012-02-29T16:06:54Z</time>
      </trkpt>
      <trkpt lat="48.28405" lon="-0.62906">
        <ele>134</ele>
        <time>2012-02-29T16:06:58Z</time>
      </trkpt>
      <trkpt lat="48.28388" lon="-0.62902">
        <ele>134</ele>
        <time>2012-02-29T16:07:02Z</time>
      </trkpt>
      <trkpt lat="48.28371" lon="-0.62897">
        <ele>135</ele>
        <time>2012-02-29T16:07:06Z</time>
      </trkpt>
      <trkpt lat="48.28363" lon="-0.62895">
        <ele>136</ele>
        <time>2012-02-29T16:07:08Z</time>
      </trkpt>
      <trkpt lat="48.28347" lon="-0.62892">
        <ele>136</ele>
        <time>2012-02-29T16:07:12Z</time>
      </trkpt>
      <trkpt lat="48.28332" lon="-0.62891">
        <ele>136</ele>
        <time>2012-02-29T16:07:16Z</time>
      </trkpt>
      <trkpt lat="48.28316" lon="-0.6289">
        <ele>137</ele>
        <time>2012-02-29T16:07:20Z</time>
      </trkpt>
      <trkpt lat="48.283" lon="-0.62889">
        <ele>138</ele>
        <time>2012-02-29T16:07:24Z</time>
      </trkpt>
      <trkpt lat="48.28283" lon="-0.62889">
        <ele>138</ele>
        <time>2012-02-29T16:07:28Z</time>
      </trkpt>
      <trkpt lat="48.28266" lon="-0.62889">
        <ele>138</ele>
        <time>2012-02-29T16:07:32Z</time>
      </trkpt>
      <trkpt lat="48.28258" lon="-0.62889">
        <ele>138</ele>
        <time>2012-02-29T16:07:34Z</time>
      </trkpt>
      <trkpt lat="48.2824" lon="-0.62889">
        <ele>138</ele>
        <time>2012-02-29T16:07:38Z</time>
      </trkpt>
      <trkpt lat="48.28222" lon="-0.62889">
        <ele>139</ele>
        <time>2012-02-29T16:07:42Z</time>
      </trkpt>
      <trkpt lat="48.28205" lon="-0.62889">
        <ele>139</ele>
        <time>2012-02-29T16:07:46Z</time>
      </trkpt>
      <trkpt lat="48.28191" lon="-0.6289">
        <ele>140</ele>
        <time>2012-02-29T16:07:50Z</time>
      </trkpt>
      <trkpt lat="48.28179" lon="-0.62895">
        <ele>139</ele>
        <time>2012-02-29T16:07:54Z</time>
      </trkpt>
      <trkpt lat="48.28156" lon="-0.62907">
        <ele>139</ele>
        <time>2012-02-29T16:08:02Z</time>
      </trkpt>
      <trkpt lat="48.28147" lon="-0.62903">
        <ele>139</ele>
        <time>2012-02-29T16:08:06Z</time>
      </trkpt>
      <trkpt lat="48.28143" lon="-0.629">
        <ele>139</ele>
        <time>2012-02-29T16:08:08Z</time>
      </trkpt>
      <trkpt lat="48.28125" lon="-0.62896">
        <ele>138</ele>
        <time>2012-02-29T16:08:14Z</time>
      </trkpt>
      <trkpt lat="48.28119" lon="-0.62894">
        <ele>138</ele>
        <time>2012-02-29T16:08:16Z</time>
      </trkpt>
      <trkpt lat="48.28108" lon="-0.62892">
        <ele>138</ele>
        <time>2012-02-29T16:08:20Z</time>
      </trkpt>
      <trkpt lat="48.28103" lon="-0.6289">
        <ele>138</ele>
        <time>2012-02-29T16:08:22Z</time>
      </trkpt>
      <trkpt lat="48.2809" lon="-0.62886">
        <ele>136</ele>
        <time>2012-02-29T16:08:26Z</time>
      </trkpt>
      <trkpt lat="48.28083" lon="-0.62886">
        <ele>137</ele>
        <time>2012-02-29T16:08:28Z</time>
      </trkpt>
      <trkpt lat="48.28069" lon="-0.62883">
        <ele>136</ele>
        <time>2012-02-29T16:08:32Z</time>
      </trkpt>
      <trkpt lat="48.28063" lon="-0.62882">
        <ele>136</ele>
        <time>2012-02-29T16:08:34Z</time>
      </trkpt>
      <trkpt lat="48.2805" lon="-0.62878">
        <ele>135</ele>
        <time>2012-02-29T16:08:38Z</time>
      </trkpt>
      <trkpt lat="48.28044" lon="-0.62877">
        <ele>135</ele>
        <time>2012-02-29T16:08:40Z</time>
      </trkpt>
      <trkpt lat="48.28036" lon="-0.62875">
        <ele>134</ele>
        <time>2012-02-29T16:08:44Z</time>
      </trkpt>
      <trkpt lat="48.28028" lon="-0.62872">
        <ele>133</ele>
        <time>2012-02-29T16:08:48Z</time>
      </trkpt>
      <trkpt lat="48.28021" lon="-0.6287">
        <ele>133</ele>
        <time>2012-02-29T16:08:52Z</time>
      </trkpt>
      <trkpt lat="48.28018" lon="-0.62869">
        <ele>132</ele>
        <time>2012-02-29T16:08:54Z</time>
      </trkpt>
      <trkpt lat="48.28015" lon="-0.62868">
        <ele>132</ele>
        <time>2012-02-29T16:08:56Z</time>
      </trkpt>
      <trkpt lat="48.28003" lon="-0.62863">
        <ele>133</ele>
        <time>2012-02-29T16:09:06Z</time>
      </trkpt>
      <trkpt lat="48.27995" lon="-0.6286">
        <ele>132</ele>
        <time>2012-02-29T16:09:12Z</time>
      </trkpt>
      <trkpt lat="48.27989" lon="-0.62857">
        <ele>132</ele>
        <time>2012-02-29T16:09:16Z</time>
      </trkpt>
      <trkpt lat="48.27987" lon="-0.62856">
        <ele>132</ele>
        <time>2012-02-29T16:09:18Z</time>
      </trkpt>
      <trkpt lat="48.27983" lon="-0.62854">
        <ele>132</ele>
        <time>2012-02-29T16:09:20Z</time>
      </trkpt>
      <trkpt lat="48.2798" lon="-0.62853">
        <ele>132</ele>
        <time>2012-02-29T16:09:22Z</time>
      </trkpt>
      <trkpt lat="48.2797" lon="-0.6285">
        <ele>132</ele>
        <time>2012-02-29T16:09:26Z</time>
      </trkpt>
      <trkpt lat="48.27966" lon="-0.62848">
        <ele>132</ele>
        <time>2012-02-29T16:09:28Z</time>
      </trkpt>
      <trkpt lat="48.27961" lon="-0.62846">
        <ele>133</ele>
        <time>2012-02-29T16:09:30Z</time>
      </trkpt>
      <trkpt lat="48.27957" lon="-0.62845">
        <ele>133</ele>
        <time>2012-02-29T16:09:32Z</time>
      </trkpt>
      <trkpt lat="48.27952" lon="-0.62844">
        <ele>133</ele>
        <time>2012-02-29T16:09:34Z</time>
      </trkpt>
      <trkpt lat="48.27943" lon="-0.62842">
        <ele>134</ele>
        <time>2012-02-29T16:09:38Z</time>
      </trkpt>
      <trkpt lat="48.27938" lon="-0.62841">
        <ele>134</ele>
        <time>2012-02-29T16:09:40Z</time>
      </trkpt>
      <trkpt lat="48.27928" lon="-0.62848">
        <ele>134</ele>
        <time>2012-02-29T16:09:46Z</time>
      </trkpt>
      <trkpt lat="48.27923" lon="-0.6285">
        <ele>134</ele>
        <time>2012-02-29T16:09:48Z</time>
      </trkpt>
      <trkpt lat="48.27918" lon="-0.6285">
        <ele>134</ele>
        <time>2012-02-29T16:09:50Z</time>
      </trkpt>
      <trkpt lat="48.27905" lon="-0.62847">
        <ele>135</ele>
        <time>2012-02-29T16:09:56Z</time>
      </trkpt>
      <trkpt lat="48.27901" lon="-0.62846">
        <ele>135</ele>
        <time>2012-02-29T16:09:58Z</time>
      </trkpt>
      <trkpt lat="48.27893" lon="-0.62841">
        <ele>136</ele>
        <time>2012-02-29T16:10:02Z</time>
      </trkpt>
      <trkpt lat="48.27888" lon="-0.62839">
        <ele>136</ele>
        <time>2012-02-29T16:10:04Z</time>
      </trkpt>
      <trkpt lat="48.27884" lon="-0.62836">
        <ele>136</ele>
        <time>2012-02-29T16:10:06Z</time>
      </trkpt>
      <trkpt lat="48.2788" lon="-0.62834">
        <ele>136</ele>
        <time>2012-02-29T16:10:08Z</time>
      </trkpt>
      <trkpt lat="48.27869" lon="-0.62835">
        <ele>135</ele>
        <time>2012-02-29T16:10:14Z</time>
      </trkpt>
      <trkpt lat="48.27876" lon="-0.62832">
        <ele>136</ele>
        <time>2012-02-29T16:10:22Z</time>
      </trkpt>
      <trkpt lat="48.27881" lon="-0.62832">
        <ele>136</ele>
        <time>2012-02-29T16:10:24Z</time>
      </trkpt>
      <trkpt lat="48.27898" lon="-0.62833">
        <ele>137</ele>
        <time>2012-02-29T16:10:32Z</time>
      </trkpt>
      <trkpt lat="48.27905" lon="-0.62837">
        <ele>138</ele>
        <time>2012-02-29T16:10:36Z</time>
      </trkpt>
      <trkpt lat="48.27913" lon="-0.62829">
        <ele>138</ele>
        <time>2012-02-29T16:10:42Z</time>
      </trkpt>
      <trkpt lat="48.27924" lon="-0.62827">
        <ele>138</ele>
        <time>2012-02-29T16:10:50Z</time>
      </trkpt>
      <trkpt lat="48.27929" lon="-0.62827">
        <ele>138</ele>
        <time>2012-02-29T16:10:52Z</time>
      </trkpt>
      <trkpt lat="48.27915" lon="-0.62839">
        <ele>138</ele>
        <time>2012-02-29T16:11:02Z</time>
      </trkpt>
      <trkpt lat="48.27907" lon="-0.62836">
        <ele>138</ele>
        <time>2012-02-29T16:11:06Z</time>
      </trkpt>
      <trkpt lat="48.27901" lon="-0.62824">
        <ele>138</ele>
        <time>2012-02-29T16:11:12Z</time>
      </trkpt>
      <trkpt lat="48.27901" lon="-0.62824">
        <ele>86.6</ele>
        <time>2012-02-29T16:11:27Z</time>
      </trkpt>
    </trkseg>
  </trk>
</gpx>